[[{"header":{"parameterUnit":"m.s-1","parameterCategory":1,"la1":30.6,"la2":28.766,"lo1":-90.7593,"lo2":-88.6598,"dy":0.0162,"dx":0.0183,"nx":116,"ny":114,"refTime":"2023-05-07T00:00:00:Z","depth":0,"parameterNumber":2,"parameterNumberName":"U-component_of_WINDS"},"data":[0.0,0.0,0.0,0.0,0.0,0.0,0.0,0.0,0.0,0.0,0.0,0.0,0.0,0.0,0.0,0.0,0.0,0.0,0.0,0.0,0.0,0.0,0.0,0.0,0.0,0.0,0.0,0.0,0.0,0.0,0.0,0.0,0.0,0.0,0.0,0.0,0.0,0.0,0.0,0.0,0.0,0.0,0.0,0.0,0.0,0.0,0.0,0.0,0.0,0.0,0.0,0.0,0.0,0.0,0.0,0.0,0.0,0.0,0.0,0.0,0.0,0.0,0.0,0.0,0.0,0.0,0.0,0.0,0.0,0.0,0.0,0.0,0.0,0.0,0.0,0.0,0.0,0.0,0.0,0.0,0.0,0.0,0.0,0.0,0.0,0.0,0.0,0.0,0.0,0.0,0.0,0.0,0.0,0.0,0.0,0.0,0.0,0.0,0.0,0.0,0.0,0.0,0.0,0.0,0.0,0.0,0.0,0.0,0.0,0.0,0.0,0.0,0.0,0.0,0.0,0.0,0.0,0.0,0.0,0.0,0.0,0.0,0.0,0.0,0.0,0.0,0.0,0.0,0.0,0.0,0.0,0.0,0.0,0.0,0.0,0.0,0.0,0.0,0.0,0.0,0.0,0.0,0.0,0.0,0.0,0.0,0.0,0.0,0.0,0.0,0.0,0.0,0.0,0.0,0.0,0.0,0.0,0.0,0.0,0.0,0.0,0.0,0.0,0.0,0.0,0.0,0.0,0.0,0.0,0.0,0.0,0.0,0.0,0.0,0.0,0.0,0.0,0.0,0.0,0.0,0.0,0.0,0.0,0.0,0.0,0.0,0.0,0.0,0.0,0.0,0.0,0.0,0.0,0.0,0.0,0.0,0.0,0.0,0.0,0.0,0.0,0.0,0.0,0.0,0.0,0.0,0.0,0.0,0.0,0.0,0.0,0.0,0.0,0.0,0.0,0.0,0.0,0.0,0.0,0.0,0.0,0.0,0.0,0.0,0.0,0.0,0.0,0.0,0.0,0.0,0.0,0.0,0.0,0.0,0.0,0.0,0.0,0.0,0.0,0.0,0.0,0.0,0.0,0.0,0.0,0.0,0.0,0.0,0.0,0.0,0.0,0.0,0.0,0.0,0.0,0.0,0.0,0.0,0.0,0.0,0.0,0.0,0.0,0.0,0.0,0.0,0.0,0.0,0.0,0.0,0.0,0.0,0.0,0.0,0.0,0.0,0.0,0.0,0.0,0.0,0.0,0.0,0.0,0.0,0.0,0.0,0.0,0.0,0.0,0.0,0.0,0.0,0.0,0.0,0.0,0.0,0.0,0.0,0.0,0.0,0.0,0.0,0.0,0.0,0.0,0.0,0.0,0.0,0.0,0.0,0.0,0.0,0.0,0.0,0.0,0.0,0.0,0.0,0.0,0.0,0.0,0.0,0.0,0.0,0.0,0.0,0.0,0.0,0.0,0.0,0.0,0.0,0.0,0.0,0.0,0.0,0.0,0.0,0.0,0.0,0.0,0.0,0.0,0.0,0.0,0.0,0.0,0.0,0.0,0.0,0.0,0.0,0.0,0.0,0.0,0.0,0.0,0.0,0.0,0.0,0.0,0.0,0.0,0.0,0.0,0.0,0.0,0.0,0.0,0.0,0.0,0.0,0.0,0.0,0.0,0.0,0.0,0.0,0.0,0.0,0.0,0.0,0.0,0.0,0.0,0.0,0.0,0.0,0.0,0.0,0.0,0.0,0.0,0.0,0.0,0.0,0.0,0.0,0.0,0.0,0.0,0.0,0.0,0.0,0.0,0.0,0.0,0.0,0.0,0.0,0.0,0.0,0.0,0.0,0.0,0.0,0.0,0.0,0.0,0.0,0.0,0.0,0.0,0.0,0.0,0.0,0.0,0.0,0.0,0.0,0.0,0.0,0.0,0.0,0.0,0.0,0.0,0.0,0.0,0.0,0.0,0.0,0.0,0.0,0.0,0.0,0.0,0.0,0.0,0.0,0.0,0.0,0.0,0.0,0.0,0.0,0.0,0.0,0.0,0.0,0.0,0.0,0.0,0.0,0.0,0.0,0.0,0.0,0.0,0.0,0.0,0.0,0.0,0.0,0.0,0.0,0.0,0.0,0.0,0.0,0.0,0.0,0.0,0.0,0.0,0.0,0.0,0.0,0.0,0.0,0.0,0.0,0.0,0.0,0.0,0.0,0.0,0.0,0.0,0.0,0.0,0.0,0.0,0.0,0.0,0.0,0.0,0.0,0.0,0.0,0.0,0.0,0.0,0.0,0.0,0.0,0.0,0.0,0.0,0.0,0.0,0.0,0.0,0.0,0.0,0.0,0.0,0.0,0.0,0.0,0.0,0.0,0.0,0.0,0.0,0.0,0.0,0.0,0.0,0.0,0.0,0.0,0.0,0.0,0.0,0.0,0.0,0.0,0.0,0.0,0.0,0.0,0.0,0.0,0.0,0.0,0.0,0.0,0.0,0.0,0.0,0.0,0.0,0.0,0.0,0.0,0.0,0.0,0.0,0.0,0.0,0.0,0.0,0.0,0.0,0.0,0.0,0.0,0.0,0.0,0.0,0.0,0.0,0.0,0.0,0.0,0.0,0.0,0.0,0.0,0.0,0.0,0.0,0.0,0.0,0.0,0.0,0.0,0.0,0.0,0.0,0.0,0.0,0.0,0.0,0.0,0.0,0.0,0.0,0.0,0.0,0.0,0.0,0.0,0.0,0.0,0.0,0.0,0.0,0.0,0.0,0.0,0.0,0.0,0.0,0.0,0.0,0.0,0.0,0.0,0.0,0.0,0.0,0.0,0.0,0.0,0.0,0.0,0.0,0.0,0.0,0.0,0.0,0.0,0.0,0.0,0.0,0.0,0.0,0.0,0.0,0.0,0.0,0.0,0.0,0.0,0.0,0.0,0.0,0.0,0.0,0.0,0.0,0.0,0.0,0.0,0.0,0.0,0.0,0.0,0.0,0.0,0.0,0.0,0.0,0.0,0.0,0.0,0.0,0.0,0.0,0.0,0.0,0.0,0.0,0.0,0.0,0.0,0.0,0.0,0.0,0.0,0.0,0.0,0.0,0.0,0.0,0.0,0.0,0.0,0.0,0.0,0.0,0.0,0.0,0.0,0.0,0.0,0.0,0.0,0.0,0.0,0.0,0.0,0.0,0.0,0.0,0.0,0.0,0.0,0.0,0.0,0.0,0.0,0.0,0.0,0.0,0.0,0.0,0.0,0.0,0.0,0.0,0.0,0.0,0.0,0.0,0.0,0.0,0.0,0.0,0.0,0.0,0.0,0.0,0.0,0.0,0.0,0.0,0.0,0.0,0.0,0.0,0.0,0.0,0.0,0.0,0.0,0.0,0.0,0.0,0.0,0.0,0.0,0.0,0.0,0.0,0.0,0.0,0.0,0.0,0.0,0.0,0.0,0.0,0.0,0.0,0.0,0.0,0.0,0.0,0.0,0.0,0.0,0.0,0.0,0.0,0.0,0.0,0.0,0.0,0.0,0.0,0.0,0.0,0.0,0.0,0.0,0.0,0.0,0.0,0.0,0.0,0.0,0.0,0.0,0.0,0.0,0.0,0.0,0.0,0.0,0.0,0.0,0.0,0.0,0.0,0.0,0.0,0.0,0.0,0.0,0.0,0.0,0.0,0.0,0.0,0.0,0.0,0.0,0.0,0.0,0.0,0.0,0.0,0.0,0.0,0.0,0.0,0.0,0.0,0.0,0.0,0.0,0.0,0.0,0.0,0.0,0.0,0.0,0.0,0.0,0.0,0.0,0.0,0.0,0.0,0.0,0.0,0.0,0.0,0.0,0.0,0.0,0.0,0.0,0.0,0.0,0.0,0.0,0.0,0.0,0.0,0.0,0.0,0.0,0.0,0.0,0.0,0.0,0.0,0.0,0.0,0.0,0.0,0.0,0.0,0.0,0.0,0.0,0.0,0.0,0.0,0.0,0.0,0.0,0.0,0.0,0.0,0.0,0.0,0.0,0.0,0.0,0.0,0.0,0.0,0.0,0.0,0.0,0.0,0.0,0.0,0.0,0.0,0.0,0.0,0.0,0.0,0.0,0.0,0.0,0.0,0.0,0.0,0.0,0.0,0.0,0.0,0.0,0.0,0.0,0.0,0.0,0.0,0.0,0.0,0.0,0.0,0.0,0.0,0.0,0.0,0.0,0.0,0.0,0.0,0.0,0.0,0.0,0.0,0.0,0.0,0.0,0.0,0.0,0.0,0.0,0.0,0.0,0.0,0.0,0.0,0.0,0.0,0.0,0.0,0.0,0.0,0.0,0.0,0.0,0.0,0.0,0.0,0.0,0.0,0.0,0.0,0.0,0.0,0.0,0.0,0.0,0.0,0.0,0.0,0.0,0.0,0.0,0.0,0.0,0.0,0.0,0.0,0.0,0.0,0.0,0.0,0.0,0.0,0.0,0.0,0.0,0.0,0.0,0.0,0.0,0.0,0.0,0.0,0.0,0.0,0.0,0.0,0.0,0.0,0.0,0.0,0.0,0.0,0.0,0.0,0.0,0.0,0.0,0.0,0.0,0.0,0.0,0.0,0.0,0.0,0.0,0.0,0.0,0.0,0.0,0.0,0.0,0.0,0.0,0.0,0.0,0.0,0.0,0.0,0.0,0.0,0.0,0.0,0.0,0.0,0.0,0.0,0.0,0.0,0.0,0.0,0.0,0.0,0.0,0.0,0.0,0.0,0.0,0.0,0.0,0.0,0.0,0.0,0.0,0.0,0.0,0.0,0.0,0.0,0.0,0.0,0.0,0.0,0.0,0.0,0.0,0.0,0.0,0.0,0.0,0.0,0.0,0.0,0.0,0.0,0.0,0.0,0.0,0.0,0.0,0.0,0.0,0.0,0.0,0.0,0.0,0.0,0.0,0.0,0.0,0.0,0.0,0.0,0.0,0.0,0.0,0.0,0.0,0.0,0.0,0.0,0.0,0.0,0.0,0.0,0.0,0.0,0.0,0.0,0.0,0.0,0.0,0.0,0.0,0.0,0.0,0.0,0.0,0.0,0.0,0.0,0.0,0.0,0.0,0.0,0.0,0.0,0.0,0.0,0.0,0.0,0.0,0.0,0.0,0.0,0.0,0.0,0.0,0.0,0.0,0.0,0.0,0.0,0.0,0.0,0.0,0.0,0.0,0.0,0.0,0.0,0.0,0.0,0.0,0.0,0.0,0.0,0.0,0.0,0.0,0.0,0.0,0.0,0.0,0.0,0.0,0.0,0.0,0.0,0.0,0.0,0.0,0.0,0.0,0.0,0.0,0.0,0.0,0.0,0.0,0.0,0.0,0.0,0.0,0.0,0.0,0.0,0.0,0.0,0.0,0.0,0.0,0.0,0.0,0.0,0.0,0.0,0.0,0.0,0.0,0.0,0.0,0.0,0.0,0.0,0.0,0.0,0.0,0.0,0.0,0.0,0.0,0.0,0.0,0.0,0.0,0.0,0.0,0.0,0.0,0.0,0.0,0.0,0.0,0.0,0.0,0.0,0.0,0.0,0.0,0.0,0.0,0.0,0.0,0.0,0.0,0.0,0.0,0.0,0.0,0.0,0.0,0.0,0.0,0.0,0.0,0.0,0.0,0.0,0.0,0.0,0.0,0.0,0.0,0.0,0.0,0.0,0.0,0.0,0.0,0.0,0.0,0.0,0.0,0.0,0.0,0.0,0.0,0.0,0.0,0.0,0.0,0.0,0.0,0.0,0.0,0.0,0.0,0.0,0.0,0.0,0.0,0.0,0.0,0.0,0.0,0.0,0.0,0.0,0.0,0.0,0.0,0.0,0.0,0.0,0.0,0.0,0.0,0.0,0.0,0.0,0.0,0.0,0.0,0.0,0.0,0.0,0.0,0.0,0.0,0.0,0.0,0.0,0.0,0.0,0.0,0.0,0.0,0.0,0.0,0.0,0.0,0.0,0.0,0.0,0.0,0.0,0.0,0.0,0.0,0.0,0.0,0.0,0.0,0.0,0.0,0.0,0.0,0.0,0.0,0.0,0.0,0.0,0.0,0.0,0.0,0.0,0.0,0.0,0.0,0.0,0.0,0.0,0.0,0.0,0.0,0.0,0.0,0.0,0.0,0.0,0.0,-2.7668,0.0,0.0,0.0,0.0,0.0,0.0,0.0,0.0,0.0,0.0,0.0,0.0,0.0,0.0,0.0,0.0,0.0,0.0,0.0,0.0,0.0,0.0,0.0,0.0,0.0,0.0,0.0,0.0,0.0,0.0,0.0,0.0,0.0,0.0,0.0,0.0,0.0,0.0,0.0,-2.0445,-2.1318,-2.2563,-2.2911,-2.2835,-2.2401,0.0,0.0,0.0,0.0,0.0,0.0,0.0,0.0,0.0,0.0,0.0,0.0,0.0,0.0,0.0,0.0,0.0,0.0,0.0,0.0,0.0,0.0,0.0,0.0,0.0,0.0,0.0,0.0,0.0,0.0,0.0,0.0,0.0,0.0,0.0,0.0,0.0,0.0,0.0,0.0,0.0,0.0,0.0,0.0,0.0,0.0,0.0,0.0,0.0,0.0,0.0,0.0,0.0,0.0,0.0,0.0,0.0,0.0,0.0,0.0,0.0,0.0,0.0,0.0,0.0,0.0,0.0,0.0,0.0,0.0,0.0,-2.889,0.0,0.0,0.0,0.0,0.0,0.0,0.0,0.0,0.0,0.0,0.0,0.0,0.0,0.0,0.0,0.0,0.0,0.0,0.0,0.0,0.0,0.0,0.0,-1.731,-1.782,-1.781,-1.7884,-1.7933,0.0,0.0,0.0,0.0,0.0,0.0,0.0,-1.9332,-2.0123,-2.1518,-2.1793,-2.2726,-2.4252,-2.507,-2.4664,-2.329,-2.3263,0.0,0.0,0.0,0.0,0.0,0.0,0.0,0.0,0.0,0.0,0.0,0.0,0.0,0.0,0.0,0.0,0.0,0.0,0.0,0.0,0.0,0.0,0.0,0.0,0.0,0.0,0.0,0.0,0.0,0.0,0.0,0.0,0.0,0.0,0.0,0.0,0.0,0.0,0.0,0.0,0.0,0.0,0.0,0.0,0.0,0.0,0.0,0.0,0.0,0.0,0.0,0.0,0.0,0.0,0.0,0.0,0.0,0.0,0.0,0.0,0.0,0.0,0.0,-3.366,-3.384,-3.384,-3.4074,-3.4192,-3.4095,-3.25,-3.1123,-3.004,-2.9814,0.0,0.0,0.0,0.0,0.0,0.0,0.0,0.0,0.0,0.0,0.0,0.0,0.0,0.0,0.0,0.0,0.0,0.0,0.0,0.0,0.0,-1.8209,-1.8709,-1.8644,-1.9269,-1.9668,-1.9675,0.0,0.0,0.0,0.0,0.0,-2.0859,-2.1629,-2.2121,-2.234,-2.3795,-2.5013,-2.5987,-2.6785,-2.7049,-2.6816,-2.6715,-2.6219,-2.5457,0.0,0.0,0.0,0.0,0.0,0.0,0.0,0.0,0.0,0.0,0.0,0.0,0.0,0.0,0.0,0.0,0.0,0.0,0.0,0.0,0.0,0.0,0.0,0.0,0.0,0.0,0.0,0.0,0.0,0.0,0.0,0.0,0.0,0.0,0.0,0.0,0.0,0.0,0.0,0.0,0.0,-2.5143,-2.5252,0.0,0.0,0.0,0.0,0.0,0.0,0.0,0.0,0.0,0.0,0.0,0.0,0.0,-3.2837,-3.296,-3.3073,-3.3198,-3.3318,-3.4834,-3.557,-3.5629,-3.7078,-3.7728,-3.7664,-3.6614,0.0,-3.2546,-3.1787,0.0,0.0,0.0,0.0,0.0,0.0,0.0,0.0,0.0,0.0,0.0,0.0,0.0,0.0,0.0,0.0,0.0,0.0,0.0,0.0,0.0,-1.9806,-2.0494,-2.0948,-2.1275,-2.1467,-2.145,-2.1425,0.0,0.0,0.0,-2.1926,-2.1926,-2.2305,-2.2968,-2.391,-2.5615,-2.6642,-2.6987,-2.7842,-2.8199,-2.8199,-2.8547,-2.797,-2.6663,-2.5761,0.0,0.0,0.0,0.0,0.0,0.0,0.0,0.0,0.0,0.0,0.0,0.0,0.0,0.0,0.0,0.0,0.0,0.0,0.0,0.0,0.0,0.0,0.0,0.0,0.0,0.0,0.0,0.0,0.0,0.0,0.0,0.0,0.0,0.0,0.0,0.0,0.0,0.0,0.0,-2.4888,-2.5957,-2.6948,-2.7749,-2.8197,0.0,0.0,0.0,0.0,0.0,0.0,0.0,0.0,0.0,-3.271,-3.4053,-3.4753,-3.4753,-3.5691,-3.6161,-3.6181,-3.6936,-3.7306,-3.7325,-3.8078,-3.8399,-3.8373,-3.7924,-3.7035,-3.5764,-3.3917,-3.2613,-3.1751,0.0,0.0,0.0,0.0,-3.0519,-3.0605,0.0,0.0,0.0,0.0,0.0,0.0,0.0,0.0,0.0,0.0,0.0,0.0,-2.0402,-2.1244,-2.1986,-2.2647,-2.2645,-2.2595,-2.2595,-2.2531,-2.2495,-2.2495,-2.2703,-2.2912,-2.3127,-2.3563,-2.4391,-2.5644,-2.7146,-2.7868,-2.7827,-2.8909,-2.9379,-2.9342,-3.0098,-2.9393,-2.7582,-2.6848,-2.592,-2.4823,0.0,0.0,0.0,0.0,0.0,0.0,0.0,0.0,0.0,0.0,0.0,0.0,0.0,0.0,0.0,0.0,0.0,0.0,0.0,0.0,0.0,0.0,0.0,0.0,0.0,0.0,0.0,0.0,0.0,0.0,0.0,0.0,0.0,0.0,0.0,0.0,0.0,-2.6364,-2.7411,-2.8716,-2.9265,-2.9521,0.0,0.0,0.0,0.0,0.0,0.0,-3.2967,-3.3601,-3.4163,-3.463,-3.5892,-3.657,-3.657,-3.7785,-3.8404,-3.8404,-3.863,-3.8727,-3.8747,-3.8952,-3.9023,-3.8996,-3.8732,-3.8551,-3.8267,-3.6068,-3.4533,-3.3496,-3.3394,-3.3066,-3.2661,-3.2618,-3.2676,-3.279,0.0,0.0,0.0,0.0,0.0,0.0,0.0,0.0,0.0,0.0,0.0,-2.038,-2.1249,-2.2111,-2.2647,-2.2704,-2.2645,-2.2595,-2.2595,-2.2531,-2.2495,-2.2495,-2.3234,-2.4036,-2.4852,-2.6425,-2.7285,-2.7361,-2.8218,-2.8646,-2.8684,-3.0322,-3.1035,-3.1021,-3.1817,-3.0827,-2.8514,-2.8347,-2.7294,-2.5663,-2.486,0.0,0.0,0.0,0.0,0.0,0.0,0.0,0.0,0.0,0.0,0.0,0.0,0.0,0.0,0.0,0.0,0.0,0.0,0.0,0.0,0.0,0.0,0.0,0.0,0.0,0.0,0.0,0.0,0.0,0.0,0.0,0.0,0.0,0.0,0.0,0.0,0.0,0.0,-3.0669,-3.212,0.0,0.0,0.0,0.0,-3.3197,-3.3284,-3.4018,-3.5615,-3.5758,-3.6529,-3.8185,-3.8329,-3.8377,-3.8377,-3.8396,-3.8404,-3.8404,-3.9237,-3.9637,-3.9652,-4.0422,-4.0736,-4.0632,-3.9801,-3.9412,-3.9263,-3.8232,-3.6767,-3.5174,-3.5092,-3.4064,-3.2591,-3.2594,-3.2641,-3.2707,0.0,0.0,0.0,0.0,0.0,0.0,0.0,0.0,-1.7028,-1.8039,-1.9746,-2.1219,-2.2149,-2.2977,-2.3929,-2.5056,-2.5036,-2.5216,-2.5786,-2.5746,-2.5724,-2.5724,-2.5989,-2.6292,-2.6603,-2.7706,-2.8241,-2.8198,-2.9069,-2.9715,-3.0191,-3.0796,-3.1353,-3.1873,-3.2128,-3.1742,-3.0847,-2.971,-2.8521,-2.7297,-2.5925,-2.4847,0.0,0.0,0.0,0.0,0.0,0.0,0.0,0.0,0.0,0.0,0.0,0.0,0.0,0.0,0.0,0.0,0.0,0.0,0.0,0.0,0.0,0.0,0.0,0.0,0.0,0.0,0.0,0.0,0.0,0.0,0.0,0.0,0.0,0.0,0.0,0.0,0.0,-3.2344,-3.3012,0.0,-3.3404,-3.4417,-3.5077,-3.5073,-3.6062,-3.6935,-3.7549,-3.7564,-3.7868,-3.848,-3.8991,-3.927,-3.9275,-3.9801,-4.0053,-4.0017,-4.032,-4.0461,-4.0481,-4.0722,-4.0826,-4.0773,-4.0428,-4.0237,-4.014,-3.9727,-3.85,-3.6892,-3.6781,-3.6357,-3.5807,-3.5769,-3.5815,-3.5923,0.0,0.0,0.0,0.0,0.0,0.0,0.0,0.0,-1.7429,-1.8441,-2.0421,-2.1991,-2.2608,-2.3929,-2.522,-2.6374,-2.6626,-2.6972,-2.7535,-2.7523,-2.7494,-2.7494,-2.7744,-2.7862,-2.7862,-2.8652,-2.9044,-2.9001,-2.9859,-3.0522,-3.1015,-3.1581,-3.2138,-3.2675,-3.2918,-3.2879,-3.252,-3.11,-2.9814,-2.8615,-2.7213,-2.5965,-2.4833,0.0,0.0,0.0,0.0,0.0,0.0,0.0,0.0,0.0,0.0,0.0,0.0,0.0,0.0,0.0,0.0,0.0,0.0,0.0,0.0,0.0,0.0,0.0,0.0,0.0,0.0,0.0,0.0,0.0,0.0,0.0,0.0,0.0,0.0,0.0,-3.2654,-3.411,-3.4542,-3.4836,-3.5129,-3.6201,-3.6882,-3.6879,-3.7884,-3.8636,-3.8922,-3.8931,-3.9054,-3.9328,-3.9857,-4.0131,-4.0147,-4.0682,-4.0931,-4.0893,-4.0883,-4.0872,-4.0853,-4.0826,-4.0792,-4.0763,-4.07,-4.0628,-4.0565,-4.0452,-3.9689,-3.8562,-3.8166,-3.7814,-3.7528,-3.7518,-3.7566,-3.7633,0.0,0.0,0.0,0.0,0.0,0.0,0.0,-1.6314,-1.7355,-1.8363,-2.0884,-2.2609,-2.2595,-2.4935,-2.6484,-2.6447,-2.7165,-2.7611,-2.7576,-2.7566,-2.7562,-2.7562,-2.8255,-2.8647,-2.8647,-2.9391,-2.9799,-2.9837,-3.0619,-3.1015,-3.11,-3.2722,-3.3466,-3.3462,-3.43,-3.4223,-3.3371,-3.2518,-3.1184,-2.9608,-2.8671,-2.7326,-2.5789,0.0,0.0,0.0,0.0,0.0,0.0,0.0,0.0,0.0,0.0,0.0,0.0,0.0,0.0,0.0,0.0,0.0,0.0,0.0,0.0,0.0,0.0,0.0,0.0,0.0,0.0,0.0,0.0,0.0,0.0,0.0,0.0,0.0,-3.0923,-3.3124,-3.5066,-3.5946,-3.6811,-3.7672,-3.8513,-3.8611,-3.863,-3.863,-3.8594,-3.895,-3.9828,-3.9881,-4.0247,-4.1068,-4.1085,-4.1066,-4.1045,-4.0971,-4.0921,-4.0902,-4.0837,-4.0807,-4.0807,-4.0792,-4.0757,-4.0694,-4.0622,-4.0564,-4.0489,-4.043,-4.0327,-4.012,-3.9194,-3.8269,-3.7495,-3.7546,-3.7584,-3.7604,0.0,0.0,0.0,0.0,0.0,0.0,0.0,-1.6246,-1.7305,-1.8358,-2.0815,-2.2481,-2.2596,-2.4846,-2.6594,-2.7223,-2.8013,-2.8696,-2.9219,-2.9236,-2.9223,-2.9162,-2.9362,-2.9466,-2.9466,-2.9695,-3.0092,-3.0678,-3.0885,-3.1581,-3.2685,-3.3135,-3.3628,-3.4147,-3.439,-3.4383,-3.4142,-3.3318,-3.2373,-3.1221,-2.9186,-2.8045,-2.7382,0.0,0.0,0.0,0.0,0.0,0.0,0.0,0.0,0.0,0.0,0.0,0.0,0.0,0.0,0.0,0.0,0.0,0.0,0.0,0.0,0.0,0.0,0.0,0.0,0.0,0.0,0.0,0.0,0.0,0.0,0.0,0.0,-3.3624,-3.3633,-3.4791,-3.5967,-3.685,-3.7711,-3.8337,-3.8572,-3.9138,-3.9468,-3.9468,-4.0044,-4.0773,-4.1642,-4.1685,-4.2049,-4.2852,-4.2895,-4.2559,-4.1877,-4.1845,-4.1528,-4.0902,-4.0834,-4.0792,-4.0806,-4.0752,-4.072,-4.0688,-4.0639,-4.0519,-4.0441,-4.0413,-4.0281,-4.0089,-3.9831,-3.9532,-3.9199,-3.9239,-3.9292,-3.9392,0.0,0.0,0.0,0.0,0.0,0.0,0.0,-1.6212,-1.7279,-1.831,-2.0728,-2.2401,-2.2511,-2.4759,-2.6602,-2.7445,-2.8256,-2.9044,-2.9809,-2.9859,-2.9834,-2.9808,-2.9771,-2.9763,-2.9763,-2.9737,-3.0114,-3.0922,-3.124,-3.2044,-3.3272,-3.3608,-3.399,-3.4386,-3.4386,-3.4427,-3.4386,-3.3234,-3.2489,-3.1865,-2.9719,-2.8643,-2.8175,-2.7214,-2.6419,-2.5726,-2.477,-2.4302,-2.4042,-2.3606,0.0,0.0,0.0,0.0,0.0,0.0,0.0,0.0,0.0,0.0,0.0,0.0,0.0,0.0,0.0,0.0,0.0,0.0,0.0,0.0,0.0,0.0,0.0,0.0,-3.401,-3.5369,-3.5733,-3.6222,-3.6985,-3.8199,-3.8782,-3.9249,-3.9619,-4.0063,-4.051,-4.0861,-4.1358,-4.2013,-4.2863,-4.2905,-4.3114,-4.358,-4.3611,-4.3314,-4.2752,-4.2354,-4.19,-4.1396,-4.0986,-4.079,-4.0758,-4.0713,-4.068,-4.0653,-4.0588,-4.05,-4.0411,-4.036,-4.0262,-4.0106,0.0,0.0,0.0,0.0,-3.9984,-4.0067,0.0,0.0,0.0,0.0,0.0,0.0,0.0,-1.606,-1.7105,-1.8124,-2.0445,-2.2103,-2.2369,-2.4565,-2.637,-2.7176,-2.8064,-2.8927,-2.9725,-2.9773,-2.9773,-2.9773,-2.9699,-2.9681,-2.9681,-2.9626,-2.9981,-3.0794,-3.1595,-3.2414,-3.3206,-3.402,-3.4374,-3.4393,-3.4393,-3.4374,-3.4292,-3.2769,-3.2078,-3.1864,-3.0277,-2.9185,-2.8503,-2.8362,-2.7409,-2.6136,-2.5966,-2.5477,-2.4933,-2.4905,0.0,0.0,0.0,0.0,0.0,0.0,0.0,0.0,0.0,0.0,0.0,0.0,0.0,0.0,0.0,0.0,0.0,0.0,0.0,0.0,0.0,0.0,0.0,0.0,-3.5578,-3.6464,-3.7456,-3.7575,-3.8121,-3.9623,-3.9887,-4.0253,-4.1014,-4.1198,-4.1564,-4.2344,-4.2487,-4.2889,-4.3704,0.0,0.0,0.0,0.0,-4.3815,-4.3646,-4.2818,-4.2286,-4.2092,-4.1305,-4.0849,-4.07,-4.0687,-4.0653,-4.0607,-4.0523,-4.0452,-4.0388,-4.0325,-4.0215,-4.0106,-4.0077,-4.0005,-3.99,-3.99,-3.9943,-4.0007,0.0,0.0,0.0,0.0,0.0,0.0,0.0,-1.5189,-1.6206,-1.7225,-1.902,-2.0744,-2.2159,-2.3957,-2.5397,-2.6211,-2.7654,-2.8844,-2.9589,-2.9598,-2.956,-2.956,-2.9551,-2.9541,-2.9541,-2.9522,-2.9913,-3.0716,-3.1584,-3.2384,-3.3142,-3.3943,-3.4293,-3.4245,-3.4245,-3.4269,-3.426,-3.3291,-3.253,-3.192,-3.0874,-2.9958,-2.9144,-2.8539,-2.8063,-2.7587,-2.6352,-2.5836,-2.5679,-2.5097,-2.4872,-2.4852,-2.4946,-2.4901,0.0,0.0,0.0,0.0,0.0,0.0,0.0,0.0,0.0,0.0,0.0,0.0,0.0,0.0,0.0,0.0,0.0,0.0,0.0,-3.5533,-3.6438,-3.7517,-3.9096,-3.9312,-3.9445,-3.9753,-4.0413,-4.0914,-4.1079,-4.1739,-4.2227,-4.2383,-4.2994,-4.3743,-4.4601,-4.4647,-4.4954,-4.5592,-4.5631,-4.5273,-4.4559,-4.4306,-4.3488,-4.2092,0.0,0.0,-4.0694,-4.0639,-4.0603,-4.06,-4.0531,-4.0466,-4.0388,-4.0325,-4.0215,-4.0096,-3.9984,-3.9922,-3.99,-3.99,-3.9943,-3.9996,0.0,0.0,0.0,0.0,0.0,0.0,0.0,-1.4984,-1.5955,-1.6978,-1.8589,-2.0152,-2.1463,-2.3097,-2.441,-2.5228,-2.7197,-2.8558,-2.8924,-2.9306,-2.9502,-2.9502,-2.9502,-2.9502,-2.9502,-2.9424,-2.9804,-3.0642,-3.1414,-3.2187,-3.2961,-3.3759,-3.4136,-3.4099,-3.4099,-3.3901,-3.3499,-3.2683,-3.192,-3.1176,-3.0299,-2.9702,-2.9322,-2.9014,-2.8371,-2.755,-2.6774,-2.601,-2.5302,-2.4959,-2.494,-2.5076,-2.5166,-2.522,-2.5182,0.0,0.0,0.0,0.0,0.0,0.0,0.0,0.0,0.0,0.0,0.0,0.0,0.0,0.0,-3.2135,0.0,0.0,-3.5551,-3.646,-3.7661,-3.8801,-3.9673,-4.0184,-4.0455,-4.0452,-4.0834,-4.1274,-4.171,-4.2111,-4.2713,-4.359,-4.4013,-4.4631,-4.5508,-4.5549,-4.5722,-4.6098,-4.6104,-4.5867,-4.5419,-4.4927,-4.4257,-4.3385,-4.2454,-4.1749,-4.1272,-4.081,-4.0585,-4.0546,-4.0474,-4.0415,-4.0353,-4.0234,-4.0128,-4.0046,-3.9933,-3.99,-3.99,-3.99,-3.9922,-3.9954,0.0,0.0,0.0,0.0,0.0,0.0,0.0,-1.4877,-1.5722,-1.6719,-1.8166,-1.9481,-2.0511,-2.1962,-2.3324,-2.4454,-2.6524,-2.7895,-2.8212,-2.8846,-2.9275,-2.9433,-2.9443,-2.9443,-2.9443,-2.9332,-2.9625,-3.033,-3.1027,-3.1782,-3.2576,-3.3389,-3.385,-3.3998,-3.3998,-3.3555,-3.2742,-3.1948,-3.1159,-3.042,-2.9544,-2.924,-2.9283,-2.9243,-2.8407,-2.727,-2.7112,-2.6138,-2.4898,-2.4806,-2.4877,-2.5018,-2.5119,-2.517,-2.5206,-2.5283,-2.5452,0.0,0.0,0.0,0.0,0.0,0.0,0.0,0.0,0.0,-3.1218,-3.1218,-3.2458,-3.3794,-3.4688,-3.5551,-3.6482,-3.7539,-3.8883,-3.9867,-4.0032,-4.066,-4.1109,-4.1107,-4.1098,-4.1437,-4.2301,-4.2481,-4.3215,-4.4777,-4.5069,-4.5459,-4.616,-4.6201,-4.6177,-4.6098,-4.6095,-4.6066,-4.5991,-4.5295,-4.4852,-4.4652,-4.3195,-4.2276,-4.1887,-4.1154,-4.0777,-4.0743,-4.0827,-4.0823,-4.074,-4.0471,-4.0314,-4.0233,-3.9968,-3.9878,-3.9878,-3.9878,-3.9889,-3.99,0.0,0.0,0.0,0.0,0.0,0.0,0.0,0.0,-1.4873,-1.5821,-1.6731,-1.789,-1.9472,-2.0448,-2.1925,-2.4215,-2.5273,-2.6447,-2.7937,-2.8122,-2.8492,-2.9195,-2.9232,-2.9232,-2.9232,-2.9222,-2.9266,-2.9359,-3.0142,-3.0944,-3.1763,-3.2558,-3.3315,-3.3998,-3.3998,-3.3555,-3.2742,-3.1948,-3.1147,-3.0327,-2.9533,-2.92,-2.9126,-2.8426,-2.8067,-2.7808,-2.7165,-2.6386,-2.5577,-2.4928,-2.4846,-2.5004,-2.5013,-2.5106,-2.5214,-2.5271,0.0,-2.6487,-2.6539,-2.726,-2.8155,-2.9043,-2.9841,-3.0613,0.0,0.0,-3.3002,-3.3002,-3.372,-3.4649,-3.5583,-3.6466,-3.7595,-3.9238,-3.9674,-4.007,-4.084,-4.1037,-4.1091,-4.1103,-4.1098,-4.1424,-4.2224,-4.2997,-4.3854,-4.4835,-4.5615,-4.6102,-4.6199,-4.6201,-4.6177,-4.6098,-4.6095,-4.6075,-4.6003,-4.5852,-4.5389,-4.4615,-4.4358,-4.3412,-4.188,-4.167,-4.1566,-4.1598,-4.2248,-4.2498,-4.238,-4.1575,-4.1218,-4.1068,-4.0162,-3.9815,-3.9815,-3.9815,-3.9837,-3.9889,0.0,0.0,0.0,0.0,0.0,0.0,0.0,0.0,0.0,-1.5686,-1.6097,-1.6922,-1.855,-1.9908,-2.1499,-2.346,-2.4348,-2.5309,-2.6463,-2.7452,-2.8154,-2.8487,-2.8949,-2.92,-2.92,-2.9156,-2.9134,-2.9134,-2.9911,-3.0458,-3.0808,-3.1618,-3.2139,-3.2432,-3.2432,-3.1991,-3.1201,-3.087,-3.0299,-2.9613,-2.9237,-2.8802,-2.8353,-2.797,-2.721,-2.6355,-2.6149,-2.5644,0.0,-2.4735,-2.4746,-2.491,-2.4986,-2.5399,-2.591,-2.5979,-2.6622,0.0,-2.7996,-2.8831,-2.9765,0.0,-3.1542,-3.2299,-3.2613,-3.3371,-3.3996,-3.3996,-3.4671,-3.5523,-3.6437,-3.7315,-3.8309,0.0,-4.0209,-4.0688,-4.1044,-4.1103,-4.11,-4.1098,-4.1106,-4.162,-4.2925,-4.3389,-4.4164,-4.55,-4.5948,-4.6142,-4.6142,-4.6141,-4.6123,-4.6095,-4.6052,-4.6035,-4.5997,-4.5923,-4.5706,-4.5279,-4.4769,-4.4091,-4.3327,-4.2722,-4.2406,-4.2363,-4.2613,-4.2695,-4.2603,-4.2208,-4.1695,-4.115,-4.0715,-4.0216,-3.9747,-3.9747,-3.9758,-3.977,0.0,0.0,0.0,0.0,0.0,0.0,0.0,0.0,0.0,0.0,-1.5649,-1.6405,-1.8006,-1.9457,-2.0857,-2.2239,-2.3289,-2.4247,-2.5049,-2.6469,-2.7364,-2.7603,-2.8367,-2.878,-2.878,-2.8934,-2.901,-2.901,-2.955,-2.9929,-3.0161,-3.0748,-3.1107,-3.1276,-3.1276,-3.0832,-3.0064,-3.0064,-2.9655,-2.8991,-2.8714,-2.8263,-2.7688,-2.7204,-2.6264,-2.522,-2.5414,-2.5033,-2.4465,-2.4541,-2.466,-2.4824,-2.5196,-2.5805,-2.6435,-2.673,-2.7462,-2.8436,-2.9602,0.0,0.0,-3.2044,-3.2947,-3.3612,-3.3576,-3.4227,-3.4824,-3.4824,-3.5353,-3.6142,-3.7253,-3.7981,-3.8762,-3.9877,-4.062,-4.1084,-4.1109,-4.1109,-4.1109,-4.1109,-4.1308,-4.201,-4.3467,-4.3607,-4.4304,-4.5962,-4.6098,-4.6098,-4.6098,-4.6095,-4.61,-4.61,-4.6037,-4.598,-4.5966,-4.5923,-4.5874,-4.5786,-4.514,-4.4681,-4.4383,-4.3658,-4.3272,-4.3149,-4.3307,-4.3349,-4.3276,-4.2981,-4.2284,-4.1423,-4.1172,-4.0509,-3.9696,-3.9672,-3.9684,-3.9689,0.0,0.0,0.0,0.0,0.0,0.0,0.0,0.0,0.0,0.0,0.0,0.0,0.0,-1.8851,-1.964,-2.0429,-2.1926,-2.3205,-2.4085,-2.4919,-2.5764,-2.6612,-2.7347,-2.7753,-2.7753,-2.8432,-2.8798,-2.8798,-2.8834,-2.9247,-3.0007,-3.0026,-3.0463,-3.1206,-3.1206,-3.0768,-3.0007,-3.0007,-2.9539,-2.8755,-2.7953,-2.7624,-2.7442,-2.5874,-2.5243,-2.5228,-2.5352,-2.4928,-2.433,-2.4465,-2.4599,-2.4854,-2.5786,-2.6181,0.0,-2.7402,-2.8382,-2.9534,-3.1256,0.0,-3.2064,-3.2936,-3.3826,-3.4469,-3.4469,-3.5087,-3.567,-3.567,-3.5747,-3.6317,-3.8033,-3.8384,-3.8957,-4.0671,-4.099,-4.1036,-4.1088,-4.111,-4.111,-4.111,-4.1792,-4.263,0.0,-4.3596,-4.4304,-4.5962,-4.6098,-4.6098,-4.6098,-4.6095,-4.61,-4.61,-4.6037,-4.5975,-4.5892,-4.5892,-4.588,-4.5807,-4.5704,-4.5221,-4.4383,-4.4246,-4.4097,-4.4006,-4.4794,-4.5082,-4.4969,-4.4114,-4.3175,-4.2186,-4.1321,-4.0469,-3.9693,-3.9633,-3.9644,-3.9708,0.0,0.0,0.0,0.0,0.0,0.0,0.0,0.0,0.0,0.0,0.0,0.0,0.0,0.0,0.0,0.0,-2.0905,-2.179,-2.3141,-2.3999,-2.4803,-2.5635,-2.6428,-2.6837,-2.6837,-2.707,-2.7205,-2.7205,-2.7205,-2.7362,-2.7618,-2.8153,-2.8542,-2.8743,-2.8743,-2.8597,-2.8306,-2.7778,-2.7419,-2.7187,-2.6906,-2.6453,-2.5892,-2.5336,-2.4769,-2.4286,0.0,-2.4333,-2.4238,-2.4394,-2.4869,-2.5506,-2.5951,-2.6957,-2.8144,-2.9136,-3.0111,-3.0998,-3.1637,0.0,-3.363,-3.3921,-3.4657,-3.5311,-3.5292,-3.5514,-3.5703,-3.5703,-3.5728,-3.6096,-3.7307,-3.8013,-3.8781,-3.9949,-4.0629,-4.1013,-4.1088,-4.1107,-4.1085,-4.1036,-4.1785,0.0,0.0,0.0,0.0,-4.5949,-4.6027,-4.6027,-4.6027,-4.6037,-4.6032,-4.6032,-4.6005,-4.5972,-4.5892,-4.5906,-4.584,-4.5723,-4.5627,-4.5395,-4.5053,-4.5026,-4.4928,-4.4813,-4.5044,-4.5103,-4.4957,-4.4047,-4.3099,-4.2164,-4.1261,-4.039,-3.9633,-3.962,-3.9577,-3.9577,0.0,0.0,0.0,0.0,0.0,0.0,0.0,0.0,0.0,0.0,0.0,0.0,0.0,0.0,0.0,0.0,0.0,-2.0806,-2.1872,-2.2937,-2.3785,-2.4324,-2.5371,-2.5914,-2.5892,-2.6161,-2.6295,-2.6291,-2.6291,-2.6291,-2.6309,-2.6817,-2.7048,-2.6994,-2.6994,-2.6994,-2.6976,-2.6451,-2.6256,-2.6272,-2.6004,-2.5564,-2.5023,-2.4744,-2.428,0.0,-2.3886,-2.3996,-2.4142,-2.4284,-2.4985,-2.5877,-2.6344,-2.7771,-2.9455,-3.0444,-3.1181,-3.1848,-3.2499,-3.3522,-3.4473,-3.4783,-3.5296,-3.5689,-3.5678,-3.5667,-3.5657,-3.5665,-3.5662,-3.594,-3.6866,-3.7531,-3.8309,-3.947,-4.0143,-4.0652,-4.1,-4.1062,-4.1156,-4.1434,-4.2218,-4.3054,0.0,0.0,0.0,-4.5963,-4.6002,-4.6002,-4.6002,-4.6002,-4.6002,-4.6002,-4.5994,-4.596,-4.5892,-4.5887,-4.5805,-4.5703,-4.5558,-4.5457,-4.54,-4.539,-4.5328,-4.5192,-4.5136,-4.5049,-4.4922,-4.3999,-4.305,-4.2108,-4.1236,-4.0365,-3.9608,-3.9583,-3.9533,-3.9495,0.0,0.0,0.0,0.0,0.0,0.0,0.0,0.0,0.0,0.0,0.0,0.0,0.0,0.0,0.0,0.0,0.0,0.0,-2.0398,-2.1761,-2.2617,-2.2729,-2.4135,-2.4882,-2.4827,-2.5513,-2.587,-2.5913,-2.5913,-2.5931,-2.5967,-2.6021,-2.6039,-2.6039,-2.6039,-2.6039,-2.6039,-2.5985,-2.5967,-2.5925,-2.5226,-2.4931,-2.4852,-2.4082,-2.3795,-2.3806,-2.3876,-2.3927,-2.4026,-2.4209,-2.5014,0.0,-2.7046,-2.8623,-3.0345,-3.1233,-3.1642,-3.2195,-3.3849,-3.4386,-3.4662,-3.5494,-3.5669,-3.562,-3.5554,-3.5508,-3.5479,-3.5469,-3.5471,-3.5723,-3.6605,0.0,-3.7579,-3.9276,-3.9625,-4.0007,-4.0886,-4.1006,-4.1317,0.0,0.0,0.0,0.0,0.0,0.0,-4.6002,0.0,-4.6002,-4.6002,-4.6002,-4.6002,-4.5997,-4.6008,-4.596,-4.5905,-4.5834,-4.5761,-4.5693,-4.5559,-4.5448,-4.54,-4.5409,-4.5317,-4.5192,-4.5125,-4.5068,-4.4922,-4.393,-4.3013,-4.2108,-4.1198,-4.0327,-3.9577,-3.952,-3.9495,-3.9495,0.0,0.0,0.0,0.0,0.0,0.0,0.0,0.0,0.0,0.0,0.0,0.0,0.0,0.0,0.0,0.0,0.0,0.0,-2.0282,-2.069,-2.1179,-2.1805,-2.2165,-2.2345,-2.2325,-2.2445,-2.2828,-2.3412,-2.3412,-2.3718,-2.4329,-2.4923,-2.5211,-2.5211,-2.5211,-2.5211,-2.5175,-2.4563,-2.4311,-2.4293,-2.4118,-2.4028,-2.401,-2.3804,-2.3765,-2.3807,-2.3818,-2.3894,-2.4117,0.0,0.0,0.0,0.0,-2.9977,-3.1058,-3.141,-3.2434,-3.3615,-3.4146,-3.4784,-3.5358,-3.5632,-3.5217,-3.4703,-3.4657,-3.4163,-3.3721,-3.3674,-3.366,-3.3934,-3.4872,0.0,0.0,-3.8417,-3.9263,0.0,-4.0883,-4.1003,0.0,-4.2127,0.0,-4.3831,-4.473,-4.5536,0.0,0.0,-4.6002,-4.6002,-4.6002,-4.6002,-4.5991,-4.6008,-4.596,-4.5925,-4.5893,-4.5771,-4.5692,-4.5631,-4.5495,-4.5419,-4.5409,-4.5348,-4.5246,-4.5125,-4.5114,-4.5026,-4.4793,-4.3214,-4.2416,-4.2039,-4.0528,-3.9789,-3.9577,-3.952,-3.9469,-3.9418,0.0,0.0,0.0,0.0,0.0,0.0,0.0,0.0,0.0,0.0,0.0,0.0,0.0,0.0,0.0,0.0,0.0,0.0,0.0,-2.01,-2.049,-2.0915,-2.1231,-2.1365,-2.1316,-2.1275,-2.145,-2.1895,-2.1867,-2.2071,-2.2518,-2.2976,-2.3191,-2.3191,-2.3191,-2.3191,-2.3155,-2.2708,-2.2529,0.0,0.0,-2.2593,-2.2614,-2.2645,-2.2903,-2.3262,-2.3262,-2.384,0.0,0.0,0.0,-2.8062,-2.9342,-3.0444,-3.1355,-3.1836,0.0,-3.4203,-3.4693,-3.5212,-3.5606,-3.5643,-3.4991,-3.4348,-3.4314,-3.3647,-3.3045,-3.2977,-3.2977,0.0,-3.3688,-3.452,0.0,0.0,0.0,0.0,-4.0318,-4.077,-4.1442,0.0,-4.3175,0.0,-4.5204,-4.5717,-4.5964,0.0,-4.5986,-4.6002,-4.6002,-4.6002,-4.6005,-4.5997,-4.5929,-4.5874,-4.5805,-4.5743,-4.5654,-4.554,-4.5448,-4.54,-4.5408,-4.5328,-4.5243,-4.5103,-4.5103,-4.5014,-4.4788,-4.3359,-4.2542,-4.2058,-4.0672,-3.9908,-3.9596,-3.9495,-3.9431,-3.9391,0.0,0.0,0.0,0.0,0.0,0.0,0.0,0.0,0.0,0.0,0.0,0.0,0.0,0.0,0.0,0.0,0.0,0.0,0.0,0.0,-2.0109,-2.0065,-2.0706,-2.1002,-2.0904,-2.088,-2.0891,-2.0936,-2.0869,-2.0902,-2.099,-2.099,-2.099,-2.099,-2.099,-2.099,-2.099,-2.099,-2.1029,-2.1078,-2.1159,-2.1192,-2.1197,0.0,-2.1748,-2.2429,-2.2558,0.0,0.0,0.0,-2.6839,-2.7521,-2.9175,-3.0439,-3.1505,-3.2357,-3.3379,-3.4448,-3.5268,-3.5534,-3.5556,-3.544,-3.477,-3.4102,-3.3977,-3.3195,-3.2466,-3.241,0.0,-3.2522,-3.2634,-3.3522,-3.4551,-3.5539,0.0,-3.868,-3.9578,-4.0438,-4.16,-4.3287,-4.3437,-4.4084,-4.5817,-4.5923,-4.5911,-4.5911,-4.5939,-4.5991,-4.5991,-4.5991,-4.5994,-4.5986,-4.5931,-4.5827,-4.5708,-4.5698,-4.5622,-4.5495,-4.5438,-4.5409,-4.5369,-4.5328,-4.5243,-4.5103,-4.5103,-4.5014,-4.4826,-4.3888,-4.3045,-4.2285,-4.1318,-4.0534,-3.9896,-3.9644,-3.9554,-3.9509,0.0,0.0,0.0,0.0,0.0,0.0,0.0,0.0,0.0,0.0,-1.4581,-1.4561,0.0,0.0,0.0,0.0,0.0,0.0,0.0,0.0,0.0,-1.93,-1.9316,-1.9327,-1.93,-1.9199,-1.9453,-2.0109,-2.0033,-2.0342,-2.099,-2.099,-2.099,-2.099,-2.099,-2.099,-2.099,-2.099,-2.1018,-2.1029,-2.1089,-2.1127,-2.112,-2.1136,0.0,0.0,0.0,0.0,0.0,0.0,-2.665,-2.8117,-2.927,-3.0753,-3.2164,-3.2507,-3.3788,-3.5151,-3.5434,-3.5502,-3.5361,-3.4691,-3.3867,-3.3051,-3.2322,-3.0926,0.0,0.0,-2.9759,-3.0,-3.0717,-3.2204,0.0,-3.5437,0.0,0.0,0.0,0.0,-4.1548,0.0,0.0,0.0,0.0,0.0,0.0,0.0,-4.5898,-4.5923,-4.5923,-4.5923,-4.5911,-4.5919,-4.5852,-4.5788,-4.5708,-4.5646,-4.5559,-4.5419,-4.5409,-4.5369,-4.5317,-4.5307,-4.5243,-4.5103,-4.5103,0.0,-4.4826,-4.3888,-4.3404,-4.3184,-4.2183,-4.1704,-4.1485,-4.0697,-4.0381,-4.0275,0.0,0.0,0.0,0.0,0.0,0.0,0.0,0.0,-1.5314,-1.5279,-1.5632,-1.5537,-1.459,-1.5178,0.0,0.0,0.0,0.0,0.0,0.0,0.0,0.0,0.0,0.0,-1.8905,-1.877,-1.8865,-1.9217,0.0,-1.9351,-1.9694,-1.9694,-1.9694,-1.9694,-1.9694,-1.9694,-1.9694,-1.9694,-1.9722,-1.9752,-1.9792,-1.9814,-1.9844,0.0,0.0,0.0,0.0,0.0,0.0,0.0,-2.5949,-2.6967,-2.8455,-3.0171,-3.1666,-3.1824,-3.3154,-3.4584,-3.4683,-3.4768,-3.4738,-3.4346,-3.3272,-3.2091,-3.1214,0.0,0.0,0.0,-2.8411,-2.87,-2.9608,0.0,0.0,0.0,0.0,0.0,0.0,0.0,0.0,0.0,0.0,0.0,0.0,0.0,0.0,0.0,-4.5854,-4.5854,-4.5905,-4.5893,-4.5887,-4.5854,-4.5776,-4.5735,-4.5695,-4.5603,-4.5504,-4.54,-4.539,-4.5359,-4.5307,-4.5307,-4.5243,-4.5103,-4.5103,-4.5014,-4.4864,-4.4342,-4.3894,-4.3448,-4.2878,-4.2385,-4.1895,-4.1394,-4.1194,-4.1045,0.0,0.0,0.0,0.0,0.0,0.0,0.0,-1.5347,-1.5902,-1.5902,-1.6583,-1.6491,-1.4955,-1.5337,-1.5729,0.0,0.0,0.0,0.0,0.0,0.0,0.0,0.0,0.0,0.0,0.0,0.0,0.0,-1.8521,0.0,0.0,0.0,0.0,0.0,-1.8495,-1.8495,-1.8495,-1.8495,-1.8532,0.0,0.0,-1.8631,0.0,0.0,0.0,0.0,0.0,0.0,0.0,0.0,-2.4921,-2.5434,-2.7167,-2.9073,-3.0744,-3.1076,-3.234,-3.3644,-3.3693,-3.3822,-3.3872,-3.3686,-3.2659,-3.142,-3.0358,-2.9458,0.0,0.0,-2.7516,-2.7805,-2.8725,0.0,0.0,0.0,0.0,0.0,0.0,0.0,0.0,0.0,0.0,0.0,0.0,0.0,0.0,0.0,-4.5807,-4.5808,-4.5886,-4.588,-4.5854,-4.5793,-4.5727,-4.5703,-4.5701,-4.5559,-4.5448,-4.54,-4.5399,-4.5348,-4.5307,-4.5307,-4.5243,-4.5103,-4.5103,-4.5014,-4.4883,-4.4764,-4.4334,-4.375,-4.3611,-4.3103,-4.2398,-4.2146,-4.2006,-4.1841,0.0,0.0,0.0,0.0,0.0,0.0,0.0,-1.5343,-1.5903,-1.5903,-1.6547,-1.667,-1.5777,-1.5759,-1.5766,0.0,0.0,0.0,0.0,0.0,0.0,0.0,0.0,0.0,0.0,0.0,0.0,0.0,0.0,0.0,0.0,0.0,0.0,0.0,0.0,0.0,-1.8495,-1.8495,0.0,0.0,0.0,0.0,0.0,0.0,0.0,0.0,0.0,0.0,0.0,0.0,0.0,-2.4486,-2.5448,-2.754,-2.9823,-3.0818,0.0,0.0,-3.2795,-3.2917,-3.2827,-3.2033,-3.1763,-3.125,-2.9605,0.0,0.0,-2.6807,-2.6619,-2.6883,-2.7761,-2.9338,-3.107,0.0,0.0,-3.6416,0.0,0.0,0.0,0.0,0.0,0.0,0.0,0.0,0.0,-4.5807,-4.5807,-4.5807,-4.5814,-4.5814,-4.5812,-4.5795,-4.5731,-4.5703,-4.5701,-4.5504,-4.541,-4.54,-4.5339,-4.5307,-4.5307,-4.5307,-4.5243,-4.5103,-4.5103,-4.5014,0.0,-4.4764,-4.4674,-4.4585,-4.4438,-4.4304,-4.4064,-4.3207,-4.2841,-4.2675,0.0,0.0,0.0,0.0,0.0,0.0,0.0,-1.5679,-1.6559,-1.6559,-1.7698,-1.7999,-1.6675,-1.6515,-1.611,0.0,0.0,0.0,0.0,0.0,0.0,0.0,0.0,0.0,0.0,0.0,0.0,-1.7568,0.0,0.0,0.0,0.0,0.0,0.0,0.0,0.0,0.0,0.0,0.0,0.0,0.0,0.0,0.0,0.0,0.0,0.0,0.0,0.0,0.0,0.0,0.0,0.0,-2.4421,-2.581,0.0,0.0,-3.02,-3.11,-3.1699,-3.1923,-3.1926,-3.1674,-3.0829,-2.9754,-2.8528,0.0,-2.6768,-2.5897,-2.5721,-2.5995,-2.6905,-2.81,-2.9675,-3.1952,-3.3771,0.0,0.0,0.0,0.0,0.0,0.0,0.0,0.0,0.0,0.0,-4.5807,-4.5807,-4.5807,-4.5807,-4.5805,-4.5776,-4.5731,-4.5711,-4.5654,-4.5577,-4.5448,-4.541,-4.54,-4.5319,-4.5307,-4.5297,-4.5265,-4.5181,-4.5103,-4.5068,-4.4998,0.0,-4.4764,-4.4712,-4.4699,-4.4551,-4.4426,-4.4288,-4.3922,-4.3688,-4.3438,0.0,0.0,0.0,0.0,0.0,-1.438,-1.4464,-1.5882,-1.697,-1.697,-1.8225,-1.8575,-1.7147,-1.6772,-1.6036,-1.4622,0.0,0.0,0.0,0.0,0.0,0.0,0.0,0.0,0.0,0.0,-1.6848,-1.7305,-1.777,-1.8217,0.0,0.0,0.0,0.0,0.0,0.0,0.0,0.0,0.0,0.0,0.0,0.0,0.0,0.0,0.0,0.0,0.0,0.0,0.0,0.0,0.0,0.0,0.0,0.0,0.0,0.0,-2.855,-2.9285,-2.9996,-3.0247,-3.0333,-3.0413,-2.9538,-2.8427,0.0,0.0,-2.6253,-2.5388,-2.5206,-2.548,-2.6395,-2.7309,-2.8762,-3.1366,-3.305,-3.501,0.0,0.0,0.0,0.0,0.0,0.0,0.0,0.0,0.0,-4.5807,-4.5807,-4.58,-4.5805,-4.6039,-4.602,-4.5708,-4.5706,-4.564,-4.5504,-4.5429,-4.54,-4.5408,-4.5328,-4.5307,-4.5297,-4.5224,-4.5159,-4.5103,-4.5026,-4.4943,0.0,-4.4751,-4.4699,-4.4659,-4.4537,-4.4416,-4.43,-4.43,-4.4177,-4.3912,0.0,0.0,0.0,0.0,0.0,0.0,0.0,-1.5814,-1.6905,-1.6905,-1.7668,-1.7909,-1.7092,-1.6232,-1.538,-1.4567,0.0,0.0,0.0,0.0,0.0,0.0,0.0,0.0,0.0,0.0,-1.6678,-1.6611,-1.8147,-1.8869,-1.8797,-1.8742,-1.8658,0.0,0.0,0.0,0.0,0.0,0.0,0.0,0.0,0.0,0.0,0.0,0.0,0.0,0.0,0.0,0.0,0.0,0.0,0.0,0.0,0.0,0.0,0.0,-2.7213,-2.736,-2.7509,-2.7646,-2.774,-2.774,-2.7783,-2.7583,0.0,0.0,-2.6253,-2.5388,-2.5195,-2.5472,-2.6348,-2.7262,-2.8764,-3.1367,-3.2545,0.0,0.0,0.0,0.0,0.0,0.0,0.0,0.0,0.0,-4.5807,-4.5807,-4.5807,0.0,-4.5807,-4.6553,-4.6587,-4.5727,-4.5706,-4.564,-4.5504,-4.5429,-4.54,-4.5408,-4.5328,-4.5307,-4.5297,-4.5224,-4.5159,-4.5103,-4.5026,-4.4919,0.0,-4.4738,-4.4659,-4.4592,-4.4528,-4.4416,-4.43,-4.43,-4.4177,-4.4005,0.0,0.0,0.0,0.0,0.0,0.0,0.0,-1.5292,-1.6026,-1.6077,-1.6798,-1.7014,-1.6207,-1.587,-1.538,-1.4567,0.0,0.0,0.0,0.0,0.0,0.0,0.0,0.0,0.0,0.0,-1.6184,-1.6675,-1.7713,-1.8451,-1.8923,-1.8816,-1.8724,-1.8668,-1.859,0.0,0.0,0.0,0.0,0.0,0.0,0.0,0.0,0.0,0.0,0.0,0.0,0.0,0.0,0.0,0.0,0.0,0.0,0.0,0.0,-2.384,-2.5239,0.0,-2.7175,-2.7468,-2.7568,-2.7617,-2.723,-2.6771,-2.6491,0.0,-2.5522,-2.5268,-2.5195,-2.5275,-2.5557,-2.6877,-2.8541,-3.051,-3.2072,0.0,0.0,0.0,0.0,0.0,0.0,0.0,0.0,0.0,-4.5727,-4.5727,-4.5727,-4.599,-4.6584,-4.6833,-4.6808,-4.6538,-4.7054,-4.7001,-4.633,-4.6311,-4.5974,-4.5328,-4.5307,-4.5286,-4.5224,-4.5159,-4.5103,-4.5033,-4.4955,-4.487,-4.4783,-4.4738,-4.4659,-4.4592,-4.4487,-4.4387,-4.4285,-4.4259,-4.4116,-4.4005,0.0,0.0,0.0,0.0,0.0,0.0,0.0,-1.5027,-1.5589,-1.5653,-1.6117,-1.6265,-1.5753,-1.5435,-1.505,-1.4548,0.0,0.0,0.0,0.0,0.0,0.0,0.0,0.0,-1.4916,-1.569,-1.6481,-1.7267,-1.8055,-1.8647,-1.9025,-1.8905,-1.8797,-1.8697,-1.8619,-1.8502,0.0,0.0,0.0,0.0,0.0,0.0,-1.8606,0.0,0.0,0.0,0.0,0.0,0.0,0.0,0.0,0.0,0.0,0.0,0.0,0.0,-2.3322,-2.4995,0.0,-2.6397,-2.6546,-2.6604,-2.6263,0.0,0.0,0.0,-2.5156,-2.5162,-2.516,-2.526,-2.5625,-2.6883,-2.8527,-3.056,-3.2072,0.0,0.0,0.0,0.0,0.0,0.0,0.0,0.0,-4.5708,-4.5708,-4.5708,-4.5708,-4.6058,-4.6921,-4.7223,-4.7524,-4.7834,-4.7981,-4.779,-4.7202,-4.6837,-4.6355,-4.5755,-4.5449,-4.5256,-4.5192,-4.5136,-4.5049,-4.4991,-4.4895,-4.4821,0.0,-4.4699,-4.4619,-4.4551,-4.444,-4.4373,-4.4285,-4.4229,-4.4119,-4.4005,0.0,0.0,0.0,0.0,0.0,0.0,0.0,0.0,0.0,-1.5508,-1.5573,-1.5606,-1.5606,-1.494,-1.4506,-1.4493,0.0,0.0,0.0,0.0,0.0,0.0,0.0,0.0,-1.579,-1.6574,-1.7383,-1.8204,-1.8933,-1.924,-1.9115,-1.8982,-1.8843,-1.8715,-1.8638,-1.8493,-1.83,-1.8291,-1.8301,-1.83,-1.8375,-1.8473,0.0,0.0,0.0,0.0,0.0,0.0,0.0,0.0,0.0,0.0,0.0,0.0,0.0,0.0,0.0,0.0,0.0,-2.4697,0.0,0.0,0.0,0.0,0.0,0.0,0.0,-2.5095,-2.5145,-2.5449,-2.6337,-2.7259,-2.8725,-3.1275,0.0,0.0,0.0,0.0,0.0,0.0,0.0,0.0,0.0,-4.57,-4.57,-4.57,-4.57,-4.6061,-4.6936,-4.7756,-4.8585,-4.9471,-4.8625,-4.8135,-4.8094,-4.7171,-4.663,-4.65,-4.5679,-4.5265,-4.5192,-4.5125,-4.5068,0.0,-4.4865,-4.4757,-4.468,-4.4632,-4.457,-4.4487,-4.4411,-4.434,-4.4285,-4.4214,-4.4119,-4.4005,0.0,0.0,0.0,0.0,0.0,0.0,0.0,0.0,0.0,0.0,-1.4659,-1.4727,-1.4788,-1.4611,-1.4494,0.0,0.0,0.0,0.0,0.0,0.0,0.0,0.0,0.0,-1.5808,-1.7185,-1.7997,-1.8188,-1.8993,-1.9334,-1.9251,-1.9123,-1.899,-1.8851,-1.8725,-1.8536,-1.83,-1.8291,-1.8301,-1.83,-1.8328,-1.8398,0.0,0.0,0.0,0.0,-1.8524,-1.8561,0.0,0.0,0.0,0.0,0.0,0.0,0.0,0.0,-2.1168,-2.2304,-2.3199,0.0,-2.4768,-2.4827,-2.495,-2.5011,0.0,0.0,0.0,0.0,0.0,0.0,0.0,0.0,0.0,0.0,0.0,0.0,0.0,0.0,0.0,0.0,0.0,0.0,0.0,-4.5629,-4.5629,-4.5629,-4.5629,-4.6275,-4.773,-4.7971,-4.875,-5.0277,-5.0002,-4.9548,-4.8919,-4.8033,-4.7233,-4.65,-4.5636,-4.5181,-4.5125,-4.5049,-4.4998,-4.4919,-4.4852,-4.4757,-4.468,-4.4632,-4.4524,-4.4411,-4.4358,-4.427,-4.4214,-4.4085,-4.402,-4.4005,0.0,0.0,0.0,0.0,0.0,0.0,0.0,0.0,0.0,0.0,0.0,0.0,0.0,0.0,0.0,0.0,0.0,0.0,0.0,0.0,0.0,0.0,0.0,-1.5993,-1.6386,-1.7633,-1.848,-1.8884,-1.9288,-1.946,-1.9398,-1.9251,-1.9115,-1.8974,-1.8761,-1.8563,-1.8388,-1.8325,-1.8315,-1.8348,-1.8348,0.0,0.0,0.0,0.0,0.0,-1.8445,-1.8483,0.0,-1.852,-1.8551,-1.8611,0.0,0.0,0.0,0.0,-2.0661,-2.1814,-2.2369,-2.3535,-2.4626,-2.4719,-2.4832,-2.4915,-2.4959,0.0,0.0,0.0,0.0,0.0,0.0,0.0,0.0,0.0,0.0,0.0,0.0,0.0,0.0,0.0,0.0,0.0,0.0,-4.5594,-4.5586,-4.5559,-4.5559,-4.63,-4.7962,-4.801,-4.8777,-5.0504,-5.0457,-5.0194,-4.9748,-4.8488,-4.7592,-4.7048,-4.5786,-4.5148,-4.5038,-4.5033,-4.4943,-4.4846,-4.477,-4.4725,-4.4646,-4.4578,-4.4482,-4.4383,-4.4329,-4.4274,-4.4184,-4.4055,-4.4005,-4.4005,0.0,0.0,0.0,0.0,0.0,0.0,0.0,0.0,0.0,0.0,0.0,0.0,0.0,0.0,0.0,0.0,0.0,0.0,0.0,0.0,0.0,0.0,-1.5532,-1.6404,-1.7275,-1.8149,-1.9038,-1.9905,-1.9835,-1.978,-1.9717,-1.9582,-1.9348,-1.9062,-1.8769,-1.8588,-1.8485,-1.8378,-1.8358,-1.8396,-1.8396,0.0,0.0,0.0,0.0,0.0,0.0,0.0,0.0,-1.8396,-1.8473,-1.8579,-1.8593,0.0,0.0,0.0,0.0,0.0,-2.1888,-2.3175,-2.4495,-2.4626,-2.4734,-2.4832,-2.5033,0.0,0.0,0.0,0.0,0.0,0.0,0.0,0.0,0.0,0.0,0.0,0.0,0.0,0.0,0.0,0.0,0.0,-4.5594,-4.5586,-4.5568,-4.5504,-4.5495,-4.6215,-4.7903,-4.7988,-4.8745,-5.0432,-5.0424,-5.0371,-5.0371,-4.8651,-4.7754,-4.7678,-4.597,-4.5114,-4.4991,-4.4967,-4.4907,-4.4802,-4.4725,0.0,-4.4592,-4.4528,-4.4458,-4.4368,-4.4314,-4.4244,-4.4169,-4.4036,-4.4005,-4.4005,0.0,0.0,0.0,0.0,0.0,0.0,0.0,0.0,0.0,0.0,0.0,0.0,0.0,0.0,0.0,0.0,0.0,0.0,0.0,0.0,0.0,-1.5568,-1.6441,-1.7318,-1.8186,-1.9051,-1.9938,-2.0806,-2.0799,-2.0746,-2.0683,-2.0548,-1.9918,-1.894,-1.8824,-1.8667,-1.8495,-1.8475,-1.8445,-1.8396,-1.8396,0.0,0.0,0.0,0.0,0.0,0.0,0.0,0.0,-1.8385,-1.8406,-1.8445,-1.8565,0.0,0.0,0.0,0.0,0.0,-2.2511,-2.3474,-2.4293,-2.4486,-2.4618,-2.4926,-2.5725,0.0,0.0,0.0,0.0,0.0,0.0,0.0,0.0,0.0,0.0,0.0,0.0,0.0,0.0,0.0,0.0,-4.5594,-4.5594,-4.5559,-4.5513,-4.5504,-4.5438,-4.6158,-4.7922,-4.7937,-4.8671,-5.0366,-5.0348,-5.0314,-5.0314,-4.8594,-4.7709,-4.7678,-4.589,-4.5014,-4.501,-4.487,-4.4808,-4.4783,0.0,-4.4605,-4.4592,-4.4468,-4.4387,-4.43,-4.4244,-4.4135,-4.402,-4.4005,-4.4005,-4.4005,0.0,0.0,0.0,0.0,0.0,0.0,0.0,0.0,0.0,0.0,0.0,0.0,0.0,0.0,0.0,0.0,0.0,0.0,0.0,0.0,-1.5113,-1.6393,-1.6903,-1.7558,-1.8441,-1.9726,-2.0621,-2.1048,-2.1525,-2.1724,-2.163,-2.0997,-2.0102,-1.9051,-1.8913,-1.8788,-1.8667,-1.8581,-1.854,-1.8493,0.0,0.0,0.0,0.0,0.0,0.0,0.0,0.0,0.0,0.0,-1.8373,-1.8416,-1.8524,0.0,0.0,0.0,0.0,0.0,-2.2507,-2.3783,-2.4892,-2.5014,-2.5174,-2.5541,-2.6476,0.0,0.0,0.0,0.0,0.0,0.0,0.0,0.0,0.0,0.0,0.0,0.0,0.0,0.0,0.0,0.0,-4.5586,-4.5559,-4.5513,-4.5476,-4.5438,-4.5812,-4.6586,-4.7818,-4.8313,-4.9105,-5.0298,-5.0314,-5.029,-5.0255,-4.8517,-4.7643,-4.7624,-4.5855,-4.4955,-4.4883,-4.4821,-4.4745,-4.4699,0.0,-4.4578,-4.4537,-4.444,-4.4373,-4.4285,-4.4229,-4.4089,-4.3945,-4.3945,-4.3945,-4.3961,0.0,0.0,0.0,0.0,0.0,0.0,0.0,0.0,0.0,0.0,0.0,0.0,0.0,0.0,0.0,0.0,0.0,0.0,0.0,-1.4556,-1.5321,-1.6935,-1.7131,-1.7704,-1.8764,-2.0252,-2.1149,-2.1393,-2.2275,-2.255,-2.2222,-2.1187,-2.0168,-1.9219,-1.9042,-1.8905,-1.8824,-1.8703,-1.8637,-1.8627,0.0,0.0,0.0,0.0,0.0,0.0,0.0,0.0,0.0,0.0,0.0,0.0,0.0,0.0,0.0,-2.0008,-2.0914,-2.1834,-2.266,-2.4085,-2.5419,-2.5713,-2.5931,0.0,0.0,0.0,0.0,0.0,0.0,0.0,0.0,0.0,0.0,0.0,0.0,0.0,0.0,0.0,-4.4334,-4.4536,-4.5148,-4.5522,-4.5485,-4.5476,-4.5458,-4.5389,-4.6134,-4.6925,-4.775,-4.8621,-4.9461,-5.0264,-5.0302,-5.0267,-5.02,-4.8672,-4.7798,-4.7565,-4.5998,-4.5198,-4.5098,-4.506,-4.4982,-4.4855,-4.4672,-4.4537,-4.4473,-4.4397,-4.4344,-4.4274,-4.4169,-4.4045,-4.3883,-4.3883,-4.3899,-4.3897,0.0,0.0,0.0,0.0,0.0,0.0,0.0,0.0,0.0,0.0,0.0,0.0,0.0,0.0,0.0,0.0,0.0,0.0,0.0,-1.4556,-1.5321,-1.6935,-1.7131,-1.796,-1.9582,-2.0596,-2.1488,-2.2306,-2.3183,-2.3083,-2.2099,-2.1146,-2.0206,-1.9301,-1.915,-1.8998,-1.8887,-1.8824,-1.8742,-1.8688,-1.8627,0.0,0.0,0.0,0.0,0.0,0.0,0.0,0.0,0.0,0.0,0.0,0.0,0.0,-1.9891,-2.0838,-2.1688,-2.2524,-2.3446,-2.4442,-2.5434,-2.6381,-2.6765,0.0,-2.8099,-2.8993,0.0,-3.0746,0.0,0.0,0.0,0.0,0.0,0.0,0.0,0.0,0.0,0.0,-4.4413,-4.5208,-4.5371,-4.541,-4.541,-4.5409,-4.5418,-4.5408,-4.6093,-4.6882,-4.775,-4.8621,-4.9461,-5.0264,-5.0302,-5.0267,-5.02,-4.9269,-4.837,-4.751,-4.6512,-4.6019,-4.6006,-4.5817,-4.573,-4.5678,-4.4862,-4.4473,-4.4397,-4.4344,-4.4274,-4.4184,-4.3995,-4.3867,-4.3804,-4.3804,-4.3851,-4.3897,0.0,0.0,0.0,0.0,0.0,0.0,0.0,0.0,0.0,0.0,0.0,0.0,0.0,0.0,0.0,0.0,0.0,0.0,0.0,-1.4509,-1.5268,-1.6929,-1.7095,-1.7943,-1.9651,-2.1155,-2.2067,-2.2407,-2.3723,-2.3637,-2.2217,-2.1782,-2.0793,-1.9416,-1.928,-1.9176,-1.9067,-1.8922,-1.8852,-1.8797,-1.8658,-1.86,0.0,0.0,0.0,0.0,0.0,0.0,0.0,0.0,-1.827,-1.831,-1.8368,-1.9004,-1.9901,-2.0809,-2.1676,-2.254,-2.3487,-2.4795,-2.5991,-2.6452,-2.7885,0.0,0.0,-3.0555,-3.1346,-3.1714,-3.2949,0.0,0.0,0.0,0.0,0.0,0.0,0.0,0.0,-4.4516,-4.5025,-4.5351,-4.54,-4.539,-4.54,-4.5399,-4.5569,-4.5993,-4.6781,-4.7606,-4.8448,-4.9303,-4.9918,-5.0224,-5.0243,-5.0219,-5.0145,-4.9264,-4.8637,-4.8232,-4.7294,-4.6811,-4.6771,-4.6661,-4.629,-4.5721,-4.5392,-4.4923,-4.4397,-4.4329,-4.4274,-4.4169,-4.3931,-4.3769,-4.3667,-4.3667,-4.3753,-4.3835,0.0,0.0,0.0,0.0,0.0,0.0,0.0,0.0,0.0,0.0,0.0,0.0,0.0,0.0,0.0,0.0,0.0,0.0,-1.4506,-1.4492,-1.5244,-1.6928,-1.7065,-1.7907,-1.9631,-2.1179,-2.2098,-2.2407,-2.4004,-2.3938,-2.2304,-2.2184,-2.1198,-1.9536,-1.9402,-1.9303,-1.9224,-1.9067,-1.8984,-1.8959,-1.877,-1.8668,0.0,0.0,0.0,0.0,0.0,0.0,0.0,0.0,-1.8239,-1.8297,-1.829,-1.9101,-2.0174,-2.0788,-2.1761,-2.2856,-2.3762,-2.5118,-2.6422,-2.7079,0.0,0.0,-3.136,-3.2002,-3.2593,-3.2917,-3.4608,0.0,0.0,0.0,0.0,0.0,0.0,-4.3956,-4.4233,-4.4883,-4.5338,-4.5338,-4.536,-4.5351,-4.5338,-4.5557,-4.5897,-4.637,-4.7445,-4.8329,-4.8871,-4.9719,-5.0182,-5.0182,-5.0182,-5.0145,-5.007,-4.948,-4.9162,-4.9078,-4.8383,-4.7885,-4.7579,-4.7499,-4.6961,-4.6092,-4.58,-4.5175,-4.4354,-4.4285,-4.4199,-4.4061,-4.3869,-4.3703,-4.3565,-4.3565,-4.3686,-4.3804,0.0,0.0,0.0,0.0,0.0,0.0,0.0,0.0,0.0,0.0,0.0,0.0,0.0,0.0,0.0,0.0,0.0,0.0,-1.4506,-1.4492,-1.5232,-1.6926,-1.7065,-1.7876,-1.9552,-2.0525,-2.1462,-2.2407,-2.4023,-2.3957,-2.2304,-2.2246,-2.1267,-1.9609,-1.9525,-1.9427,-1.9297,-1.9232,-1.917,-1.9087,-1.8967,-1.8816,-1.8688,0.0,0.0,0.0,0.0,0.0,0.0,0.0,-1.8242,-1.8298,-1.8297,-1.9447,-2.0807,-2.0883,-2.2085,-2.3584,-2.4456,-2.544,-2.6615,0.0,0.0,0.0,-3.285,-3.3272,-3.3673,-3.4545,-3.6737,-3.8527,-3.8601,0.0,0.0,-4.2348,-4.3244,-4.4102,-4.4988,-4.5159,-4.5192,-4.5192,-4.5265,-4.5275,-4.5222,-4.5935,-4.6409,-4.6427,-4.7957,-4.8909,-4.8909,-4.9657,-5.0095,-5.0095,-5.0095,-5.007,-5.0005,-5.0005,-4.9978,-4.9912,-4.9759,-4.9258,-4.8414,-4.8269,-4.7763,-4.6941,-4.6023,-4.5107,-4.4285,-4.4229,-4.4045,-4.3804,-4.3804,-4.3669,-4.3515,-4.3515,-4.3635,-4.3804,0.0,0.0,0.0,0.0,0.0,0.0,0.0,0.0,0.0,0.0,0.0,0.0,0.0,0.0,0.0,0.0,0.0,0.0,-1.4507,-1.4506,-1.5,-1.611,-1.6725,-1.7571,-1.8732,-2.0225,-2.1763,-2.3321,-2.4304,-2.4263,-2.3198,-2.2522,-2.1627,-2.0552,-1.9868,-1.9546,-1.9501,-1.9383,-1.9311,-1.9237,-1.9087,-1.8958,-1.8824,0.0,0.0,0.0,0.0,0.0,0.0,0.0,0.0,0.0,-1.8298,-1.9386,-2.0684,-2.0796,-2.1948,-2.3417,-2.442,-2.5404,0.0,0.0,0.0,0.0,0.0,-3.4037,0.0,0.0,-3.789,-3.861,-3.9271,0.0,0.0,-4.2321,-4.3653,-4.4737,-4.4995,-4.5091,-4.5136,-4.5136,-4.5148,-4.5376,-4.5993,-4.6249,-4.6872,-4.7991,-4.8561,-4.9068,-4.9586,-4.9872,-5.0031,-5.0031,-5.0031,-5.0031,-5.0005,-4.9946,-4.9898,-4.9835,-4.975,-4.956,-4.9315,-4.919,-4.8345,-4.6978,-4.666,-4.5668,-4.4285,-4.4073,-4.3915,-4.3788,-4.3703,-4.36,-4.3515,-4.3515,-4.3635,-4.3804,0.0,0.0,0.0,0.0,0.0,0.0,0.0,0.0,0.0,0.0,-1.4005,0.0,0.0,0.0,0.0,0.0,0.0,0.0,0.0,-1.4507,-1.4885,-1.5723,-1.6558,-1.7587,-1.8842,-2.0253,-2.1673,-2.3136,-2.3905,-2.4049,-2.3542,-2.2987,-2.2262,-2.1442,-2.0889,-2.0616,-2.0585,-2.0489,-2.0372,-2.0246,-1.9804,-1.9532,-1.9327,0.0,0.0,0.0,0.0,0.0,0.0,0.0,0.0,0.0,-1.8253,-1.912,-2.021,-2.0608,-2.1645,-2.2998,-2.4607,0.0,0.0,0.0,0.0,0.0,0.0,0.0,0.0,0.0,0.0,-3.9041,-3.9597,-4.1077,0.0,-4.2264,-4.3748,-4.4919,-4.4919,-4.4991,-4.5068,-4.5068,-4.5072,-4.5434,-4.6285,-4.6647,-4.7364,-4.8669,-4.9054,-4.944,-4.9874,-4.9939,-4.9965,-4.9965,-4.9965,-4.9965,-4.9965,-4.9925,-4.9871,-4.9807,-4.9736,-4.9678,-4.9667,-4.9551,-4.8589,-4.6959,-4.6199,-4.5234,-4.4162,-4.3976,-4.3867,-4.3788,-4.3651,-4.3548,-4.3496,-4.3513,-4.3651,-4.3804,0.0,0.0,0.0,0.0,0.0,0.0,0.0,0.0,0.0,0.0,-1.4002,-1.4046,0.0,0.0,0.0,0.0,0.0,0.0,0.0,-1.4489,-1.4818,-1.5557,-1.6495,-1.7796,-1.9532,-2.0439,-2.1344,-2.2274,-2.3091,-2.3526,-2.362,-2.3535,-2.3078,-2.2322,-2.2229,-2.2162,-2.2115,-2.2047,-2.1954,-2.1742,-2.0881,-2.0426,-2.0137,-1.9187,0.0,0.0,0.0,0.0,0.0,0.0,0.0,0.0,-1.819,-1.8733,-1.9542,-2.0344,-2.1261,-2.2499,-2.494,0.0,0.0,0.0,0.0,0.0,0.0,0.0,0.0,0.0,0.0,-3.962,-3.9681,-4.0998,-4.2115,-4.2178,-4.3649,-4.4783,-4.4783,-4.4914,-4.4967,-4.4967,-4.5026,-4.538,-4.6194,-4.7011,-4.7834,-4.8642,-4.9457,-4.9912,-4.9912,-4.9912,-4.9912,-4.9912,-4.9912,-4.9912,-4.9912,-4.9879,-4.9857,-4.9792,-4.9721,-4.9667,-4.9593,-4.9446,-4.8461,-4.6776,-4.5036,-4.4177,-4.3989,-4.3913,-4.3851,-4.3771,-4.3651,-4.3548,-4.3515,-4.3565,-4.3684,-4.3804,0.0,0.0,0.0,0.0,0.0,0.0,0.0,0.0,0.0,0.0,0.0,0.0,0.0,0.0,0.0,0.0,0.0,0.0,0.0,-1.4423,-1.4502,-1.4672,-1.6126,-1.7704,-1.9416,-2.0352,-2.1258,-2.2133,-2.2997,-2.3806,-2.4497,-2.381,-2.34,-2.3179,-2.2562,-2.2234,-2.2188,-2.2224,-2.2133,-2.1935,-2.168,-2.1465,-2.1243,-2.0848,-2.0214,0.0,0.0,0.0,0.0,0.0,0.0,0.0,-1.8037,-1.8595,-1.9401,-2.0275,-2.1161,-2.2391,0.0,-2.5719,0.0,0.0,0.0,0.0,0.0,0.0,0.0,0.0,0.0,-3.9546,-3.962,-4.0973,-4.2102,-4.2115,-4.3573,-4.4706,-4.4706,-4.4751,-4.4757,-4.4757,-4.4821,-4.5199,-4.6057,-4.6923,-4.7782,-4.8642,-4.9457,-4.9912,-4.9912,-4.9912,-4.9912,-4.9912,-4.9912,-4.9912,-4.9912,-4.9843,-4.9792,-4.9721,-4.9648,-4.9593,-4.9502,-4.881,-4.7515,-4.575,-4.4688,-4.4104,-4.3913,-4.3851,-4.3753,-4.3634,-4.3548,-4.3496,-4.3515,-4.3565,-4.3684,-4.3804,0.0,0.0,0.0,0.0,0.0,0.0,0.0,0.0,0.0,0.0,0.0,0.0,0.0,0.0,0.0,0.0,0.0,0.0,0.0,0.0,-1.4733,-1.5511,-1.6762,-1.8031,-1.9326,-2.0212,-2.1102,-2.2004,-2.2882,-2.379,-2.4745,-2.4294,-2.4084,-2.4099,-2.3681,-2.3474,-2.3453,-2.3445,-2.336,-2.3196,-2.2722,-2.2414,-2.2218,-2.1633,-2.1006,-2.0449,-2.0273,0.0,0.0,0.0,0.0,0.0,0.0,0.0,-1.8876,-2.009,-2.0806,-2.1729,0.0,0.0,0.0,0.0,0.0,0.0,0.0,0.0,0.0,0.0,0.0,-3.9469,-3.9546,-4.0897,-4.2012,-4.2057,-4.3514,-4.4659,-4.4659,-4.4685,-4.4712,-4.4712,-4.4738,-4.5085,-4.5967,-4.6806,-4.7678,-4.8588,-4.9403,-4.9843,-4.9843,-4.9843,-4.983,-4.9821,-4.9802,-4.9802,-4.9802,-4.9778,-4.9721,-4.9648,-4.9623,-4.9326,-4.8809,-4.7965,-4.6817,-4.5443,-4.4583,-4.4092,-4.3881,-4.3837,-4.3719,-4.3582,-4.3532,-4.3515,-4.3515,-4.3651,-4.3736,-4.382,0.0,0.0,0.0,0.0,0.0,0.0,0.0,0.0,0.0,0.0,0.0,0.0,0.0,0.0,0.0,0.0,0.0,0.0,0.0,0.0,0.0,-1.6707,-1.754,-1.8372,-1.9251,-2.0195,-2.1076,-2.1875,-2.3039,-2.4058,-2.4883,-2.4893,-2.5016,-2.5239,-2.5228,-2.5224,-2.5227,-2.5175,-2.512,-2.4982,-2.418,-2.3793,-2.3557,-2.2537,-2.1945,-2.1629,-2.127,-2.054,-1.9726,-1.9577,0.0,0.0,0.0,0.0,-1.8278,-1.9744,-2.0325,-2.1003,0.0,0.0,0.0,0.0,0.0,0.0,0.0,0.0,0.0,0.0,-3.8662,-3.9391,-3.9469,-4.0694,-4.1769,-4.194,-4.3335,-4.4428,-4.456,-4.4632,-4.4672,-4.4672,-4.4685,-4.4968,-4.5698,-4.6504,-4.7375,-4.828,-4.9112,-4.9608,-4.9759,-4.9778,-4.9764,-4.9692,-4.9692,-4.9692,-4.9692,-4.9678,-4.9648,-4.9608,-4.9559,-4.9036,-4.8075,-4.7386,-4.6479,-4.5447,-4.4534,-4.415,-4.4087,-4.404,-4.3996,-4.3969,-4.3789,-4.3699,-4.3716,-4.3775,-4.3804,-4.382,0.0,0.0,0.0,0.0,0.0,0.0,0.0,0.0,0.0,0.0,0.0,0.0,0.0,0.0,0.0,0.0,0.0,0.0,0.0,0.0,0.0,-1.6586,-1.7403,-1.823,-1.912,-2.065,-2.1568,-2.1811,-2.4136,-2.5375,-2.5567,-2.568,-2.6182,-2.6968,-2.6981,-2.6978,-2.6959,-2.702,-2.6965,-2.6831,-2.6651,-2.647,-2.618,-2.5181,-2.4267,-2.3412,-2.2453,-2.1501,-2.067,-2.0477,-1.9814,0.0,0.0,0.0,-1.8086,-1.9013,-1.9865,-2.0881,0.0,0.0,0.0,0.0,0.0,0.0,0.0,0.0,0.0,0.0,-3.8493,-3.9202,-3.9373,-4.0218,-4.1081,-4.1793,-4.2798,-4.3721,-4.4435,-4.4528,-4.4528,-4.4528,-4.4578,-4.4662,-4.4788,-4.5615,-4.6499,-4.7324,-4.8122,-4.8914,-4.9669,-4.9707,-4.9707,-4.9692,-4.9692,-4.9692,-4.9692,-4.9634,-4.9623,-4.9608,-4.9418,-4.8893,-4.8094,-4.782,-4.6845,-4.5354,-4.4423,-4.4334,-4.4855,-4.4838,-4.5142,-4.5516,-4.4819,-4.4544,-4.4488,-4.3977,-4.3804,-4.382,0.0,0.0,0.0,0.0,0.0,0.0,0.0,0.0,0.0,0.0,0.0,0.0,0.0,0.0,0.0,0.0,0.0,0.0,0.0,0.0,0.0,-1.7198,-1.7995,-1.8597,-1.8983,-2.0671,-2.1571,-2.1625,-2.4218,-2.5762,-2.632,-2.6916,-2.7201,-2.7253,-2.7283,-2.733,-2.7415,-2.7399,-2.7368,-2.7304,-2.7196,-2.7081,-2.6907,-2.6355,-2.5835,-2.5278,-2.419,-2.317,-2.2213,-2.1626,-2.0761,-1.9912,-1.9772,0.0,0.0,0.0,-2.0365,0.0,-2.358,0.0,0.0,0.0,0.0,0.0,0.0,0.0,0.0,0.0,-3.7284,-3.8413,-3.9114,-3.9973,-4.0726,-4.1162,-4.235,-4.3357,-4.3713,-4.4144,-4.4426,-4.4401,-4.4416,-4.4458,-4.4482,-4.5275,-4.6158,-4.7071,-4.79,-4.8729,-4.9596,-4.9634,-4.9638,-4.9578,-4.9578,-4.9578,-4.9578,-4.9567,-4.9502,-4.9418,-4.9308,-4.9043,-4.8642,-4.8073,-4.7183,-4.6047,-4.5597,-4.5504,-4.5669,-4.5669,-4.5768,-4.5865,-4.5516,-4.5369,-4.5296,-4.461,-4.4366,-4.4309,0.0,0.0,0.0,0.0,0.0,0.0,0.0,0.0,0.0,0.0,0.0,0.0,0.0,0.0,0.0,0.0,0.0,0.0,0.0,0.0,0.0,-1.7652,-1.8395,-1.895,-1.9165,-2.0642,-2.1539,-2.1786,-2.4385,-2.6029,-2.6777,-2.7946,-2.8343,-2.8087,-2.8209,-2.845,-2.8738,-2.8698,-2.8674,-2.8658,-2.8531,-2.8452,-2.8305,-2.7708,-2.7392,-2.7117,-2.583,-2.4815,-2.3962,-2.3029,-2.2025,-2.1072,-2.0739,-2.0023,0.0,0.0,0.0,0.0,0.0,0.0,0.0,0.0,0.0,0.0,0.0,0.0,0.0,0.0,-3.6013,-3.7198,-3.8201,-3.9356,-4.0262,-4.0584,-4.1715,-4.267,-4.3081,-4.3676,-4.4096,-4.4281,-4.43,-4.4314,-4.4368,-4.493,-4.5761,-4.6957,-4.7596,-4.8419,-4.9521,-4.9578,-4.9548,-4.949,-4.9509,-4.9509,-4.9509,-4.9474,-4.9393,-4.9276,-4.9214,-4.915,-4.9083,-4.8379,-4.7765,-4.7169,-4.6661,-4.647,-4.65,-4.6501,-4.6488,-4.6489,-4.6287,-4.6214,-4.6104,-4.5403,-4.5144,-4.5015,0.0,0.0,0.0,0.0,0.0,0.0,0.0,0.0,0.0,0.0,0.0,0.0,-1.6584,-1.6584,-1.6544,-1.6493,-1.6485,0.0,0.0,0.0,0.0,-1.7506,-1.8225,0.0,-1.9922,-2.0771,-2.1642,-2.2544,-2.5105,-2.6439,-2.6654,-2.8413,-2.97,-3.054,-3.0782,-3.1371,-3.2132,-3.2132,-3.2134,-3.2117,-3.2062,-3.1958,-3.1663,-2.9998,-2.9289,-2.8921,-2.7074,-2.622,-2.5811,-2.4813,-2.3765,-2.2708,-2.1816,-2.0894,-2.0152,0.0,0.0,0.0,0.0,0.0,0.0,0.0,0.0,0.0,0.0,0.0,0.0,0.0,-3.4983,-3.5468,-3.6287,-3.7933,-3.9477,-4.036,-4.0634,-4.1273,-4.2805,-4.3048,-4.3384,-4.4206,-4.43,-4.43,-4.43,-4.4337,-4.5058,-4.678,-4.6963,-4.7706,-4.9415,-4.9509,-4.949,-4.9509,-4.9509,-4.9509,-4.9509,-4.9374,-4.9276,-4.9195,-4.9133,-4.9101,-4.9084,-4.8906,-4.8816,-4.8686,-4.7041,-4.6698,-4.7331,-4.726,-4.761,-4.8104,-4.7333,-4.7039,-4.6966,-4.6286,-4.6027,-4.5935,0.0,0.0,0.0,0.0,0.0,0.0,0.0,0.0,0.0,0.0,0.0,0.0,0.0,-1.6726,-1.6671,-1.6619,-1.7034,0.0,0.0,0.0,0.0,-1.8215,-1.8462,-1.9003,-1.9848,-2.0738,-2.1606,-2.2403,-2.4998,-2.6333,-2.6512,-2.8363,-3.0044,-3.1459,-3.1166,-3.1534,-3.24,-3.2408,-3.2397,0.0,0.0,0.0,-3.2213,0.0,0.0,0.0,0.0,0.0,-2.7628,-2.6663,-2.5559,-2.4449,-2.3502,-2.257,-2.1691,-2.1135,0.0,0.0,0.0,0.0,0.0,0.0,0.0,0.0,0.0,0.0,0.0,-3.2828,-3.3578,-3.4327,-3.5349,-3.7027,-3.8391,-3.877,-3.9788,-4.0737,-4.1302,-4.1842,-4.2458,-4.3238,-4.3334,-4.3569,-4.4173,-4.4244,-4.4946,-4.6632,-4.6763,-4.7523,-4.922,-4.9313,-4.9313,-4.9313,-4.9313,-4.9313,-4.9313,-4.9216,-4.9166,-4.9133,-4.9013,-4.8979,-4.8979,-4.8926,-4.8909,-4.8854,-4.8102,-4.7921,-4.8162,-4.8108,-4.8162,-4.8269,-4.7994,-4.7865,-4.7792,-4.7022,-4.6728,-4.6636,0.0,0.0,0.0,0.0,0.0,0.0,0.0,0.0,0.0,-1.839,0.0,0.0,0.0,0.0,-1.7475,-1.7379,-1.7811,-1.8012,-1.7915,-1.8376,-1.865,-1.8601,-1.8839,-1.9351,-2.0138,-2.1047,-2.1904,-2.2696,-2.4732,-2.595,-2.6381,-2.7945,-2.9791,-3.1745,-3.1439,-3.2023,-3.3214,0.0,0.0,-3.3695,0.0,0.0,-3.4017,0.0,0.0,0.0,0.0,0.0,0.0,0.0,0.0,-2.618,-2.4963,-2.3894,-2.2932,-2.206,-2.2118,0.0,-2.3319,0.0,0.0,0.0,0.0,0.0,0.0,0.0,0.0,-3.1452,-3.2144,-3.2885,-3.3935,-3.5414,-3.68,-3.7723,-3.8836,-3.9788,-4.0379,-4.0886,-4.1489,-4.2266,-4.2588,-4.2974,-4.3612,-4.3924,-4.4789,-4.6507,-4.665,-4.741,-4.912,-4.9214,-4.9214,-4.9214,-4.9214,-4.9197,-4.9183,-4.9083,-4.9015,-4.9016,-4.8856,-4.8803,-4.8803,-4.8803,-4.8803,-4.8785,-4.8624,-4.8587,-4.8587,-4.8476,-4.8382,-4.8306,-4.8306,-4.8306,-4.8251,-4.77,-4.7498,-4.7388,0.0,0.0,0.0,0.0,0.0,0.0,0.0,0.0,-1.9123,-1.9192,0.0,0.0,0.0,0.0,0.0,-1.8913,-1.8861,-1.8814,-1.8742,-1.8694,-1.8672,-1.8659,0.0,0.0,0.0,-2.1706,-2.2551,-2.3494,-2.4366,-2.5283,-2.6222,-2.7216,-2.9042,-3.1507,-3.1771,-3.2978,-3.4883,0.0,-3.6128,-3.6272,0.0,-3.7408,-3.7299,0.0,0.0,0.0,-3.3489,-3.2462,0.0,-2.9473,0.0,0.0,0.0,-2.4768,-2.3739,-2.289,-2.2572,0.0,0.0,0.0,0.0,0.0,0.0,0.0,0.0,0.0,0.0,-3.035,-3.0697,-3.1115,-3.1985,-3.3063,-3.4668,-3.7257,-3.7724,-3.8364,-4.0071,-4.0218,-4.0456,-4.1359,-4.2094,-4.2546,-4.2601,-4.3368,-4.4578,-4.631,-4.6541,-4.7346,-4.9067,-4.9179,-4.9179,-4.9197,-4.9197,-4.9166,-4.9084,-4.8962,-4.8856,-4.8787,-4.866,-4.8605,-4.8605,-4.8605,-4.8605,-4.8587,-4.8532,-4.855,-4.8569,-4.8382,-4.8306,-4.8306,-4.8306,-4.8306,-4.8306,-4.8306,-4.8306,-4.8196,0.0,0.0,0.0,0.0,0.0,0.0,0.0,-1.9176,-1.9208,0.0,0.0,0.0,-1.9184,-1.9094,-1.8991,-1.8913,-1.938,-1.9627,-1.9499,-2.002,-2.0276,-2.0138,-2.0352,-2.0855,-2.1622,-2.1931,-2.2494,-2.3289,-2.426,-2.5177,-2.6081,-2.7078,-2.8888,-3.1278,-3.1567,-3.302,-3.5271,-3.5743,0.0,-3.6204,-3.7007,-3.7368,0.0,0.0,0.0,0.0,0.0,-3.4754,-3.3346,0.0,-3.1037,-2.9007,0.0,0.0,0.0,-2.3636,0.0,0.0,-2.2569,0.0,0.0,0.0,0.0,0.0,0.0,0.0,0.0,-2.8645,-2.9382,-3.0122,-3.1138,-3.1592,-3.2502,-3.4636,-3.6048,-3.723,-3.8302,-3.8418,-3.8921,-4.0307,-4.0661,-4.1271,-4.2472,-4.282,-4.3647,0.0,-4.5975,-4.6822,-4.7981,-4.8644,-4.896,-4.891,-4.891,-4.8875,-4.8732,-4.8714,-4.8678,-4.866,-4.8605,-4.8605,-4.8605,-4.8605,-4.8605,-4.8587,-4.8532,-4.8494,-4.8532,-4.8363,-4.8306,-4.8306,-4.8306,-4.8306,-4.8306,-4.8306,-4.8306,-4.8269,0.0,0.0,0.0,0.0,0.0,0.0,-1.958,-1.9676,-1.9845,0.0,0.0,0.0,-2.0203,-2.0118,-2.0002,-1.9903,-2.0278,-2.044,-2.0321,-2.0735,-2.0929,-2.0751,-2.1067,-2.147,-2.1931,-2.2294,-2.2717,-2.3205,-2.3779,-2.4699,-2.5886,-2.6561,-2.8371,-3.1088,-3.1353,0.0,0.0,0.0,0.0,0.0,-3.7972,0.0,0.0,-3.8316,-3.8052,0.0,0.0,0.0,-3.5138,-3.4202,-3.2054,0.0,0.0,0.0,0.0,0.0,0.0,0.0,0.0,0.0,0.0,0.0,0.0,0.0,-2.4675,-2.5456,-2.6237,0.0,-2.7468,-2.8268,-2.9584,-2.9922,-3.0594,-3.2387,-3.3592,-3.4962,-3.692,-3.7183,-3.7616,-3.8903,-3.9334,-4.0038,-4.1346,-4.2097,-4.3053,-4.4363,-4.5541,-4.6738,-4.7956,-4.8509,-4.875,-4.8715,-4.8715,-4.8678,-4.8569,-4.8513,-4.8476,-4.842,-4.8382,-4.8345,-4.8345,-4.842,-4.842,-4.842,-4.842,-4.8419,-4.8401,-4.8325,-4.8306,-4.8306,-4.8306,-4.8306,-4.8306,-4.8306,-4.8306,-4.8287,0.0,0.0,0.0,0.0,0.0,0.0,-2.029,-2.0487,-2.0813,0.0,-2.1741,-2.1732,-2.1616,-2.1534,-2.145,-2.1316,-2.1329,-2.1299,-2.115,-2.1206,-2.1205,-2.107,-2.1686,-2.206,-2.2119,-2.2707,-2.3082,-2.3193,-2.3293,-2.4143,-2.5686,-2.5963,-2.7818,-3.0888,0.0,0.0,0.0,0.0,0.0,-3.8674,-3.9378,-3.9746,0.0,0.0,-3.926,-3.8646,-3.8359,-3.7685,-3.6633,-3.4683,-3.2271,0.0,0.0,0.0,0.0,0.0,-2.4166,0.0,0.0,0.0,0.0,0.0,0.0,0.0,-2.3838,-2.4534,-2.5184,-2.5265,-2.5478,-2.6126,-2.7656,-2.8131,-2.8835,-3.0459,-3.0815,-3.2143,-3.568,-3.6136,-3.6411,-3.7327,-3.808,-3.8841,-3.9664,-4.116,-4.2478,-4.3468,-4.5176,-4.6852,-4.8365,-4.855,-4.8569,-4.8569,-4.855,-4.8513,-4.8456,-4.8324,-4.8247,-4.8168,-4.807,-4.7992,-4.8012,-4.811,-4.8187,-4.8187,-4.8267,-4.8287,-4.8287,-4.8287,-4.8306,-4.8306,-4.8306,-4.8306,-4.8306,-4.8306,-4.8287,-4.8267,0.0,0.0,0.0,0.0,0.0,0.0,0.0,-2.1289,-2.1443,-2.1679,-2.1706,-2.1697,-2.1607,-2.1534,-2.1469,-2.1392,-2.1908,-2.2185,-2.2061,-2.2544,-2.2782,-2.2663,-2.2779,-2.2842,-2.2805,-2.2982,-2.3077,-2.3132,-2.3827,-2.464,-2.5566,-2.6348,-2.8124,-3.0671,-3.0888,0.0,0.0,0.0,0.0,-3.9969,-3.9677,0.0,-4.0663,-3.9962,-3.9994,-4.0296,-3.9451,-3.8588,-3.7455,-3.4862,-3.346,-3.2359,0.0,0.0,0.0,0.0,0.0,0.0,0.0,0.0,0.0,0.0,0.0,0.0,-2.2936,-2.363,-2.429,0.0,-2.502,-2.5641,-2.6226,-2.6399,-2.6989,-2.8717,-2.9003,-3.0231,-3.3675,-3.4164,-3.4698,-3.6142,-3.7004,-3.781,-3.8611,-3.9577,-4.0798,-4.2365,-4.4742,-4.6542,-4.75,-4.8182,-4.8457,-4.8363,-4.8305,-4.8208,-4.8092,-4.8072,-4.8052,-4.8032,-4.8012,-4.7992,-4.7992,-4.8012,-4.8032,-4.805,-4.8168,-4.8226,-4.8226,-4.8286,-4.8306,-4.8306,-4.8306,-4.8306,-4.8306,-4.8306,-4.8267,-4.8226,0.0,0.0,0.0,0.0,0.0,0.0,0.0,-2.2066,-2.2425,-2.3322,-2.3847,-2.4113,-2.4046,-2.3978,-2.3896,-2.3792,-2.4064,-2.4203,-2.4111,-2.4378,-2.4468,-2.4299,-2.4256,-2.4059,-2.3661,-2.3648,-2.3661,-2.3699,-2.4136,-2.4927,-2.6075,-2.6992,-2.8518,-3.0553,-3.1497,0.0,0.0,0.0,-3.8188,-4.0255,-4.0141,0.0,-4.1412,-4.0986,-4.1086,-4.1278,-4.0341,-3.9088,-3.7607,-3.5808,-3.4458,0.0,0.0,-2.9883,-2.855,0.0,-2.629,-2.506,0.0,0.0,0.0,-2.26,0.0,0.0,0.0,-2.3005,-2.3388,-2.3519,-2.392,-2.4422,-2.5012,-2.5166,-2.567,-2.6946,-2.7176,-2.808,-3.0613,-3.1751,-3.2944,-3.4546,-3.514,-3.6049,-3.7653,-3.8528,-4.0039,-4.25,-4.3905,-4.5352,-4.6946,-4.7441,-4.7825,-4.8132,-4.813,-4.801,-4.7847,-4.7847,-4.7767,-4.7645,-4.7645,-4.7645,-4.7663,-4.7806,-4.7847,-4.7868,-4.803,-4.809,-4.811,-4.8208,-4.8247,-4.8247,-4.8287,-4.8267,-4.8247,-4.8247,-4.8189,-4.809,0.0,0.0,0.0,0.0,0.0,0.0,0.0,0.0,-2.3645,-2.5243,-2.6127,-2.6628,-2.6721,-2.6677,-2.6654,-2.668,-2.658,-2.6404,-2.6167,-2.6091,-2.59,-2.5566,-2.55,-2.516,-2.4545,-2.4476,-2.4462,-2.4502,-2.4647,-2.5353,-2.6602,-2.7604,-2.8885,-3.0417,0.0,0.0,0.0,0.0,0.0,-4.0335,0.0,-4.1469,-4.2103,-4.1994,-4.2031,-4.1977,-4.0928,-3.951,-3.7981,-3.6961,-3.5485,-3.3854,-3.2712,-3.124,0.0,0.0,0.0,0.0,0.0,0.0,0.0,0.0,0.0,-2.2668,0.0,0.0,0.0,-2.2764,-2.2932,0.0,0.0,0.0,0.0,0.0,0.0,0.0,0.0,-2.9115,0.0,-3.2754,-3.3291,-3.4284,-3.623,-3.7606,-3.9442,-4.2066,-4.2831,-4.4053,-4.6004,-4.655,-4.7077,-4.7676,-4.7838,-4.7809,-4.7636,-4.7636,-4.7511,-4.7302,-4.7302,-4.7302,-4.732,-4.7533,-4.7636,-4.7678,-4.7868,-4.797,-4.799,-4.811,-4.8168,-4.8168,-4.8247,-4.8247,-4.8187,-4.8168,-4.807,-4.797,-1.8259,-1.9,0.0,0.0,0.0,0.0,0.0,0.0,-2.5129,-2.6202,-2.6497,-2.6848,-2.7482,0.0,0.0,0.0,0.0,0.0,-2.7112,0.0,-2.6603,-2.5806,-2.5706,0.0,-2.5372,-2.5359,-2.5332,-2.5279,-2.5929,-2.6338,-2.653,-2.8012,-2.9213,0.0,-3.2032,0.0,0.0,0.0,-3.9268,0.0,-4.1942,-4.2541,0.0,-4.2095,-4.2263,-4.2664,-4.1007,-4.0122,-3.951,0.0,-3.6637,-3.5435,0.0,-3.246,-3.1279,0.0,0.0,0.0,0.0,0.0,0.0,0.0,-2.3952,0.0,0.0,0.0,-2.2619,-2.2699,0.0,0.0,0.0,0.0,0.0,0.0,0.0,0.0,-2.5778,-2.6192,-2.7575,-3.0732,-3.2364,-3.3352,-3.3622,-3.6419,-3.8401,-3.8813,-4.1556,-4.3306,-4.3579,-4.5581,-4.6701,-4.6672,-4.7256,-4.7493,-4.7341,-4.7341,-4.7341,-4.7302,-4.7302,-4.7302,-4.7302,-4.7341,-4.7407,-4.7533,-4.7678,-4.7801,-4.7922,-4.799,-4.8012,-4.805,-4.8149,-4.8207,-4.8187,-4.807,-4.7988,-4.7902,-1.8954,-1.9639,0.0,0.0,0.0,0.0,0.0,0.0,-2.6779,-2.7714,-2.8336,-2.8987,0.0,0.0,0.0,0.0,0.0,-2.9817,0.0,0.0,0.0,0.0,0.0,0.0,0.0,-2.6453,-2.6182,-2.6155,-2.6395,-2.6726,-2.718,-2.8718,-2.9674,0.0,-3.289,0.0,-3.5534,0.0,-3.9616,0.0,0.0,0.0,0.0,-4.3128,-4.2969,-4.2664,-4.139,-4.0502,-3.969,0.0,-3.7119,0.0,0.0,0.0,0.0,0.0,0.0,0.0,0.0,0.0,0.0,0.0,0.0,0.0,-2.3595,0.0,-2.3027,0.0,0.0,0.0,0.0,0.0,0.0,0.0,-2.287,0.0,0.0,0.0,-2.5968,0.0,0.0,0.0,-3.3021,-3.4929,-3.662,-3.8029,-3.9473,-4.1088,-4.2866,-4.3897,-4.5032,-4.6299,-4.6618,-4.691,-4.7227,-4.7227,-4.716,-4.7007,-4.7007,-4.7007,-4.7007,-4.7075,-4.7205,-4.7334,-4.7425,-4.7533,-4.7678,-4.7765,-4.7866,-4.7945,-4.8006,-4.8045,-4.8024,-4.7966,-4.7884,-4.778,-1.9998,0.0,0.0,0.0,0.0,0.0,0.0,0.0,0.0,-2.901,0.0,0.0,-3.1935,-3.2007,0.0,0.0,-3.2433,-3.2226,0.0,0.0,-3.1337,0.0,0.0,0.0,0.0,0.0,0.0,-2.7338,-2.7169,-2.7377,-2.7903,-2.9231,-3.0013,0.0,0.0,-3.5049,-3.5435,0.0,0.0,-4.0743,-4.1902,-4.2774,-4.3428,-4.3749,-4.3444,-4.2738,-4.1841,-4.0921,-3.9914,-3.8473,-3.7564,0.0,-3.5425,0.0,0.0,0.0,0.0,0.0,-2.8378,0.0,0.0,0.0,0.0,0.0,0.0,0.0,0.0,0.0,0.0,0.0,0.0,0.0,0.0,0.0,0.0,-2.163,0.0,-2.3,0.0,0.0,0.0,0.0,0.0,-3.3468,-3.4812,-3.6542,-3.7583,-3.9101,-4.1339,-4.2277,-4.3498,-4.512,-4.5821,-4.6348,-4.6767,-4.6981,-4.6957,-4.6749,-4.6749,-4.6749,-4.6731,-4.6888,-4.702,-4.7156,-4.7227,-4.7341,-4.7468,-4.7593,-4.7699,-4.778,-4.784,-4.784,-4.784,-4.784,-4.778,-4.7717,-2.1446,-2.1699,0.0,0.0,0.0,0.0,0.0,0.0,0.0,0.0,0.0,0.0,0.0,0.0,0.0,0.0,0.0,-3.543,-3.4457,0.0,-3.2826,0.0,0.0,-3.0599,0.0,0.0,0.0,0.0,0.0,-2.861,-2.8576,-2.9362,-3.0125,-3.0993,-3.3563,-3.4871,-3.5313,-3.8651,-4.0256,-4.0654,-4.2377,-4.3086,-4.3141,0.0,-4.3426,-4.3174,-4.237,0.0,0.0,-3.9566,-3.8159,-3.6777,0.0,0.0,0.0,0.0,0.0,0.0,0.0,0.0,0.0,-2.822,0.0,0.0,0.0,0.0,-2.3493,0.0,0.0,0.0,0.0,0.0,0.0,0.0,0.0,0.0,0.0,0.0,0.0,0.0,0.0,0.0,0.0,-3.212,-3.3127,-3.3345,-3.617,-3.7952,-3.8042,-4.0957,-4.2625,-4.2611,-4.4814,-4.5886,-4.564,-4.6427,-4.6731,-4.6613,-4.6613,-4.6613,-4.6613,-4.6749,-4.6888,-4.7002,-4.7133,-4.7227,-4.732,-4.745,-4.7511,-4.7533,-4.7657,-4.7717,-4.7717,-4.7717,-4.7699,-4.7717,0.0,0.0,0.0,0.0,0.0,0.0,0.0,-2.8763,0.0,0.0,0.0,0.0,0.0,-3.544,-3.5604,0.0,0.0,-3.5827,-3.539,-3.5119,0.0,0.0,0.0,-3.2301,0.0,0.0,0.0,0.0,0.0,0.0,-2.9411,-3.0109,-3.0595,0.0,0.0,-3.4834,0.0,0.0,0.0,0.0,0.0,-4.2783,-4.2804,0.0,-4.316,-4.2923,-4.2105,-4.1597,-4.1071,-3.9697,-3.8761,-3.799,-3.6827,-3.6042,-3.535,-3.427,-3.295,-3.1725,0.0,0.0,-2.9334,-2.8921,0.0,0.0,0.0,0.0,0.0,0.0,0.0,0.0,0.0,0.0,0.0,0.0,0.0,0.0,0.0,0.0,0.0,0.0,0.0,0.0,0.0,0.0,-3.187,-3.2983,-3.4593,-3.6192,-3.7685,-3.9281,-4.0839,-4.2313,-4.3572,-4.4662,-4.5587,-4.5838,-4.6112,-4.6471,-4.6471,-4.6471,-4.6471,-4.6501,-4.6661,-4.6865,-4.6911,-4.7048,-4.7245,-4.729,-4.7399,-4.7511,-4.7554,-4.7615,-4.7717,-4.7717,-4.7717,-4.7717,-2.2362,0.0,0.0,0.0,0.0,0.0,0.0,0.0,0.0,0.0,-3.4168,0.0,-3.6578,0.0,-3.6695,0.0,-3.682,-3.676,-3.6653,-3.6399,0.0,-3.617,-3.4778,0.0,0.0,0.0,0.0,0.0,0.0,-3.0193,0.0,0.0,0.0,0.0,0.0,-3.4743,-3.5226,0.0,-4.0008,0.0,0.0,-4.2512,0.0,0.0,-4.2746,-4.2638,0.0,-4.1676,-4.1203,-4.0142,-3.9349,-3.8556,-3.743,-3.6645,-3.5967,-3.5197,-3.3978,-3.2802,-3.2673,-3.1607,-3.0445,-3.0046,-2.9361,0.0,-2.7707,0.0,0.0,0.0,0.0,0.0,0.0,0.0,0.0,0.0,0.0,0.0,0.0,-2.0399,0.0,0.0,0.0,0.0,0.0,0.0,-3.0368,-3.1964,-3.3154,-3.4693,-3.6701,-3.7864,-3.9347,-4.1334,-4.2359,-4.3429,-4.4635,-4.5168,-4.5605,-4.5921,-4.6203,-4.6326,-4.6326,-4.6398,-4.6477,-4.6661,-4.6754,-4.6888,-4.7066,-4.7156,-4.7267,-4.7399,-4.7425,-4.749,-4.7554,-4.7657,-4.7717,-4.7717,0.0,0.0,0.0,0.0,-2.6401,0.0,0.0,0.0,-3.3414,0.0,-3.5159,-3.6527,-3.7514,-3.7494,-3.7713,-3.8453,-3.8465,-3.8365,-3.8263,-3.7538,0.0,0.0,-3.611,-3.5204,-3.4431,0.0,0.0,0.0,0.0,0.0,0.0,0.0,0.0,0.0,-3.371,0.0,-3.519,-3.8422,-3.9946,-4.0336,-4.1803,-4.2331,-4.2267,-4.2124,-4.2187,-4.2333,-4.2308,-4.1685,-4.0943,-4.089,-3.9851,-3.8565,-3.8377,-3.7222,-3.5877,-3.5797,-3.4951,-3.4056,-3.4056,-3.3365,-3.2434,-3.157,-3.0783,0.0,0.0,0.0,-2.6742,0.0,0.0,0.0,0.0,0.0,0.0,0.0,0.0,0.0,0.0,0.0,0.0,0.0,0.0,0.0,0.0,-2.7476,-2.8721,-3.0228,-3.1889,-3.3491,0.0,-3.6649,-3.82,-3.9631,-4.1212,-4.2296,-4.2855,-4.4406,-4.5146,-4.5115,-4.581,-4.6161,-4.6196,-4.6326,-4.6381,-4.6405,-4.6661,-4.6795,-4.6819,-4.7066,-4.7196,-4.7219,-4.7254,-4.7298,-4.7341,-4.7593,-4.7678,-4.7678,-2.4652,-2.5897,-2.7098,0.0,-2.8367,-2.9591,0.0,0.0,0.0,0.0,-3.6617,-3.7447,-3.8903,-3.9081,-3.9362,-4.0048,-4.0087,0.0,0.0,0.0,0.0,-3.7919,-3.694,-3.6299,-3.6084,-3.4583,0.0,-3.3207,0.0,0.0,-3.1777,0.0,0.0,0.0,0.0,0.0,-3.4991,-3.8251,-4.0413,-4.1617,-4.2026,-4.2142,-4.2051,0.0,-4.1762,-4.1805,-4.1909,-4.1703,-4.1349,-4.0729,-4.0204,-3.9715,-3.8992,-3.7993,-3.7102,-3.6947,-3.5876,-3.4727,-3.4682,-3.3945,-3.3015,-3.2232,-3.1348,-3.0468,-2.9806,0.0,0.0,0.0,0.0,0.0,0.0,0.0,0.0,0.0,0.0,0.0,0.0,0.0,0.0,-2.2289,0.0,0.0,0.0,-2.7014,-2.8346,-2.9499,-3.1044,-3.2392,-3.3419,-3.5542,-3.7112,-3.7997,-4.005,-4.1435,-4.2079,-4.2994,-4.3997,-4.5098,-4.5291,-4.5653,-4.6196,-4.6246,-4.6319,-4.6405,-4.6453,-4.6613,-4.6819,-4.6865,-4.702,-4.7219,-4.7223,-4.7249,-4.7302,-4.7385,-4.7407,-4.7407,-2.5906,0.0,0.0,-2.996,0.0,0.0,-3.2939,-3.3777,0.0,-3.684,-3.774,0.0,-3.9513,-3.9914,-4.0281,-4.0669,-4.0652,0.0,-3.9912,0.0,0.0,-3.8666,-3.8076,-3.7414,-3.6662,-3.5456,0.0,-3.3791,0.0,0.0,-3.2108,0.0,0.0,0.0,0.0,-3.4676,0.0,-3.8333,-4.0542,-4.2055,-4.1995,-4.2104,0.0,-4.2108,-4.2165,-4.23,-4.1992,-4.166,-4.1305,-4.0869,-4.0413,-3.9936,-3.9351,-3.8543,-3.7777,-3.7273,-3.6439,-3.5579,-3.5213,-3.445,-3.364,-3.3241,-3.2228,-3.124,-3.0902,-2.9643,-2.8367,0.0,-2.6638,-2.5514,0.0,0.0,0.0,0.0,0.0,0.0,0.0,0.0,0.0,0.0,-2.2432,0.0,-2.5056,-2.6135,-2.7401,-2.9015,-3.0346,-3.1596,-3.2782,-3.4473,-3.599,-3.7301,-3.8591,-3.9908,-4.1204,-4.1947,-4.3061,-4.4571,-4.494,-4.5501,-4.6196,-4.6196,-4.6246,-4.6326,-4.6357,-4.6495,-4.6637,-4.6684,-4.6842,-4.7043,-4.7088,-4.7156,-4.7165,-4.7165,-4.7232,-4.7302,0.0,0.0,0.0,0.0,0.0,0.0,0.0,-3.4787,0.0,-3.7207,0.0,-3.9596,-3.9846,-4.0467,-4.0887,-4.0978,0.0,-4.0764,-4.0637,-4.0637,-4.0239,-3.9373,-3.9175,-3.8385,-3.6915,-3.6381,0.0,0.0,0.0,0.0,0.0,0.0,0.0,0.0,0.0,0.0,0.0,-3.8755,-4.0604,-4.1962,-4.1925,-4.2215,-4.2694,-4.2696,-4.2943,-4.3168,-4.2396,-4.1712,-4.1185,-4.1058,-4.048,-3.9771,-3.9637,-3.8982,-3.8125,-3.7352,-3.6821,-3.633,-3.5675,-3.4912,-3.4269,-3.4146,-3.3144,-3.2126,-3.1963,-3.0807,-2.9588,-2.8925,-2.757,-2.6282,-2.553,0.0,0.0,0.0,0.0,0.0,0.0,0.0,0.0,0.0,0.0,0.0,0.0,-2.5181,-2.6286,-2.8574,-2.9652,-3.0873,-3.2382,0.0,-3.4852,-3.6906,-3.7171,-3.8258,-4.0327,-4.1056,-4.2196,-4.374,-4.4506,-4.5295,-4.6007,-4.6137,-4.6172,-4.6172,-4.6326,-4.6381,-4.6405,-4.6542,-4.6661,-4.6795,-4.6888,-4.6934,-4.6934,-4.6975,-4.7075,-4.7254,0.0,0.0,0.0,0.0,0.0,-3.4889,-3.5703,-3.6197,-3.7051,-3.8614,-3.9222,-3.9981,-4.1198,-4.156,-4.1905,-4.2467,-4.2484,0.0,0.0,0.0,0.0,-4.0075,-3.9318,-3.8796,-3.8491,-3.6914,-3.597,0.0,0.0,0.0,0.0,0.0,0.0,0.0,0.0,0.0,-3.8921,-3.9964,0.0,-4.1872,-4.2356,-4.2572,-4.2661,-4.3016,-4.3158,-4.3088,-4.2832,-4.2274,-4.157,-4.0837,-4.0424,-4.0175,-4.0034,-3.9402,-3.8629,-3.8362,-3.7399,-3.6379,-3.6133,-3.5447,-3.4615,-3.3885,-3.3429,-3.2866,-3.1753,-3.0835,-3.003,-2.9403,-2.8078,-2.6814,-2.6015,-2.4609,0.0,0.0,0.0,0.0,0.0,0.0,0.0,0.0,0.0,-2.2914,0.0,0.0,-2.5863,-2.7771,-2.8695,-2.9631,-3.069,0.0,-3.365,-3.5206,-3.6457,-3.7897,-3.9498,-4.018,-4.1291,-4.2835,-4.3487,-4.4206,-4.4998,-4.5701,-4.6023,-4.6048,-4.6172,-4.6319,-4.6405,-4.6447,-4.6501,-4.6637,-4.6661,-4.6661,-4.6684,-4.6778,-4.6865,-4.6893,0.0,0.0,0.0,0.0,0.0,0.0,0.0,-3.7453,-3.8169,-3.9084,-4.0022,-4.0872,-4.1614,-4.2122,-4.2521,-4.2825,-4.2842,-4.2641,-4.2147,-4.2129,-4.1731,-4.0807,-4.0374,0.0,-3.8772,-3.7818,-3.6906,-3.6054,0.0,0.0,0.0,0.0,0.0,0.0,0.0,-3.7703,0.0,0.0,0.0,-4.2231,-4.2531,-4.3022,-4.3614,-4.3764,-4.3975,-4.4096,-4.3536,-4.303,-4.2457,-4.1265,-4.051,-4.0079,-3.9935,-3.9504,-3.8972,-3.8511,-3.7784,-3.6902,-3.6092,-3.558,-3.5062,-3.4273,-3.3742,-3.3219,-3.2577,-3.1599,-3.0635,-2.9959,-2.8955,-2.7734,-2.6217,-2.5032,-2.403,0.0,0.0,0.0,0.0,0.0,0.0,0.0,0.0,0.0,0.0,0.0,0.0,0.0,0.0,0.0,-3.0161,0.0,-3.2908,-3.4728,-3.5522,-3.6784,-3.8607,-3.9332,-4.0442,-4.1951,-4.3008,-4.3924,-4.4714,-4.5523,-4.5897,-4.5897,-4.6048,-4.6122,-4.6204,-4.6332,-4.6429,-4.6501,-4.6566,-4.659,-4.6613,-4.6661,-4.6684,-4.6725,0.0,-3.4074,0.0,0.0,-3.5964,-3.6854,-3.7727,-3.8716,-3.9424,-3.9626,-4.0762,-4.1647,-4.1866,-4.2464,-4.2805,-4.2764,-4.2764,-4.2706,-4.2588,-4.2588,-4.2261,-4.1534,-4.1336,-4.0558,-3.9135,-3.8681,-3.7823,0.0,0.0,0.0,-3.4631,0.0,0.0,0.0,0.0,0.0,0.0,0.0,-4.1563,-4.2562,-4.287,-4.3597,-4.4448,-4.4492,-4.4749,-4.5001,-4.4167,-4.3654,-4.3168,-4.195,-4.0851,-3.993,-3.9702,-3.9415,-3.9076,-3.8497,-3.8025,-3.7402,-3.6142,-3.5684,-3.5364,-3.4578,-3.395,-3.3452,-3.3265,-3.2255,-3.1169,-3.0457,-2.9608,-2.84,-2.6393,-2.5542,-2.4821,0.0,0.0,0.0,0.0,0.0,0.0,0.0,0.0,0.0,-2.5395,0.0,0.0,0.0,0.0,0.0,-2.9986,0.0,-3.2172,-3.4391,-3.4638,-3.5706,-3.7703,-3.8583,-3.9709,-4.1029,-4.2478,-4.3607,-4.4414,-4.5179,-4.5613,-4.577,-4.5897,-4.5972,-4.6023,-4.6228,-4.6326,-4.6374,-4.6471,-4.6518,-4.6518,-4.6542,-4.6566,-4.6566,0.0,0.0,0.0,0.0,0.0,-3.8382,-3.9259,-4.0195,-4.0871,-4.1072,-4.1294,-4.1712,-4.2431,-4.2575,-4.2629,-4.2629,-4.2629,-4.2588,-4.2506,-4.2503,-4.2409,-4.2221,-4.1439,-4.0951,-4.0788,-3.9168,-3.8236,0.0,0.0,-3.5466,0.0,0.0,0.0,0.0,0.0,-3.9317,-4.0135,-4.173,-4.2405,-4.2532,-4.3818,-4.4309,-4.4389,-4.4913,-4.4991,-4.4786,-4.4518,-4.3911,-4.3144,-4.2785,-4.1588,-4.0155,-3.9524,-3.9121,-3.8816,-3.8778,-3.8259,-3.7517,-3.6659,-3.5922,-3.5187,-3.4203,-3.3901,-3.365,-3.2857,-3.2103,-3.1413,-3.0767,-2.9581,-2.821,-2.6711,-2.629,-2.5714,0.0,0.0,0.0,0.0,0.0,0.0,0.0,0.0,0.0,0.0,-2.5263,0.0,0.0,-2.7138,0.0,0.0,-2.996,-3.106,-3.3276,-3.4118,-3.5271,-3.6815,-3.8148,-3.9227,-4.0037,-4.1466,-4.2558,-4.3377,-4.4246,-4.4982,-4.5632,-4.5744,-4.5897,-4.5998,-4.6023,-4.6122,-4.6221,-4.6221,-4.6246,-4.6246,-4.6374,-4.6405,-4.6405,0.0,0.0,0.0,0.0,0.0,0.0,0.0,-4.0607,-4.1082,-4.1644,-4.1922,-4.2207,-4.2554,-4.2609,-4.257,-4.2546,-4.2546,-4.2506,-4.2405,-4.2366,-4.2325,-4.2205,-4.184,-4.1384,-4.0778,-4.0058,-3.9183,0.0,0.0,0.0,0.0,0.0,-3.6485,-3.7663,-3.8955,-3.9768,-4.0195,-4.1812,-4.2671,-4.3013,-4.3998,-4.4578,-4.4835,-4.493,-4.4814,-4.4603,-4.4435,-4.4039,-4.3526,-4.2829,-4.1598,-4.0238,-3.9891,-3.9248,-3.8683,-3.8683,-3.8377,-3.782,-3.7069,-3.626,-3.5444,-3.4589,-3.4092,-3.3707,-3.3342,-3.2709,-3.2014,-3.1366,-2.9762,-2.8319,-2.7742,-2.691,-2.6118,-2.5543,0.0,0.0,0.0,0.0,0.0,0.0,0.0,0.0,0.0,0.0,0.0,0.0,0.0,0.0,0.0,-2.9726,-3.0837,-3.3117,-3.4026,-3.4911,-3.5928,-3.7776,-3.8789,-3.9032,-4.0875,-4.2165,-4.2937,-4.3846,-4.4751,-4.5589,-4.5658,-4.5761,-4.5871,-4.5871,-4.5897,-4.5947,-4.5947,-4.5947,-4.5972,-4.6122,-4.6154,-4.6154,-3.7649,0.0,-3.82,0.0,-3.9446,-3.9838,-4.076,-4.0972,-4.1269,-4.1913,-4.2216,-4.2364,-4.2427,-4.245,-4.243,-4.2384,-4.2425,-4.2366,-4.2246,-4.2246,-4.2184,-4.2097,-4.2019,0.0,-4.0969,-4.0697,-3.9965,-3.8751,-3.8339,0.0,0.0,-3.7076,-3.7413,-3.8256,-3.9408,-4.0175,-4.0764,-4.2072,-4.3006,-4.3619,-4.4294,-4.4783,-4.5059,-4.4886,-4.4648,-4.4418,-4.431,-4.4097,-4.3785,-4.3032,-4.189,-4.0727,-4.0146,-3.9462,-3.8808,-3.8541,-3.8351,-3.8019,-3.7239,-3.6593,-3.5874,-3.4883,-3.4303,-3.3872,-3.3654,-3.3039,-3.2258,-3.1325,-2.9916,-2.8732,-2.8297,-2.738,-2.6666,-2.6439,0.0,0.0,0.0,-2.5305,0.0,0.0,-2.5429,-2.5581,-2.5787,-2.595,0.0,0.0,0.0,0.0,0.0,-2.973,-3.0888,-3.2967,-3.3817,-3.4577,-3.5255,-3.7386,-3.8431,-3.8363,-4.0329,-4.1766,-4.274,-4.3853,-4.4775,-4.5485,-4.5485,-4.5589,-4.5744,-4.5744,-4.577,-4.5795,-4.5795,-4.5795,-4.5795,-4.5897,-4.5947,-4.5947,-3.8351,-3.8499,-3.8876,-3.9754,-4.0006,-4.0441,-4.142,-4.1587,-4.1692,-4.1945,-4.2005,-4.2005,-4.2005,-4.2076,-4.2103,-4.2103,-4.2225,-4.2246,-4.2103,-4.2103,-4.2079,0.0,0.0,-4.1801,-4.1801,-4.0954,-4.042,-4.0272,0.0,0.0,-3.8772,-3.8644,-3.8957,-3.9687,-3.983,-4.0677,-4.2033,-4.2908,-4.3611,-4.4156,-4.4894,-4.5015,-4.4803,-4.4803,-4.4592,-4.4265,-4.4155,-4.4027,-4.3868,-4.3492,-4.2805,-4.1802,-4.0221,-3.9621,-3.9331,-3.8476,-3.8209,-3.8019,-3.7126,-3.6906,-3.6498,-3.4886,-3.4509,-3.4265,-3.3493,-3.2797,-3.1871,-3.035,-2.9988,-2.9524,-2.7991,-2.7703,-2.7484,-2.6807,-2.6121,0.0,0.0,0.0,0.0,0.0,-2.5178,-2.5371,-2.5578,-2.5616,0.0,0.0,0.0,0.0,0.0,0.0,-3.1149,-3.2559,-3.3465,-3.4237,-3.4886,-3.7103,-3.8213,-3.823,-3.9768,-4.1271,-4.2731,-4.4278,-4.5069,-4.5203,-4.5203,-4.5353,-4.5607,-4.5607,-4.5667,-4.5795,-4.5795,-4.5795,-4.5795,-4.5795,-4.5795,-4.5795,-3.8819,-3.9087,-3.9496,-4.0417,-4.0689,-4.0914,-4.1265,-4.134,-4.1363,-4.1453,-4.1538,-4.16,-4.16,-4.1862,-4.203,0.0,-4.2072,-4.2072,0.0,-4.203,-4.197,-4.1862,-4.1819,-4.1758,-4.167,-4.1292,-4.0836,-4.0307,-3.9847,-3.9292,-3.8679,-3.9134,-3.9474,-3.975,-4.0849,-4.1591,-4.2078,-4.3321,-4.3933,-4.4147,-4.4714,-4.4886,-4.4776,-4.4553,-4.4338,-4.4155,-4.3998,-4.3852,-4.3628,-4.3295,-4.3026,-4.2493,-4.0788,-3.9803,-3.9153,-3.8402,-3.8036,-3.7799,-3.7517,-3.7017,-3.6397,-3.5827,-3.4948,-3.4148,-3.3795,-3.2812,-3.1815,-3.1326,-3.0498,-2.9708,-2.9231,-2.8334,-2.7617,-2.7415,-2.6823,0.0,-2.6364,0.0,-2.6193,0.0,-2.6388,-2.6533,-2.6677,-2.6901,0.0,0.0,0.0,0.0,0.0,-3.0031,-3.0921,-3.242,-3.3308,-3.4138,-3.4886,-3.6996,-3.801,-3.795,-3.9483,-4.1053,-4.2593,-4.3632,-4.4463,-4.5059,-4.5059,-4.515,-4.5327,-4.5327,-4.5406,-4.5528,-4.5528,-4.5528,-4.5554,-4.5632,-4.5667,-4.5684,-3.9498,-3.9712,-3.9994,-4.0642,-4.0864,-4.0982,-4.1065,-4.1134,-4.118,-4.1209,-4.1255,-4.1318,-4.1318,-4.156,-4.1754,-4.1902,-4.1984,-4.1984,-4.1923,-4.1923,-4.188,-4.1736,-4.1714,-4.1648,-4.1538,-4.1448,-4.1131,-4.061,-4.0371,-4.0014,-3.9457,-3.9922,-4.0284,-4.0595,-4.1512,-4.2245,-4.2831,-4.3666,-4.4144,-4.4382,-4.4671,-4.472,-4.4609,-4.4395,-4.4184,-4.4027,-4.3927,-4.3763,-4.3568,-4.3204,-4.3113,-4.279,-4.1054,-4.004,-3.936,-3.8367,-3.7905,-3.7671,-3.7642,-3.7178,-3.6621,-3.6297,-3.5472,-3.4617,-3.4036,-3.3026,-3.2122,-3.1804,-3.1063,-3.0307,-2.9769,-2.8923,-2.8256,-2.7992,-2.7403,-2.6969,-2.6969,0.0,-2.6654,0.0,0.0,-2.7008,-2.7121,-2.7353,-2.7653,0.0,0.0,0.0,0.0,-3.0453,-3.1338,-3.2638,-3.3461,-3.4249,-3.5033,-3.6897,-3.7766,-3.7704,-3.9514,-4.1041,-4.2373,-4.3179,-4.4034,-4.4923,-4.4923,-4.5005,-4.5123,-4.5123,-4.5167,-4.5264,-4.5264,-4.5291,-4.5344,-4.5406,-4.5485,-4.5528,-4.0213,-4.0305,-4.0337,-4.0461,-4.06,-4.0721,-4.0847,-4.1,-4.1099,-4.1163,-4.1186,-4.1186,-4.1186,-4.1209,-4.1346,-4.1736,-4.188,-4.1902,-4.178,-4.1797,-4.1714,-4.1582,-4.1582,-4.1515,-4.1403,-4.138,-4.1284,-4.1087,-4.0959,-4.0912,-4.0912,-4.0888,-4.1285,-4.1992,-4.1896,-4.2705,-4.4095,-4.3989,-4.4282,-4.4803,-4.4776,-4.4564,-4.431,-4.4281,-4.4126,-4.3898,-4.3898,-4.3763,-4.3539,-4.3204,-4.3096,-4.279,-4.1054,-4.0303,-3.982,-3.832,-3.7788,-3.7642,-3.751,-3.7329,-3.7037,-3.6395,-3.6044,-3.5521,-3.4166,-3.3372,-3.2691,-3.1843,-3.163,-3.116,-2.9781,-2.9448,-2.9187,-2.8581,-2.7919,-2.7473,-2.7473,-2.6995,-2.6638,0.0,0.0,-2.7058,-2.7129,-2.7264,-2.7705,0.0,0.0,0.0,0.0,-3.1226,-3.2257,-3.306,-3.3812,-3.4565,-3.5358,-3.6781,-3.7559,-3.7693,-3.9728,-4.1171,-4.2095,-4.2795,-4.372,-4.4776,-4.4776,-4.4858,-4.4978,-4.4978,-4.4978,-4.5005,-4.5005,-4.5086,-4.5194,-4.5194,-4.5274,-4.5371,-3.9977,-4.0155,-4.0305,-4.0337,-4.0461,-4.0558,-4.0583,-4.0721,-4.0793,-4.0817,-4.1006,-4.1123,-4.1123,-4.1157,-4.1232,-4.1323,-4.1453,-4.156,-4.1648,-4.1648,-4.1582,-4.1448,-4.1448,-4.1386,-4.1255,-4.1215,-4.1117,-4.0959,-4.0912,-4.0912,-4.0912,-4.0793,-4.114,-4.1879,-4.2295,-4.3031,-4.3972,-4.4402,-4.4678,-4.4776,-4.4508,-4.4367,-4.4281,-4.4068,-4.3956,-4.3868,-4.3734,-4.3568,-4.3402,-4.3174,-4.3021,-4.267,-4.101,-4.0303,-3.982,-3.832,-3.773,-3.7494,-3.7329,-3.7254,-3.7087,-3.6674,-3.6088,-3.5226,-3.3851,-3.3403,-3.3067,-3.236,-3.1805,-3.1343,-3.1008,-3.0089,-2.9341,-2.9196,-2.8611,-2.8165,-2.8165,-2.8051,-2.799,0.0,-2.8249,-2.8388,-2.8456,-2.8661,-2.8898,-2.9118,0.0,-3.027,-3.0668,-3.199,-3.2751,-3.2802,-3.36,-3.4724,-3.6145,-3.7032,-3.8078,-3.9184,-3.9606,-4.0568,-4.1959,-4.2219,-4.3092,-4.4423,-4.4581,-4.472,-4.4858,-4.4858,-4.4913,-4.5005,-4.5005,-4.5005,-4.5059,-4.5059,-4.5059,-4.5086,-3.9798,-3.9977,-4.013,-4.013,-4.0263,-4.0412,-4.0412,-4.051,-4.0624,-4.0624,-4.0793,-4.0929,-4.0929,-4.1012,-4.1088,-4.1152,-4.1249,-4.134,-4.1408,-4.1431,-4.1386,-4.1318,-4.1318,-4.1249,-4.1152,-4.1117,-4.1047,-4.0912,-4.084,-4.0817,-4.0817,-4.0673,-4.1165,-4.2227,-4.2484,-4.3233,-4.4333,-4.4595,-4.4665,-4.4564,-4.4367,-4.4224,-4.4097,-4.3956,-4.3839,-4.3763,-4.3628,-4.3492,-4.3372,-4.3174,-4.3007,-4.2624,-4.101,-4.0303,-3.982,-3.832,-3.77,-3.7464,-3.7254,-3.718,-3.7029,-3.6693,-3.6045,-3.5276,-3.4418,-3.3744,-3.3192,-3.2754,-3.2142,-3.1576,-3.127,-3.0601,-3.0046,-2.9817,-2.9449,-2.9244,-2.931,-2.9294,-2.9344,-2.9419,-2.9543,-2.965,-2.9765,-2.995,-3.0093,-3.0164,-3.0633,-3.0975,-3.1133,-3.2192,-3.2886,-3.3011,-3.3806,-3.4818,-3.6017,-3.7061,-3.8207,-3.9372,-3.9309,-4.017,-4.1821,-4.1887,-4.2802,-4.431,-4.4412,-4.457,-4.4709,-4.4709,-4.4765,-4.4803,-4.4803,-4.4858,-4.4913,-4.4913,-4.4968,-4.5005,-3.9668,-3.9798,-3.9875,-3.9901,-4.0104,-4.0255,-4.028,-4.0387,-4.0485,-4.0485,-4.06,-4.0673,-4.0673,-4.0752,-4.0888,-4.1023,-4.1105,-4.114,-4.1209,-4.1209,-4.1209,-4.1203,-4.1186,-4.1152,-4.107,-4.107,-4.1,-4.0864,-4.0745,-4.0697,-4.0673,-4.0534,-4.1195,-4.2501,-4.249,-4.327,-4.4595,-4.4575,-4.4468,-4.431,-4.4253,-4.4097,-4.3898,-4.3868,-4.3763,-4.3598,-4.3598,-4.3479,-4.3342,-4.3143,-4.2976,-4.2577,-4.101,-4.0303,-3.982,-3.832,-3.77,-3.7464,-3.7254,-3.7089,-3.6877,-3.6585,-3.6061,-3.5538,-3.5263,-3.4209,-3.3264,-3.3027,-3.2452,-3.183,-3.1253,-3.1071,-3.084,-3.038,-3.025,-3.0241,-3.0334,-3.0402,-3.0402,-3.0402,-3.0516,-3.0654,-3.074,-3.0898,-3.1024,-3.1124,-3.1351,-3.1498,-3.1522,-3.229,-3.298,-3.3583,-3.4235,-3.5045,-3.5906,-3.7216,-3.8236,-3.8969,-3.8996,-3.9935,-4.1638,-4.1683,-4.2635,-4.4281,-4.431,-4.4412,-4.4615,-4.4615,-4.4615,-4.4615,-4.4615,-4.4682,-4.4776,-4.4776,-4.4831,-4.4923,-3.9528,-3.9642,-3.9755,-3.9875,-3.9926,-3.9986,-4.0113,-4.0238,-4.033,-4.033,-4.0436,-4.0534,-4.0534,-4.0558,-4.0607,-4.0745,-4.0769,-4.0918,-4.1186,-4.1209,-4.118,-4.1117,-4.1117,-4.107,-4.0935,-4.0935,-4.0864,-4.0721,-4.0697,-4.0648,-4.0534,-4.0387,-4.0772,-4.1605,-4.2121,-4.2804,-4.3639,-4.4125,-4.4338,-4.4281,-4.4039,-4.3927,-4.3898,-4.3704,-4.3628,-4.3598,-4.3462,-4.3312,-4.3113,-4.2976,-4.279,-4.2391,-4.0934,-4.0303,-3.982,-3.832,-3.77,-3.7464,-3.7254,-3.6983,-3.6693,-3.6554,-3.6306,-3.5936,-3.534,-3.4516,-3.3696,-3.3134,-3.2452,-3.1966,-3.186,-3.1374,-3.0964,-3.0885,-3.0491,-3.0215,-3.0215,-3.0334,-3.0402,-3.0402,-3.0516,-3.0618,-3.0629,-3.0746,-3.0838,-3.0863,-3.1516,-3.1958,-3.207,-3.2879,-3.3702,-3.4477,-3.4865,-3.5821,-3.7363,-3.8215,-3.869,-3.8832,-3.8942,-3.9809,-4.1295,-4.1582,-4.2595,-4.4126,-4.4253,-4.4412,-4.4615,-4.4615,-4.4615,-4.4615,-4.4615,-4.4598,-4.4626,-4.4626,-4.4654,-4.4654,-3.9379,-3.9511,-3.9616,-3.9668,-3.9746,-3.9833,-3.9961,-4.0037,-4.0104,-4.0188,-4.0313,-4.0387,-4.0387,-4.0461,-4.0534,-4.0583,-4.0583,-4.0655,-4.0813,-4.0971,-4.1035,-4.0982,-4.0982,-4.0959,-4.0912,-4.084,-4.0769,-4.0697,-4.0551,-4.0436,-4.0387,-4.0263,-4.0595,-4.1324,-4.1991,-4.2655,-4.335,-4.4018,-4.4224,-4.4068,-4.3956,-4.3839,-4.3734,-4.3628,-4.3568,-4.3462,-4.3402,-4.3221,-4.2976,-4.293,-4.2775,-4.2344,-4.095,-4.0363,-3.9895,-3.835,-3.7626,-3.73,-3.7135,-3.6907,-3.6662,-3.6523,-3.6352,-3.6088,-3.572,-3.4987,-3.4167,-3.3412,-3.2734,-3.2162,-3.1801,-3.1485,-3.1302,-3.1401,-3.1268,-3.1192,-3.1274,-3.1382,-3.149,-3.149,-3.1528,-3.1581,-3.1677,-3.1745,-3.1798,-3.1919,-3.2279,-3.266,-3.3074,-3.3565,-3.42,-3.5006,-3.5748,-3.6507,-3.7373,-3.8103,-3.8544,-3.8683,-3.8738,-3.9631,-4.121,-4.1368,-4.238,-4.3998,-4.4056,-4.4212,-4.444,-4.444,-4.444,-4.444,-4.444,-4.4384,-4.4344,-4.4344,-4.4344,-4.4344,-3.9299,-3.9379,-3.9458,-3.9501,-3.959,-3.9703,-3.9833,-3.9833,-3.9884,-4.0037,-4.0138,-4.023,-4.0238,-4.0337,-4.0436,-4.0461,-4.0461,-4.0461,-4.051,-4.0704,-4.0823,-4.0864,-4.0871,-4.0888,-4.0847,-4.0745,-4.0673,-4.06,-4.0404,-4.0263,-4.0238,-4.0163,-4.0417,-4.0984,-4.1871,-4.2517,-4.2986,-4.3855,-4.4097,-4.3898,-4.3868,-4.3734,-4.3598,-4.3568,-4.3509,-4.3372,-4.3312,-4.3115,-4.2899,-4.2837,-4.2728,-4.2344,-4.095,-4.0423,-3.9985,-3.8379,-3.7596,-3.724,-3.706,-3.6908,-3.6739,-3.6554,-3.632,-3.6116,-3.6037,-3.5285,-3.4419,-3.3665,-3.2976,-3.2288,-3.163,-3.1511,-3.1539,-3.1698,-3.1883,-3.2053,-3.215,-3.2302,-3.2398,-3.2398,-3.2398,-3.2425,-3.2551,-3.2551,-3.2683,-3.299,-3.3049,-3.3388,-3.4057,-3.4197,-3.4663,-3.5483,-3.6405,-3.7014,-3.7287,-3.7833,-3.8266,-3.852,-3.8532,-3.945,-4.1111,-4.1152,-4.2162,-4.3822,-4.3868,-4.4027,-4.4253,-4.4253,-4.4253,-4.4253,-4.4253,-4.4196,-4.4097,-4.4097,-4.4097,-4.4097,-3.9299,-3.9299,-3.9352,-3.9475,-3.9528,-3.9563,-3.9677,-3.9703,-3.9755,-3.9901,-3.9926,-3.9977,-4.0096,-4.0121,-4.0188,-4.0288,-4.0313,-4.0379,-4.0485,-4.0534,-4.0583,-4.0697,-4.084,-4.084,-4.0721,-4.0697,-4.0576,-4.033,-4.0305,-4.0255,-4.0096,-4.0096,-4.013,-4.0248,-4.1546,-4.2122,-4.2246,-4.3425,-4.3927,-4.3898,-4.3704,-4.3628,-4.3598,-4.3462,-4.3419,-4.3358,-4.3054,-4.293,-4.2868,-4.2665,-4.2602,-4.2344,-4.095,-4.0423,-3.9985,-3.8379,-3.77,-3.7421,-3.7106,-3.6984,-3.6908,-3.6585,-3.6273,-3.6005,-3.6005,-3.5237,-3.4324,-3.3634,-3.2976,-3.2288,-3.163,-3.1511,-3.1511,-3.1511,-3.1798,-3.1981,-3.2025,-3.2247,-3.2398,-3.2398,-3.2398,-3.2398,-3.2425,-3.2425,-3.2687,-3.3319,-3.3522,-3.3916,-3.4614,-3.4774,-3.5245,-3.6111,-3.6619,-3.7198,-3.7838,-3.7902,-3.802,-3.8221,-3.8351,-3.9267,-4.0841,-4.1083,-4.2076,-4.3628,-4.3839,-4.3969,-4.4126,-4.4126,-4.4126,-4.4126,-4.4126,-4.4097,-4.4097,-4.4097,-4.4097,-4.4097,-3.9094,-3.9121,-3.9175,-3.9352,-3.9395,-3.9405,-3.9563,-3.9563,-3.9616,-3.9755,-3.9798,-3.9781,-3.9858,-3.9841,-3.9884,-3.991,-3.9986,-4.0062,-4.0113,-4.0288,-4.0436,-4.0558,-4.0631,-4.0631,-4.0583,-4.0485,-4.0404,-4.0305,-4.0213,-4.0163,-4.0096,-4.0096,-4.0062,-4.0028,-4.1459,-4.1997,-4.1938,-4.3322,-4.3839,-4.3704,-4.3628,-4.3568,-4.3462,-4.3402,-4.3267,-4.3084,-4.293,-4.2837,-4.2696,-4.2634,-4.2311,-4.1808,-4.0804,-4.0175,-3.957,-3.828,-3.7759,-3.7524,-3.7121,-3.7015,-3.6908,-3.6585,-3.6258,-3.6005,-3.6005,-3.5537,-3.4921,-3.4247,-3.3589,-3.2916,-3.2228,-3.178,-3.1511,-3.1511,-3.1783,-3.1996,-3.1996,-3.2247,-3.2398,-3.2398,-3.2398,-3.2552,-3.2982,-3.3013,-3.3321,-3.4014,-3.4162,-3.45,-3.5179,-3.5716,-3.6223,-3.6699,-3.6878,-3.7225,-3.7759,-3.7788,-3.7847,-3.802,-3.8193,-3.9095,-4.0631,-4.0854,-4.1875,-4.3479,-4.3568,-4.3734,-4.3985,-4.3985,-4.3985,-4.3985,-4.3985,-4.391,-4.3776,-4.3776,-4.3776,-4.3776,-3.8914,-3.8942,-3.8969,-3.9121,-3.9191,-3.9245,-3.9325,-3.9405,-3.9501,-3.9616,-3.9642,-3.9651,-3.9703,-3.9703,-3.9703,-3.9703,-3.9781,-3.9849,-3.9849,-4.0054,-4.0263,-4.0485,-4.051,-4.0485,-4.0436,-4.0355,-4.028,-4.0238,-4.0163,-4.0096,-4.0096,-4.0096,-4.0037,-3.9968,-4.1396,-4.1904,-4.1788,-4.3207,-4.3704,-4.3539,-4.3539,-4.3432,-4.3312,-4.3251,-4.3115,-4.2899,-4.2837,-4.2728,-4.2602,-4.2602,-4.2148,-4.1482,-4.0723,-3.9836,-3.8924,-3.8136,-3.7817,-3.7599,-3.7121,-3.7015,-3.6908,-3.6585,-3.6258,-3.6005,-3.6005,-3.5733,-3.531,-3.4653,-3.4113,-3.3604,-3.2946,-3.2452,-3.2153,-3.2212,-3.2264,-3.2329,-3.2357,-3.2397,-3.2398,-3.2398,-3.2582,-3.289,-3.3352,-3.3598,-3.4029,-3.4767,-3.4813,-3.5121,-3.5799,-3.6322,-3.6739,-3.6908,-3.6908,-3.7075,-3.748,-3.7524,-3.7642,-3.7847,-3.7963,-3.8875,-4.0453,-4.0618,-4.1667,-4.3312,-4.3372,-4.3539,-4.3809,-4.3809,-4.3809,-4.3809,-4.3809,-4.3734,-4.3598,-4.3598,-4.3598,-4.3598,-3.8805,-3.8805,-3.8805,-3.8805,-3.8914,-3.8996,-3.8996,-3.9175,-3.9352,-3.9475,-3.9501,-3.9537,-3.9677,-3.9703,-3.9703,-3.9703,-3.9703,-3.9703,-3.9703,-3.9807,-4.0079,-4.0485,-4.051,-4.0436,-4.0305,-4.0305,-4.0238,-4.0096,-4.0096,-4.0096,-4.0096,-4.0096,-4.0037,-3.9968,-4.1305,-4.181,-4.1788,-4.3044,-4.3539,-4.3402,-4.3402,-4.3281,-4.3066,-4.2945,-4.2899,-4.2868,-4.2665,-4.2602,-4.2602,-4.2602,-4.2148,-4.1466,-4.0707,-3.9437,-3.8164,-3.7963,-3.7817,-3.7583,-3.7121,-3.7015,-3.6908,-3.6585,-3.6258,-3.6005,-3.6005,-3.5733,-3.531,-3.4653,-3.4503,-3.4309,-3.3619,-3.3499,-3.3561,-3.3774,-3.335,-3.3056,-3.32,-3.276,-3.2413,-3.2413,-3.2998,-3.3413,-3.3413,-3.406,-3.4782,-3.543,-3.5491,-3.5784,-3.6461,-3.6492,-3.6554,-3.6693,-3.6693,-3.68,-3.7015,-3.7119,-3.7389,-3.77,-3.77,-3.8626,-4.0305,-4.0453,-4.1455,-4.3113,-4.3312,-4.3462,-4.3598,-4.3598,-4.3598,-4.3598,-4.3598,-4.3598,-4.3598,-4.3598,-4.3598,-4.3598,-3.8644,-3.8672,-3.8683,-3.8777,-3.8832,-3.886,-3.886,-3.8914,-3.8942,-3.8996,-3.9094,-3.9158,-3.9212,-3.9335,-3.9432,-3.9432,-3.9511,-3.9616,-3.9703,-3.9729,-3.9807,-3.9918,-4.0138,-4.0213,-4.0163,-4.0163,-4.0138,-4.0096,-4.0096,-4.0096,-4.0096,-4.0011,-3.9884,-3.9822,-4.1143,-4.1671,-4.1569,-4.291,-4.3449,-4.3372,-4.3235,-4.3099,-4.2961,-4.293,-4.2806,-4.2665,-4.2634,-4.2602,-4.2602,-4.2602,-4.1824,-4.061,-3.9412,-3.8703,-3.8278,-3.7992,-3.7876,-3.773,-3.7151,-3.7015,-3.6908,-3.6585,-3.6258,-3.6005,-3.6005,-3.5733,-3.5444,-3.5235,-3.4848,-3.4475,-3.4359,-3.3999,-3.3758,-3.394,-3.3907,-3.3844,-3.3903,-3.388,-3.3873,-3.3873,-3.4058,-3.4308,-3.4634,-3.485,-3.5217,-3.5812,-3.5842,-3.5918,-3.6132,-3.6258,-3.6519,-3.7026,-3.6722,-3.6863,-3.7468,-3.7187,-3.7165,-3.7344,-3.7433,-3.8356,-3.997,-4.0228,-4.1229,-4.2743,-4.2945,-4.3207,-4.3462,-4.3462,-4.3509,-4.3598,-4.3598,-4.3598,-4.3598,-4.3598,-4.3598,-4.3598,-3.8504,-3.8504,-3.8532,-3.8628,-3.8683,-3.8711,-3.8711,-3.875,-3.8805,-3.8805,-3.8887,-3.9029,-3.9309,-3.9468,-3.9567,-3.9621,-3.9491,-3.9458,-3.9537,-3.9573,-3.9616,-3.9616,-3.9833,-3.9935,-3.9935,-3.9986,-4.0011,-4.0011,-4.007,-4.007,-4.0011,-3.9952,-3.9798,-3.9666,-4.0761,-4.1305,-4.1463,-4.2508,-4.3095,-4.3281,-4.3082,-4.2914,-4.2775,-4.2775,-4.2696,-4.2602,-4.2602,-4.2602,-4.2554,-4.2279,-4.1274,-3.9897,-3.8764,-3.8391,-3.8335,-3.7992,-3.7905,-3.7759,-3.7151,-3.7015,-3.6908,-3.6476,-3.6195,-3.6005,-3.6005,-3.5733,-3.5504,-3.5504,-3.5224,-3.5005,-3.5085,-3.4846,-3.4713,-3.4851,-3.4714,-3.4621,-3.4696,-3.46,-3.4475,-3.4401,-3.4617,-3.4864,-3.511,-3.5354,-3.5658,-3.5975,-3.6005,-3.6127,-3.6368,-3.6479,-3.6801,-3.7456,-3.7284,-3.7413,-3.7894,-3.7683,-3.7561,-3.7527,-3.7679,-3.8602,-4.0135,-4.0384,-4.1272,-4.2602,-4.2728,-4.2976,-4.3281,-4.3281,-4.3342,-4.3402,-4.3402,-4.3402,-4.3402,-4.3402,-4.3402,-4.3402,-3.8391,-3.8391,-3.8391,-3.8391,-3.8504,-3.856,-3.856,-3.8683,-3.8777,-3.8777,-3.8777,-3.9056,-3.9792,-3.9886,-3.9992,-4.0153,-3.9676,-3.9338,-3.9272,-3.9379,-3.9458,-3.9475,-3.9616,-3.9651,-3.9651,-3.9824,-3.9875,-3.9875,-4.0011,-4.0011,-3.9875,-3.9875,-3.972,-3.9534,-4.0257,-4.0873,-4.1402,-4.2034,-4.2594,-4.3082,-4.2914,-4.2759,-4.2602,-4.2602,-4.2602,-4.2602,-4.2602,-4.2554,-4.2392,-4.1646,-4.0575,-3.9376,-3.8634,-3.8391,-3.8323,-3.7992,-3.7905,-3.7759,-3.7151,-3.7015,-3.6877,-3.6336,-3.6085,-3.6005,-3.5973,-3.5748,-3.5504,-3.5537,-3.5621,-3.572,-3.5752,-3.5894,-3.6068,-3.6211,-3.5722,-3.5385,-3.5568,-3.5075,-3.4615,-3.4406,-3.4912,-3.5232,-3.5063,-3.5609,-3.5941,-3.5941,-3.6002,-3.6305,-3.691,-3.7001,-3.7319,-3.7955,-3.8111,-3.8211,-3.8272,-3.8391,-3.833,-3.806,-3.8247,-3.9125,-4.0561,-4.0721,-4.1406,-4.2539,-4.2571,-4.2743,-4.3052,-4.3082,-4.3082,-4.3113,-4.3113,-4.3113,-4.3113,-4.3113,-4.3113,-4.3113,-3.8391,-3.8391,-3.8391,-3.8391,-3.842,-3.8448,-3.8448,-3.8476,-3.8476,-3.8476,-3.8588,-3.8921,-3.9654,-3.9834,-4.0132,-4.0767,-4.0184,-3.9566,-3.91,-3.9077,-3.9175,-3.9325,-3.9379,-3.9379,-3.9379,-3.9625,-3.9755,-3.9755,-3.9781,-3.9781,-3.9729,-3.9642,-3.9554,-3.9534,-4.0159,-4.0751,-4.1292,-4.1809,-4.2397,-4.293,-4.2728,-4.2634,-4.2602,-4.2602,-4.2602,-4.2602,-4.2602,-4.2278,-4.1644,-4.038,-3.9765,-3.9376,-3.8634,-3.8323,-3.8209,-3.7963,-3.7817,-3.7642,-3.7136,-3.7015,-3.6877,-3.6336,-3.6085,-3.5973,-3.5799,-3.5636,-3.5522,-3.5638,-3.5688,-3.5784,-3.6038,-3.6148,-3.6211,-3.6383,-3.6291,-3.623,-3.6276,-3.6153,-3.5984,-3.5799,-3.589,-3.5856,-3.5572,-3.5578,-3.5587,-3.5587,-3.6099,-3.646,-3.661,-3.7206,-3.7847,-3.8495,-3.8167,-3.8253,-3.88,-3.8455,-3.8398,-3.8615,-3.868,-3.9261,-4.0368,-4.0545,-4.1166,-4.2061,-4.2334,-4.2539,-4.2711,-4.2883,-4.3007,-4.3113,-4.3113,-4.3113,-4.3113,-4.3113,-4.3113,-4.3113,-3.8164,-3.8164,-3.8193,-3.8294,-3.8307,-3.8323,-3.8391,-3.8391,-3.8391,-3.8391,-3.8756,-3.93,-3.9998,-4.046,-4.0746,-4.0854,-4.0255,-3.9619,-3.8964,-3.8914,-3.8942,-3.9067,-3.9121,-3.9148,-3.9148,-3.9388,-3.9537,-3.9616,-3.9677,-3.9651,-3.9616,-3.9537,-3.9475,-3.9438,-3.974,-4.0365,-4.1218,-4.1422,-4.2043,-4.2868,-4.2665,-4.2602,-4.2602,-4.2602,-4.2392,-4.2132,-4.2132,-4.1452,-4.0494,-3.9765,-3.9279,-3.8893,-3.8521,-3.8323,-3.8164,-3.7963,-3.7743,-3.7478,-3.709,-3.6938,-3.6739,-3.6211,-3.6053,-3.5941,-3.5752,-3.5638,-3.5621,-3.5688,-3.5816,-3.5975,-3.6179,-3.6274,-3.6383,-3.6492,-3.6492,-3.6492,-3.6492,-3.6414,-3.6289,-3.6116,-3.6022,-3.5816,-3.5477,-3.5311,-3.5347,-3.5659,-3.6034,-3.6529,-3.7237,-3.7649,-3.8247,-3.9013,-3.8857,-3.8946,-3.9325,-3.9135,-3.9173,-3.9373,-3.9303,-3.972,-4.0558,-4.0789,-4.124,-4.1784,-4.2045,-4.2302,-4.2508,-4.2602,-4.2759,-4.2867,-4.2867,-4.2867,-4.2867,-4.2867,-4.2867,-4.2867,-3.7905,-3.7905,-3.7963,-3.8107,-3.8151,-3.8209,-3.8294,-3.8307,-3.8307,-3.8307,-3.8965,-3.9706,-4.0402,-4.1257,-4.1464,-4.0739,-4.0237,-3.9666,-3.8815,-3.875,-3.8826,-3.8985,-3.9095,-3.915,-3.915,-3.9346,-3.9458,-3.9475,-3.959,-3.9573,-3.9475,-3.9475,-3.9422,-3.9299,-3.9272,-3.9908,-4.0992,-4.0967,-4.1621,-4.2658,-4.2617,-4.2602,-4.2586,-4.2457,-4.2083,-4.1579,-4.1466,-4.0591,-3.9489,-3.936,-3.8893,-3.8391,-3.8391,-3.8278,-3.8107,-3.7963,-3.7639,-3.7314,-3.706,-3.6862,-3.66,-3.6132,-3.6005,-3.5941,-3.5735,-3.5688,-3.572,-3.5752,-3.5975,-3.6211,-3.6242,-3.6383,-3.6492,-3.6492,-3.6492,-3.6492,-3.6492,-3.6352,-3.6148,-3.6005,-3.5767,-3.5509,-3.5213,-3.5001,-3.5167,-3.5849,-3.6011,-3.6655,-3.7994,-3.8207,-3.8576,-3.9322,-3.9553,-3.9661,-3.9661,-3.9854,-3.996,-3.996,-3.9867,-4.0155,-4.0765,-4.1055,-4.1357,-4.1555,-4.1752,-4.2012,-4.2318,-4.2381,-4.2476,-4.2571,-4.2571,-4.2571,-4.2571,-4.2571,-4.2571,-4.2571,-3.7905,-3.7905,-3.7905,-3.7934,-3.7934,-3.7963,-3.7963,-3.7963,-3.7963,-3.7963,-3.8701,-3.9527,-4.0238,-4.1619,-4.1954,-4.064,-4.0459,-3.9917,-3.8697,-3.8616,-3.8961,-3.9722,-3.9783,-3.9767,-3.9767,-3.9923,-3.9765,-3.9325,-3.9352,-3.9352,-3.9325,-3.9325,-3.9325,-3.9299,-3.9121,-3.9446,-4.0111,-4.056,-4.1146,-4.1837,-4.2391,-4.2602,-4.2538,-4.1954,-4.1693,-4.1531,-4.0899,-4.014,-3.9408,-3.8748,-3.8472,-3.8391,-3.8391,-3.8193,-3.7934,-3.7905,-3.7596,-3.7194,-3.703,-3.6862,-3.66,-3.6132,-3.6005,-3.591,-3.5587,-3.5621,-3.5752,-3.5926,-3.6085,-3.6242,-3.6414,-3.6492,-3.6492,-3.6492,-3.6492,-3.6492,-3.6492,-3.6352,-3.6148,-3.6005,-3.5572,-3.5246,-3.5213,-3.5001,-3.5167,-3.5849,-3.6438,-3.7087,-3.778,-3.8551,-3.9015,-3.9141,-3.9337,-3.946,-3.946,-3.9625,-3.9732,-3.9732,-3.9905,-4.0185,-4.0558,-4.0765,-4.1055,-4.1357,-4.1555,-4.1768,-4.1996,-4.2286,-4.2413,-4.2413,-4.2413,-4.2413,-4.2413,-4.2413,-4.2413,-4.2445,-3.7687,-3.7687,-3.77,-3.7788,-3.7788,-3.7817,-3.7905,-3.7905,-3.7905,-3.7905,-3.8921,-3.9782,-4.0103,-4.1528,-4.1958,-4.0626,-4.0496,-3.9927,-3.8573,-3.8865,-3.928,-3.9646,-4.0107,-4.0348,-4.0348,-4.0099,-3.9879,-3.9649,-3.9417,-3.9299,-3.9299,-3.9175,-3.9121,-3.9121,-3.8969,-3.9214,-3.9793,-4.0062,-4.0482,-4.1061,-4.1759,-4.2035,-4.2002,-4.1725,-4.1353,-4.085,-3.9719,-3.9136,-3.8829,-3.8505,-3.8391,-3.8408,-3.8307,-3.8107,-3.7905,-3.7817,-3.7464,-3.7075,-3.7015,-3.6708,-3.6336,-3.6068,-3.5926,-3.5767,-3.5554,-3.5589,-3.5752,-3.5973,-3.6116,-3.6274,-3.646,-3.6492,-3.6492,-3.6492,-3.6492,-3.6492,-3.6492,-3.6258,-3.5973,-3.5589,-3.5231,-3.5016,-3.4931,-3.5072,-3.5439,-3.6082,-3.6754,-3.7433,-3.8157,-3.8539,-3.8811,-3.8943,-3.9017,-3.9068,-3.9068,-3.925,-3.9358,-3.9358,-3.9696,-4.0016,-4.0401,-4.0558,-4.0765,-4.1021,-4.1323,-4.1571,-4.1736,-4.2012,-4.2158,-4.2238,-4.2238,-4.2238,-4.2238,-4.2238,-4.2238,-4.2238]},{"header":{"parameterUnit":"m.s-1","parameterCategory":1,"la1":30.6,"la2":28.766,"lo1":-90.7593,"lo2":-88.6598,"dy":0.0162,"dx":0.0183,"nx":116,"ny":114,"refTime":"2023-05-07T00:00:00:Z","depth":0,"parameterNumber":3,"parameterNumberName":"V-component_of_WINDS"},"data":[0.0,0.0,0.0,0.0,0.0,0.0,0.0,0.0,0.0,0.0,0.0,0.0,0.0,0.0,0.0,0.0,0.0,0.0,0.0,0.0,0.0,0.0,0.0,0.0,0.0,0.0,0.0,0.0,0.0,0.0,0.0,0.0,0.0,0.0,0.0,0.0,0.0,0.0,0.0,0.0,0.0,0.0,0.0,0.0,0.0,0.0,0.0,0.0,0.0,0.0,0.0,0.0,0.0,0.0,0.0,0.0,0.0,0.0,0.0,0.0,0.0,0.0,0.0,0.0,0.0,0.0,0.0,0.0,0.0,0.0,0.0,0.0,0.0,0.0,0.0,0.0,0.0,0.0,0.0,0.0,0.0,0.0,0.0,0.0,0.0,0.0,0.0,0.0,0.0,0.0,0.0,0.0,0.0,0.0,0.0,0.0,0.0,0.0,0.0,0.0,0.0,0.0,0.0,0.0,0.0,0.0,0.0,0.0,0.0,0.0,0.0,0.0,0.0,0.0,0.0,0.0,0.0,0.0,0.0,0.0,0.0,0.0,0.0,0.0,0.0,0.0,0.0,0.0,0.0,0.0,0.0,0.0,0.0,0.0,0.0,0.0,0.0,0.0,0.0,0.0,0.0,0.0,0.0,0.0,0.0,0.0,0.0,0.0,0.0,0.0,0.0,0.0,0.0,0.0,0.0,0.0,0.0,0.0,0.0,0.0,0.0,0.0,0.0,0.0,0.0,0.0,0.0,0.0,0.0,0.0,0.0,0.0,0.0,0.0,0.0,0.0,0.0,0.0,0.0,0.0,0.0,0.0,0.0,0.0,0.0,0.0,0.0,0.0,0.0,0.0,0.0,0.0,0.0,0.0,0.0,0.0,0.0,0.0,0.0,0.0,0.0,0.0,0.0,0.0,0.0,0.0,0.0,0.0,0.0,0.0,0.0,0.0,0.0,0.0,0.0,0.0,0.0,0.0,0.0,0.0,0.0,0.0,0.0,0.0,0.0,0.0,0.0,0.0,0.0,0.0,0.0,0.0,0.0,0.0,0.0,0.0,0.0,0.0,0.0,0.0,0.0,0.0,0.0,0.0,0.0,0.0,0.0,0.0,0.0,0.0,0.0,0.0,0.0,0.0,0.0,0.0,0.0,0.0,0.0,0.0,0.0,0.0,0.0,0.0,0.0,0.0,0.0,0.0,0.0,0.0,0.0,0.0,0.0,0.0,0.0,0.0,0.0,0.0,0.0,0.0,0.0,0.0,0.0,0.0,0.0,0.0,0.0,0.0,0.0,0.0,0.0,0.0,0.0,0.0,0.0,0.0,0.0,0.0,0.0,0.0,0.0,0.0,0.0,0.0,0.0,0.0,0.0,0.0,0.0,0.0,0.0,0.0,0.0,0.0,0.0,0.0,0.0,0.0,0.0,0.0,0.0,0.0,0.0,0.0,0.0,0.0,0.0,0.0,0.0,0.0,0.0,0.0,0.0,0.0,0.0,0.0,0.0,0.0,0.0,0.0,0.0,0.0,0.0,0.0,0.0,0.0,0.0,0.0,0.0,0.0,0.0,0.0,0.0,0.0,0.0,0.0,0.0,0.0,0.0,0.0,0.0,0.0,0.0,0.0,0.0,0.0,0.0,0.0,0.0,0.0,0.0,0.0,0.0,0.0,0.0,0.0,0.0,0.0,0.0,0.0,0.0,0.0,0.0,0.0,0.0,0.0,0.0,0.0,0.0,0.0,0.0,0.0,0.0,0.0,0.0,0.0,0.0,0.0,0.0,0.0,0.0,0.0,0.0,0.0,0.0,0.0,0.0,0.0,0.0,0.0,0.0,0.0,0.0,0.0,0.0,0.0,0.0,0.0,0.0,0.0,0.0,0.0,0.0,0.0,0.0,0.0,0.0,0.0,0.0,0.0,0.0,0.0,0.0,0.0,0.0,0.0,0.0,0.0,0.0,0.0,0.0,0.0,0.0,0.0,0.0,0.0,0.0,0.0,0.0,0.0,0.0,0.0,0.0,0.0,0.0,0.0,0.0,0.0,0.0,0.0,0.0,0.0,0.0,0.0,0.0,0.0,0.0,0.0,0.0,0.0,0.0,0.0,0.0,0.0,0.0,0.0,0.0,0.0,0.0,0.0,0.0,0.0,0.0,0.0,0.0,0.0,0.0,0.0,0.0,0.0,0.0,0.0,0.0,0.0,0.0,0.0,0.0,0.0,0.0,0.0,0.0,0.0,0.0,0.0,0.0,0.0,0.0,0.0,0.0,0.0,0.0,0.0,0.0,0.0,0.0,0.0,0.0,0.0,0.0,0.0,0.0,0.0,0.0,0.0,0.0,0.0,0.0,0.0,0.0,0.0,0.0,0.0,0.0,0.0,0.0,0.0,0.0,0.0,0.0,0.0,0.0,0.0,0.0,0.0,0.0,0.0,0.0,0.0,0.0,0.0,0.0,0.0,0.0,0.0,0.0,0.0,0.0,0.0,0.0,0.0,0.0,0.0,0.0,0.0,0.0,0.0,0.0,0.0,0.0,0.0,0.0,0.0,0.0,0.0,0.0,0.0,0.0,0.0,0.0,0.0,0.0,0.0,0.0,0.0,0.0,0.0,0.0,0.0,0.0,0.0,0.0,0.0,0.0,0.0,0.0,0.0,0.0,0.0,0.0,0.0,0.0,0.0,0.0,0.0,0.0,0.0,0.0,0.0,0.0,0.0,0.0,0.0,0.0,0.0,0.0,0.0,0.0,0.0,0.0,0.0,0.0,0.0,0.0,0.0,0.0,0.0,0.0,0.0,0.0,0.0,0.0,0.0,0.0,0.0,0.0,0.0,0.0,0.0,0.0,0.0,0.0,0.0,0.0,0.0,0.0,0.0,0.0,0.0,0.0,0.0,0.0,0.0,0.0,0.0,0.0,0.0,0.0,0.0,0.0,0.0,0.0,0.0,0.0,0.0,0.0,0.0,0.0,0.0,0.0,0.0,0.0,0.0,0.0,0.0,0.0,0.0,0.0,0.0,0.0,0.0,0.0,0.0,0.0,0.0,0.0,0.0,0.0,0.0,0.0,0.0,0.0,0.0,0.0,0.0,0.0,0.0,0.0,0.0,0.0,0.0,0.0,0.0,0.0,0.0,0.0,0.0,0.0,0.0,0.0,0.0,0.0,0.0,0.0,0.0,0.0,0.0,0.0,0.0,0.0,0.0,0.0,0.0,0.0,0.0,0.0,0.0,0.0,0.0,0.0,0.0,0.0,0.0,0.0,0.0,0.0,0.0,0.0,0.0,0.0,0.0,0.0,0.0,0.0,0.0,0.0,0.0,0.0,0.0,0.0,0.0,0.0,0.0,0.0,0.0,0.0,0.0,0.0,0.0,0.0,0.0,0.0,0.0,0.0,0.0,0.0,0.0,0.0,0.0,0.0,0.0,0.0,0.0,0.0,0.0,0.0,0.0,0.0,0.0,0.0,0.0,0.0,0.0,0.0,0.0,0.0,0.0,0.0,0.0,0.0,0.0,0.0,0.0,0.0,0.0,0.0,0.0,0.0,0.0,0.0,0.0,0.0,0.0,0.0,0.0,0.0,0.0,0.0,0.0,0.0,0.0,0.0,0.0,0.0,0.0,0.0,0.0,0.0,0.0,0.0,0.0,0.0,0.0,0.0,0.0,0.0,0.0,0.0,0.0,0.0,0.0,0.0,0.0,0.0,0.0,0.0,0.0,0.0,0.0,0.0,0.0,0.0,0.0,0.0,0.0,0.0,0.0,0.0,0.0,0.0,0.0,0.0,0.0,0.0,0.0,0.0,0.0,0.0,0.0,0.0,0.0,0.0,0.0,0.0,0.0,0.0,0.0,0.0,0.0,0.0,0.0,0.0,0.0,0.0,0.0,0.0,0.0,0.0,0.0,0.0,0.0,0.0,0.0,0.0,0.0,0.0,0.0,0.0,0.0,0.0,0.0,0.0,0.0,0.0,0.0,0.0,0.0,0.0,0.0,0.0,0.0,0.0,0.0,0.0,0.0,0.0,0.0,0.0,0.0,0.0,0.0,0.0,0.0,0.0,0.0,0.0,0.0,0.0,0.0,0.0,0.0,0.0,0.0,0.0,0.0,0.0,0.0,0.0,0.0,0.0,0.0,0.0,0.0,0.0,0.0,0.0,0.0,0.0,0.0,0.0,0.0,0.0,0.0,0.0,0.0,0.0,0.0,0.0,0.0,0.0,0.0,0.0,0.0,0.0,0.0,0.0,0.0,0.0,0.0,0.0,0.0,0.0,0.0,0.0,0.0,0.0,0.0,0.0,0.0,0.0,0.0,0.0,0.0,0.0,0.0,0.0,0.0,0.0,0.0,0.0,0.0,0.0,0.0,0.0,0.0,0.0,0.0,0.0,0.0,0.0,0.0,0.0,0.0,0.0,0.0,0.0,0.0,0.0,0.0,0.0,0.0,0.0,0.0,0.0,0.0,0.0,0.0,0.0,0.0,0.0,0.0,0.0,0.0,0.0,0.0,0.0,0.0,0.0,0.0,0.0,0.0,0.0,0.0,0.0,0.0,0.0,0.0,0.0,0.0,0.0,0.0,0.0,0.0,0.0,0.0,0.0,0.0,0.0,0.0,0.0,0.0,0.0,0.0,0.0,0.0,0.0,0.0,0.0,0.0,0.0,0.0,0.0,0.0,0.0,0.0,0.0,0.0,0.0,0.0,0.0,0.0,0.0,0.0,0.0,0.0,0.0,0.0,0.0,0.0,0.0,0.0,0.0,0.0,0.0,0.0,0.0,0.0,0.0,0.0,0.0,0.0,0.0,0.0,0.0,0.0,0.0,0.0,0.0,0.0,0.0,0.0,0.0,0.0,0.0,0.0,0.0,0.0,0.0,0.0,0.0,0.0,0.0,0.0,0.0,0.0,0.0,0.0,0.0,0.0,0.0,0.0,0.0,0.0,0.0,0.0,0.0,0.0,0.0,0.0,0.0,0.0,0.0,0.0,0.0,0.0,0.0,0.0,0.0,0.0,0.0,0.0,0.0,0.0,0.0,0.0,0.0,0.0,0.0,0.0,0.0,0.0,0.0,0.0,0.0,0.0,0.0,0.0,0.0,0.0,0.0,0.0,0.0,0.0,0.0,0.0,0.0,0.0,0.0,0.0,0.0,0.0,0.0,0.0,0.0,0.0,0.0,0.0,0.0,0.0,0.0,0.0,0.0,0.0,0.0,0.0,0.0,0.0,0.0,0.0,0.0,0.0,0.0,0.0,0.0,0.0,0.0,0.0,0.0,0.0,0.0,0.0,0.0,0.0,0.0,0.0,0.0,0.0,0.0,0.0,0.0,0.0,0.0,0.0,0.0,0.0,0.0,0.0,0.0,0.0,0.0,0.0,0.0,0.0,0.0,0.0,0.0,0.0,0.0,0.0,0.0,0.0,0.0,0.0,0.0,0.0,0.0,0.0,0.0,0.0,0.0,0.0,0.0,0.0,0.0,0.0,0.0,0.0,0.0,0.0,0.0,0.0,0.0,0.0,0.0,0.0,0.0,0.0,0.0,0.0,0.0,0.0,0.0,0.0,0.0,0.0,0.0,0.0,0.0,0.0,0.0,0.0,0.0,0.0,0.0,0.0,0.0,0.0,0.0,0.0,0.0,0.0,0.0,0.0,0.0,0.0,0.0,0.0,0.0,0.0,0.0,0.0,0.0,0.0,0.0,0.0,0.0,0.0,0.0,0.0,0.0,0.0,0.0,0.0,0.0,0.0,0.0,0.0,0.0,0.0,0.0,0.0,0.0,0.0,0.0,0.0,0.0,0.0,0.0,0.0,0.0,0.0,0.0,0.0,0.0,0.0,0.0,0.0,0.0,0.0,0.0,0.0,0.0,0.0,0.0,0.0,0.0,0.0,0.0,0.0,0.0,0.0,0.0,0.0,0.0,0.0,0.0,0.0,0.0,0.0,0.0,0.0,0.0,0.0,0.0,0.0,0.0,0.0,0.0,0.0,0.0,0.0,0.0,0.0,0.0,0.0,0.0,0.0,0.0,0.0,0.0,0.0,0.0,0.0,0.0,0.0,0.0,0.0,0.0,0.0,0.0,0.0,0.0,0.0,0.0,0.0,0.0,0.0,0.0,0.0,0.0,0.0,0.2634,0.0,0.0,0.0,0.0,0.0,0.0,0.0,0.0,0.0,0.0,0.0,0.0,0.0,0.0,0.0,0.0,0.0,0.0,0.0,0.0,0.0,0.0,0.0,0.0,0.0,0.0,0.0,0.0,0.0,0.0,0.0,0.0,0.0,0.0,0.0,0.0,0.0,0.0,0.0,0.4603,0.4726,0.4976,0.5211,0.5535,0.5898,0.0,0.0,0.0,0.0,0.0,0.0,0.0,0.0,0.0,0.0,0.0,0.0,0.0,0.0,0.0,0.0,0.0,0.0,0.0,0.0,0.0,0.0,0.0,0.0,0.0,0.0,0.0,0.0,0.0,0.0,0.0,0.0,0.0,0.0,0.0,0.0,0.0,0.0,0.0,0.0,0.0,0.0,0.0,0.0,0.0,0.0,0.0,0.0,0.0,0.0,0.0,0.0,0.0,0.0,0.0,0.0,0.0,0.0,0.0,0.0,0.0,0.0,0.0,0.0,0.0,0.0,0.0,0.0,0.0,0.0,0.0,0.3164,0.0,0.0,0.0,0.0,0.0,0.0,0.0,0.0,0.0,0.0,0.0,0.0,0.0,0.0,0.0,0.0,0.0,0.0,0.0,0.0,0.0,0.0,0.0,0.3857,0.3991,0.3948,0.4149,0.4285,0.0,0.0,0.0,0.0,0.0,0.0,0.0,0.473,0.4785,0.4993,0.4931,0.5142,0.5655,0.5845,0.595,0.5969,0.6152,0.0,0.0,0.0,0.0,0.0,0.0,0.0,0.0,0.0,0.0,0.0,0.0,0.0,0.0,0.0,0.0,0.0,0.0,0.0,0.0,0.0,0.0,0.0,0.0,0.0,0.0,0.0,0.0,0.0,0.0,0.0,0.0,0.0,0.0,0.0,0.0,0.0,0.0,0.0,0.0,0.0,0.0,0.0,0.0,0.0,0.0,0.0,0.0,0.0,0.0,0.0,0.0,0.0,0.0,0.0,0.0,0.0,0.0,0.0,0.0,0.0,0.0,0.0,0.2464,0.2403,0.2403,0.2682,0.2916,0.3133,0.338,0.358,0.3755,0.4124,0.0,0.0,0.0,0.0,0.0,0.0,0.0,0.0,0.0,0.0,0.0,0.0,0.0,0.0,0.0,0.0,0.0,0.0,0.0,0.0,0.0,0.3953,0.4041,0.4155,0.4404,0.4586,0.4724,0.0,0.0,0.0,0.0,0.0,0.5225,0.5368,0.5413,0.5338,0.5548,0.5832,0.6209,0.64,0.6556,0.6686,0.7002,0.7117,0.709,0.0,0.0,0.0,0.0,0.0,0.0,0.0,0.0,0.0,0.0,0.0,0.0,0.0,0.0,0.0,0.0,0.0,0.0,0.0,0.0,0.0,0.0,0.0,0.0,0.0,0.0,0.0,0.0,0.0,0.0,0.0,0.0,0.0,0.0,0.0,0.0,0.0,0.0,0.0,0.0,0.0,0.2144,0.2015,0.0,0.0,0.0,0.0,0.0,0.0,0.0,0.0,0.0,0.0,0.0,0.0,0.0,0.2945,0.2884,0.2712,0.2613,0.2586,0.2741,0.2838,0.2843,0.3325,0.3716,0.3959,0.4212,0.0,0.4321,0.4538,0.0,0.0,0.0,0.0,0.0,0.0,0.0,0.0,0.0,0.0,0.0,0.0,0.0,0.0,0.0,0.0,0.0,0.0,0.0,0.0,0.0,0.4142,0.4286,0.4405,0.4741,0.4956,0.5026,0.5218,0.0,0.0,0.0,0.5467,0.5467,0.5561,0.5647,0.574,0.6002,0.6243,0.6479,0.6684,0.6868,0.7031,0.7483,0.7527,0.7269,0.7448,0.0,0.0,0.0,0.0,0.0,0.0,0.0,0.0,0.0,0.0,0.0,0.0,0.0,0.0,0.0,0.0,0.0,0.0,0.0,0.0,0.0,0.0,0.0,0.0,0.0,0.0,0.0,0.0,0.0,0.0,0.0,0.0,0.0,0.0,0.0,0.0,0.0,0.0,0.0,0.215,0.2014,0.1855,0.188,0.191,0.0,0.0,0.0,0.0,0.0,0.0,0.0,0.0,0.0,0.2826,0.2942,0.3002,0.3002,0.3044,0.3044,0.3046,0.315,0.3182,0.3184,0.3541,0.3867,0.4118,0.4447,0.4794,0.5146,0.522,0.5458,0.5849,0.0,0.0,0.0,0.0,0.6348,0.6018,0.0,0.0,0.0,0.0,0.0,0.0,0.0,0.0,0.0,0.0,0.0,0.0,0.4151,0.4322,0.4498,0.4582,0.4968,0.5191,0.5191,0.5461,0.5609,0.5609,0.5661,0.5713,0.5739,0.5848,0.5997,0.6216,0.6486,0.6658,0.6745,0.7007,0.7223,0.7452,0.7959,0.7876,0.739,0.7698,0.7739,0.7589,0.0,0.0,0.0,0.0,0.0,0.0,0.0,0.0,0.0,0.0,0.0,0.0,0.0,0.0,0.0,0.0,0.0,0.0,0.0,0.0,0.0,0.0,0.0,0.0,0.0,0.0,0.0,0.0,0.0,0.0,0.0,0.0,0.0,0.0,0.0,0.0,0.0,0.2075,0.1947,0.1756,0.1726,0.1709,0.0,0.0,0.0,0.0,0.0,0.0,0.2558,0.2718,0.2801,0.2839,0.2982,0.3079,0.3079,0.3306,0.3402,0.3402,0.3507,0.3516,0.3518,0.3836,0.4102,0.4357,0.4756,0.5247,0.5847,0.5874,0.605,0.6397,0.6908,0.7141,0.7166,0.7269,0.7095,0.6746,0.0,0.0,0.0,0.0,0.0,0.0,0.0,0.0,0.0,0.0,0.0,0.4355,0.4299,0.4473,0.4582,0.4593,0.4968,0.5191,0.5191,0.5461,0.5609,0.5609,0.5793,0.5965,0.6167,0.6558,0.674,0.6759,0.7036,0.7175,0.7185,0.756,0.7846,0.8059,0.8488,0.826,0.7607,0.7995,0.8052,0.7846,0.7601,0.0,0.0,0.0,0.0,0.0,0.0,0.0,0.0,0.0,0.0,0.0,0.0,0.0,0.0,0.0,0.0,0.0,0.0,0.0,0.0,0.0,0.0,0.0,0.0,0.0,0.0,0.0,0.0,0.0,0.0,0.0,0.0,0.0,0.0,0.0,0.0,0.0,0.0,0.1809,0.1754,0.0,0.0,0.0,0.0,0.174,0.1926,0.2081,0.2217,0.2422,0.2594,0.2712,0.289,0.302,0.302,0.3275,0.3402,0.3402,0.3735,0.386,0.3905,0.4427,0.4776,0.4989,0.5328,0.5714,0.6175,0.6312,0.6649,0.7076,0.7379,0.7513,0.7562,0.7375,0.7162,0.6952,0.0,0.0,0.0,0.0,0.0,0.0,0.0,0.0,0.5226,0.4897,0.4763,0.4631,0.4381,0.4623,0.4841,0.4984,0.5464,0.5821,0.5953,0.6211,0.6384,0.6384,0.645,0.6525,0.6571,0.6908,0.7107,0.7194,0.7416,0.765,0.7913,0.8072,0.8255,0.8503,0.8759,0.8765,0.8482,0.8414,0.8381,0.8313,0.7926,0.7775,0.0,0.0,0.0,0.0,0.0,0.0,0.0,0.0,0.0,0.0,0.0,0.0,0.0,0.0,0.0,0.0,0.0,0.0,0.0,0.0,0.0,0.0,0.0,0.0,0.0,0.0,0.0,0.0,0.0,0.0,0.0,0.0,0.0,0.0,0.0,0.0,0.0,0.1589,0.1514,0.0,0.1495,0.1578,0.1685,0.1761,0.1929,0.2057,0.2256,0.2339,0.2482,0.2691,0.294,0.3134,0.3307,0.357,0.3813,0.3985,0.4282,0.4431,0.4433,0.473,0.5013,0.5277,0.5502,0.6013,0.6627,0.696,0.7266,0.7548,0.807,0.8268,0.8308,0.8381,0.8186,0.7882,0.0,0.0,0.0,0.0,0.0,0.0,0.0,0.0,0.5516,0.5201,0.5044,0.485,0.4574,0.4841,0.516,0.5366,0.5872,0.6289,0.6452,0.6671,0.6791,0.6791,0.6917,0.7011,0.7011,0.731,0.7511,0.7601,0.7792,0.8036,0.831,0.8462,0.8649,0.8908,0.9129,0.9195,0.9172,0.8881,0.869,0.8612,0.8255,0.8062,0.7949,0.0,0.0,0.0,0.0,0.0,0.0,0.0,0.0,0.0,0.0,0.0,0.0,0.0,0.0,0.0,0.0,0.0,0.0,0.0,0.0,0.0,0.0,0.0,0.0,0.0,0.0,0.0,0.0,0.0,0.0,0.0,0.0,0.0,0.0,0.0,0.164,0.1452,0.1395,0.1369,0.138,0.1462,0.153,0.161,0.1861,0.2067,0.221,0.2381,0.2603,0.2879,0.3137,0.3379,0.3645,0.4007,0.4257,0.4433,0.4703,0.4792,0.479,0.5013,0.528,0.5502,0.5811,0.6299,0.6925,0.7452,0.7805,0.8153,0.8592,0.8817,0.8923,0.8964,0.8846,0.8559,0.0,0.0,0.0,0.0,0.0,0.0,0.0,0.6059,0.5618,0.5331,0.5207,0.5038,0.4829,0.5186,0.5509,0.5682,0.6147,0.647,0.662,0.6745,0.684,0.684,0.7209,0.7409,0.7409,0.7807,0.8019,0.803,0.8204,0.831,0.837,0.8806,0.9124,0.9358,0.9553,0.9612,0.9608,0.9324,0.9015,0.87,0.8629,0.842,0.81,0.0,0.0,0.0,0.0,0.0,0.0,0.0,0.0,0.0,0.0,0.0,0.0,0.0,0.0,0.0,0.0,0.0,0.0,0.0,0.0,0.0,0.0,0.0,0.0,0.0,0.0,0.0,0.0,0.0,0.0,0.0,0.0,0.0,0.1824,0.1627,0.1493,0.1491,0.1366,0.1316,0.1303,0.1306,0.1307,0.1307,0.1727,0.2041,0.2087,0.2527,0.2903,0.3187,0.3459,0.3683,0.3907,0.4442,0.4708,0.4705,0.4924,0.501,0.501,0.528,0.5547,0.5719,0.6207,0.6697,0.7139,0.7676,0.8296,0.8894,0.8914,0.9099,0.9305,0.9101,0.9023,0.8941,0.0,0.0,0.0,0.0,0.0,0.0,0.0,0.6236,0.5832,0.5416,0.5553,0.5501,0.5009,0.5508,0.5926,0.5973,0.6467,0.6889,0.7218,0.7391,0.7524,0.7678,0.7765,0.7827,0.7827,0.7957,0.8134,0.8436,0.8493,0.8832,0.9449,0.958,0.9842,1.0155,1.0228,1.0185,1.0032,0.979,0.9474,0.9026,0.8611,0.8541,0.8634,0.0,0.0,0.0,0.0,0.0,0.0,0.0,0.0,0.0,0.0,0.0,0.0,0.0,0.0,0.0,0.0,0.0,0.0,0.0,0.0,0.0,0.0,0.0,0.0,0.0,0.0,0.0,0.0,0.0,0.0,0.0,0.0,0.1799,0.1616,0.1519,0.1452,0.1367,0.1317,0.1297,0.1305,0.1324,0.1378,0.1378,0.1661,0.1958,0.2182,0.2458,0.2894,0.342,0.3611,0.3864,0.4032,0.4537,0.4732,0.4705,0.5104,0.528,0.5327,0.5727,0.5949,0.6035,0.6482,0.6962,0.7404,0.7764,0.8424,0.9209,0.9196,0.9445,0.9819,0.9738,0.9524,0.9185,0.0,0.0,0.0,0.0,0.0,0.0,0.0,0.6325,0.5971,0.5576,0.5797,0.5819,0.5378,0.5887,0.6325,0.6494,0.6882,0.7275,0.7674,0.7792,0.7889,0.7987,0.8047,0.8079,0.8079,0.8247,0.8493,0.8867,0.9032,0.9416,1.0014,1.0115,1.027,1.0513,1.0513,1.0443,1.0308,1.0002,0.9701,0.9401,0.8874,0.8655,0.8648,0.832,0.8046,0.7773,0.7426,0.694,0.6414,0.5995,0.0,0.0,0.0,0.0,0.0,0.0,0.0,0.0,0.0,0.0,0.0,0.0,0.0,0.0,0.0,0.0,0.0,0.0,0.0,0.0,0.0,0.0,0.0,0.0,0.1894,0.1699,0.1443,0.1423,0.1413,0.1334,0.1439,0.1499,0.1513,0.1662,0.1724,0.1739,0.1987,0.2202,0.2387,0.2671,0.3062,0.3621,0.372,0.398,0.4305,0.4732,0.4913,0.4854,0.5305,0.5597,0.5683,0.5994,0.6216,0.6393,0.6792,0.7187,0.7672,0.7937,0.8512,0.9305,0.0,0.0,0.0,0.0,0.9738,0.9388,0.0,0.0,0.0,0.0,0.0,0.0,0.0,0.6286,0.5994,0.5715,0.5935,0.6026,0.5863,0.6267,0.6697,0.7091,0.7323,0.765,0.8069,0.8117,0.8117,0.8117,0.8236,0.8301,0.8301,0.8635,0.8952,0.9231,0.9622,0.9949,1.0231,1.0441,1.055,1.0556,1.0556,1.055,1.0484,1.0057,0.9845,0.9742,0.9257,0.8818,0.8511,0.857,0.8282,0.7835,0.7722,0.7305,0.671,0.6354,0.0,0.0,0.0,0.0,0.0,0.0,0.0,0.0,0.0,0.0,0.0,0.0,0.0,0.0,0.0,0.0,0.0,0.0,0.0,0.0,0.0,0.0,0.0,0.0,0.1826,0.1712,0.1349,0.1312,0.1331,0.1427,0.1654,0.1801,0.1836,0.2069,0.2178,0.2219,0.2459,0.2623,0.2721,0.0,0.0,0.0,0.0,0.4074,0.4587,0.4973,0.5145,0.5122,0.5575,0.5877,0.6083,0.6171,0.6393,0.6795,0.7054,0.7452,0.7896,0.8113,0.864,0.9305,0.9345,0.965,0.9994,0.9994,0.982,0.9559,0.0,0.0,0.0,0.0,0.0,0.0,0.0,0.6098,0.5898,0.5576,0.586,0.6095,0.6119,0.6503,0.6865,0.7146,0.7572,0.8033,0.8624,0.8732,0.8791,0.8791,0.8823,0.8856,0.8856,0.892,0.911,0.9354,0.9656,0.9978,1.037,1.0621,1.0812,1.0962,1.0962,1.0887,1.072,1.0417,1.0101,0.9759,0.9439,0.9231,0.9084,0.8793,0.868,0.8566,0.7931,0.747,0.7091,0.6549,0.6,0.5481,0.5132,0.4756,0.0,0.0,0.0,0.0,0.0,0.0,0.0,0.0,0.0,0.0,0.0,0.0,0.0,0.0,0.0,0.0,0.0,0.0,0.0,0.194,0.183,0.1761,0.1408,0.1373,0.1464,0.1605,0.172,0.1876,0.2108,0.2187,0.2213,0.2221,0.2488,0.2723,0.2777,0.2975,0.3341,0.3939,0.3942,0.421,0.4683,0.5195,0.5291,0.5122,0.0,0.0,0.6127,0.6482,0.6704,0.684,0.7238,0.7591,0.7896,0.8113,0.864,0.9349,0.9738,0.9907,0.9994,0.9994,0.982,0.9602,0.0,0.0,0.0,0.0,0.0,0.0,0.0,0.5978,0.5846,0.5578,0.5928,0.6233,0.6281,0.6678,0.7057,0.7323,0.7895,0.8392,0.8671,0.889,0.8985,0.8985,0.8985,0.8985,0.8985,0.9172,0.9397,0.9661,1.0131,1.0536,1.0869,1.1132,1.1298,1.1409,1.1409,1.1261,1.1046,1.0777,1.041,0.998,0.9772,0.9651,0.9492,0.9044,0.8742,0.8555,0.8154,0.7643,0.7136,0.6688,0.6218,0.5732,0.5321,0.4959,0.4639,0.0,0.0,0.0,0.0,0.0,0.0,0.0,0.0,0.0,0.0,0.0,0.0,0.0,0.0,0.3307,0.0,0.0,0.2837,0.215,0.2015,0.1906,0.1645,0.1579,0.1634,0.1722,0.1917,0.2118,0.2368,0.253,0.2612,0.2666,0.2788,0.2925,0.2983,0.3235,0.3548,0.3982,0.4135,0.4366,0.4724,0.5268,0.5434,0.5327,0.5966,0.6333,0.6352,0.6646,0.6928,0.7149,0.7547,0.7856,0.8072,0.8552,0.9034,0.9476,0.9864,0.9994,0.9994,0.9994,0.9907,0.9777,0.0,0.0,0.0,0.0,0.0,0.0,0.0,0.5879,0.58,0.5614,0.5968,0.6283,0.6393,0.6793,0.7214,0.7593,0.8236,0.8695,0.8794,0.8991,0.9125,0.921,0.9177,0.9177,0.9177,0.946,0.9697,0.9928,1.0495,1.0943,1.1217,1.1497,1.1656,1.1706,1.1706,1.1554,1.1274,1.1001,1.0653,1.0215,1.0065,0.9926,0.9798,0.9291,0.8889,0.8533,0.8451,0.7898,0.7198,0.6879,0.6463,0.5978,0.554,0.5207,0.4928,0.4629,0.4345,0.0,0.0,0.0,0.0,0.0,0.0,0.0,0.0,0.0,0.3247,0.3247,0.3411,0.3403,0.3073,0.3071,0.2951,0.2419,0.2208,0.2089,0.1923,0.1864,0.1885,0.193,0.2109,0.2353,0.2634,0.2877,0.3022,0.3082,0.3102,0.3129,0.3177,0.3433,0.3736,0.3982,0.4236,0.4537,0.4885,0.5311,0.5557,0.5582,0.6167,0.6507,0.6587,0.6841,0.719,0.7597,0.789,0.8213,0.852,0.9111,0.9446,0.9705,0.9965,1.0081,1.0081,1.0081,1.0038,0.9994,0.0,0.0,0.0,0.0,0.0,0.0,0.0,0.0,0.5672,0.5525,0.5822,0.6116,0.6374,0.6718,0.723,0.7956,0.8487,0.8978,0.9449,0.9512,0.9637,0.9875,0.9888,0.9888,0.9888,0.9919,0.997,1.0002,1.0305,1.0617,1.0937,1.121,1.1471,1.1706,1.1706,1.1554,1.1274,1.1001,1.0687,1.0369,1.0097,0.9983,0.9958,0.9649,0.9493,0.9406,0.8925,0.8351,0.7728,0.7236,0.6657,0.6119,0.5832,0.5508,0.5187,0.4798,0.0,0.4551,0.4233,0.3771,0.3395,0.3373,0.3268,0.3218,0.0,0.0,0.3469,0.3469,0.3544,0.3489,0.3152,0.315,0.3,0.2486,0.2383,0.2319,0.2185,0.2151,0.2243,0.2379,0.2469,0.2579,0.2906,0.3054,0.3115,0.3086,0.314,0.3173,0.318,0.3433,0.3736,0.3982,0.4236,0.464,0.514,0.5427,0.5674,0.5874,0.658,0.6827,0.6633,0.7301,0.7657,0.7804,0.8356,0.8888,0.9347,0.9455,0.9611,0.9907,1.0153,1.025,1.025,1.025,1.0164,1.0038,0.0,0.0,0.0,0.0,0.0,0.0,0.0,0.0,0.0,0.5497,0.5621,0.5868,0.6297,0.6734,0.7272,0.7935,0.8295,0.8684,0.9112,0.9419,0.966,0.9774,0.9933,0.9983,0.9983,1.011,1.0174,1.0174,1.0555,1.0823,1.0948,1.1235,1.146,1.1684,1.1684,1.1525,1.1241,1.1122,1.0804,1.0341,1.0353,1.0235,1.004,1.0008,0.987,0.9593,0.9004,0.8425,0.0,0.7474,0.695,0.6413,0.6028,0.5718,0.5389,0.505,0.4904,0.0,0.4403,0.3956,0.3589,0.0,0.3524,0.343,0.3608,0.3692,0.3723,0.3723,0.3835,0.3773,0.3468,0.3306,0.3141,0.0,0.2591,0.2444,0.2376,0.2379,0.2424,0.2469,0.2649,0.2865,0.3237,0.332,0.3427,0.3631,0.3667,0.3682,0.3682,0.3935,0.4137,0.4236,0.4485,0.4839,0.519,0.5486,0.5815,0.6212,0.6741,0.7033,0.7105,0.7629,0.8051,0.8378,0.8912,0.9368,0.9689,0.9841,1.0058,1.0308,1.0435,1.0494,1.0511,1.0511,1.0467,1.0424,0.0,0.0,0.0,0.0,0.0,0.0,0.0,0.0,0.0,0.0,0.5484,0.5749,0.6376,0.6842,0.7335,0.7821,0.819,0.8527,0.8839,0.9276,0.9556,0.964,0.9941,1.0121,1.0121,1.0388,1.0523,1.0523,1.0865,1.1079,1.1127,1.1343,1.1553,1.1771,1.1771,1.1566,1.1278,1.1278,1.0977,1.0516,1.0593,1.0462,1.0214,1.0171,0.9951,0.9618,0.9093,0.8528,0.8008,0.7708,0.7246,0.6739,0.6399,0.6047,0.574,0.5378,0.509,0.4854,0.4622,0.0,0.0,0.3935,0.379,0.3644,0.3788,0.3938,0.4045,0.4045,0.4067,0.4038,0.3751,0.3532,0.3349,0.3138,0.2885,0.2693,0.2604,0.2604,0.2604,0.2604,0.2843,0.3168,0.3564,0.3528,0.3633,0.3971,0.3982,0.3982,0.3982,0.4236,0.4388,0.4388,0.4636,0.4985,0.5288,0.5486,0.5887,0.6537,0.6897,0.7177,0.7427,0.7944,0.8411,0.8926,0.9403,0.9759,0.9991,1.022,1.0445,1.0664,1.0696,1.076,1.0776,1.0862,1.0819,1.0727,0.0,0.0,0.0,0.0,0.0,0.0,0.0,0.0,0.0,0.0,0.0,0.0,0.0,0.7025,0.7368,0.7765,0.8335,0.8763,0.8975,0.9255,0.9505,0.9686,1.0123,1.0376,1.0376,1.0843,1.109,1.109,1.1104,1.1227,1.1481,1.1488,1.1656,1.1901,1.1901,1.1734,1.1481,1.1481,1.1339,1.1038,1.073,1.0604,1.0534,0.9932,0.9722,0.9653,0.9322,0.8828,0.8348,0.8008,0.7521,0.7068,0.7,0.6649,0.0,0.5793,0.5164,0.4678,0.4916,0.0,0.3937,0.4044,0.4004,0.3889,0.3889,0.4153,0.438,0.438,0.4231,0.4058,0.3997,0.3823,0.358,0.3246,0.3181,0.3094,0.2918,0.2875,0.2875,0.2875,0.3197,0.3495,0.0,0.367,0.3633,0.3971,0.3982,0.3982,0.3982,0.4236,0.4388,0.4388,0.4636,0.5035,0.5584,0.5584,0.5989,0.6795,0.7086,0.7263,0.7427,0.8201,0.8871,0.9404,0.9828,1.0149,1.0382,1.0438,1.0665,1.091,1.0975,1.0986,1.1008,1.1224,1.1041,1.0733,0.0,0.0,0.0,0.0,0.0,0.0,0.0,0.0,0.0,0.0,0.0,0.0,0.0,0.0,0.0,0.0,0.7998,0.831,0.8767,0.9093,0.9397,0.968,1.0013,1.0201,1.0201,1.0358,1.0443,1.0443,1.0443,1.0469,1.0567,1.0807,1.0992,1.1178,1.1178,1.1121,1.1008,1.0802,1.0594,1.0436,1.0295,1.0221,1.0101,0.9916,0.9757,0.9597,0.0,0.9037,0.8613,0.8221,0.7901,0.7555,0.7136,0.6846,0.6595,0.5994,0.5479,0.5048,0.5011,0.0,0.4316,0.4353,0.4294,0.4257,0.4411,0.4518,0.4582,0.4582,0.4545,0.4432,0.4168,0.3995,0.3777,0.3451,0.3287,0.3138,0.2918,0.292,0.2963,0.3094,0.3289,0.0,0.0,0.0,0.0,0.4526,0.4533,0.4533,0.4533,0.4636,0.4686,0.4686,0.4937,0.5238,0.5584,0.5789,0.6289,0.7089,0.7686,0.8107,0.835,0.8803,0.9294,0.9832,1.0141,1.0413,1.069,1.088,1.1046,1.115,1.1201,1.1201,1.1224,1.1267,1.1348,1.1348,0.0,0.0,0.0,0.0,0.0,0.0,0.0,0.0,0.0,0.0,0.0,0.0,0.0,0.0,0.0,0.0,0.0,0.8091,0.8423,0.8862,0.916,0.9337,0.9771,1.0045,1.0101,1.0272,1.0358,1.0422,1.0422,1.0422,1.043,1.0631,1.0791,1.0872,1.0872,1.0872,1.0865,1.0653,1.0508,1.0415,1.0243,1.0135,1.0015,0.9872,0.9717,0.0,0.9439,0.9211,0.8877,0.848,0.8178,0.7881,0.7399,0.7053,0.6733,0.6228,0.5709,0.5294,0.5184,0.4823,0.45,0.4541,0.4529,0.454,0.4776,0.4854,0.4932,0.5012,0.4893,0.4732,0.4567,0.4276,0.3984,0.3757,0.3468,0.3244,0.3047,0.3006,0.3058,0.3261,0.3508,0.3814,0.0,0.0,0.0,0.478,0.4784,0.4784,0.4784,0.4784,0.4784,0.4784,0.5037,0.5338,0.5584,0.5939,0.6539,0.7341,0.8084,0.8528,0.8825,0.908,0.948,1.0019,1.0265,1.0556,1.0837,1.1072,1.1234,1.1283,1.1291,1.1289,1.1311,1.1397,1.157,1.1699,0.0,0.0,0.0,0.0,0.0,0.0,0.0,0.0,0.0,0.0,0.0,0.0,0.0,0.0,0.0,0.0,0.0,0.0,0.8009,0.8545,0.8824,0.8696,0.9446,0.9895,1.0031,1.047,1.0782,1.0933,1.0933,1.094,1.0956,1.0978,1.0986,1.0986,1.0986,1.0986,1.0986,1.0963,1.0956,1.0905,1.0449,1.0295,1.023,0.9791,0.9614,0.9588,0.9465,0.9335,0.9133,0.8752,0.84,0.0,0.7787,0.7269,0.6693,0.6461,0.59,0.5351,0.5399,0.4986,0.4563,0.4673,0.4696,0.4768,0.4957,0.5148,0.5342,0.5538,0.5262,0.5021,0.5063,0.0,0.4199,0.4128,0.3772,0.3456,0.3263,0.3227,0.3252,0.0,0.0,0.0,0.0,0.0,0.0,0.4784,0.0,0.4784,0.4784,0.4784,0.4784,0.4834,0.509,0.5338,0.5636,0.6187,0.6839,0.7646,0.8187,0.8577,0.8825,0.9084,0.9529,1.0019,1.0314,1.056,1.0837,1.1106,1.1224,1.1283,1.128,1.1279,1.1348,1.1613,1.1699,1.1699,0.0,0.0,0.0,0.0,0.0,0.0,0.0,0.0,0.0,0.0,0.0,0.0,0.0,0.0,0.0,0.0,0.0,0.0,0.8143,0.828,0.8476,0.8699,0.8955,0.9085,0.9133,0.9354,0.9602,0.9877,0.9877,1.0007,1.0265,1.0515,1.0637,1.0637,1.0637,1.0637,1.0621,1.0363,1.0257,1.0249,1.0113,1.0076,1.0068,0.9951,0.9844,0.974,0.9714,0.9472,0.9167,0.0,0.0,0.0,0.0,0.7648,0.717,0.6569,0.6231,0.5965,0.5523,0.5237,0.5087,0.4968,0.4832,0.4839,0.5025,0.503,0.5077,0.5258,0.5218,0.5109,0.4901,0.0,0.0,0.408,0.3867,0.0,0.3532,0.3497,0.0,0.3871,0.0,0.4317,0.4553,0.4736,0.0,0.0,0.4784,0.4784,0.4784,0.4784,0.4885,0.509,0.5338,0.5639,0.5889,0.6637,0.7288,0.7892,0.8432,0.8829,0.9084,0.9381,0.9772,1.0314,1.0364,1.0654,1.1116,1.1226,1.1266,1.1314,1.1287,1.1316,1.1348,1.1613,1.1785,1.1957,0.0,0.0,0.0,0.0,0.0,0.0,0.0,0.0,0.0,0.0,0.0,0.0,0.0,0.0,0.0,0.0,0.0,0.0,0.0,0.8019,0.8253,0.8557,0.8713,0.885,0.8966,0.9113,0.9299,0.9549,0.9565,0.9683,0.9879,1.005,1.0144,1.0144,1.0144,1.0144,1.0128,0.9933,0.9854,0.0,0.0,0.9707,0.9657,0.9583,0.9575,0.9576,0.9576,0.9451,0.0,0.0,0.0,0.8279,0.8137,0.7873,0.7528,0.6912,0.0,0.6339,0.5922,0.5538,0.5282,0.5168,0.5035,0.498,0.5205,0.5179,0.5234,0.5408,0.5408,0.0,0.5035,0.4736,0.0,0.0,0.0,0.0,0.3705,0.3701,0.3854,0.0,0.4395,0.0,0.4901,0.5057,0.5135,0.0,0.4935,0.4784,0.4784,0.4784,0.4937,0.519,0.5436,0.5887,0.6539,0.7092,0.764,0.8184,0.8577,0.8928,0.9187,0.948,0.9875,1.0413,1.0413,1.0703,1.1219,1.1365,1.1399,1.1319,1.1423,1.1396,1.1354,1.1699,1.1914,1.2043,0.0,0.0,0.0,0.0,0.0,0.0,0.0,0.0,0.0,0.0,0.0,0.0,0.0,0.0,0.0,0.0,0.0,0.0,0.0,0.0,0.8048,0.826,0.855,0.8807,0.9035,0.9188,0.9356,0.9541,0.9593,0.9663,0.9704,0.9704,0.9704,0.9704,0.9704,0.9704,0.9704,0.9704,0.9667,0.9606,0.9476,0.9352,0.9244,0.0,0.9148,0.9291,0.9286,0.0,0.0,0.0,0.8915,0.8316,0.8297,0.8121,0.7819,0.7359,0.6981,0.6618,0.6377,0.5867,0.5354,0.5336,0.5196,0.5173,0.5343,0.5406,0.5506,0.5715,0.0,0.5406,0.5205,0.4823,0.451,0.4324,0.0,0.381,0.3855,0.3894,0.4051,0.4263,0.4709,0.5071,0.522,0.5486,0.5586,0.5586,0.5183,0.4885,0.4885,0.4885,0.5037,0.529,0.5589,0.6237,0.7188,0.7494,0.7942,0.8432,0.873,0.8981,0.9282,0.948,0.9875,1.0413,1.0413,1.0703,1.1228,1.1504,1.1484,1.138,1.1653,1.1623,1.144,1.1884,1.2046,1.2126,0.0,0.0,0.0,0.0,0.0,0.0,0.0,0.0,0.0,0.0,0.4985,0.5103,0.0,0.0,0.0,0.0,0.0,0.0,0.0,0.0,0.0,0.7651,0.7976,0.8154,0.8217,0.8498,0.884,0.9191,0.9262,0.9432,0.9704,0.9704,0.9704,0.9704,0.9704,0.9704,0.9704,0.9704,0.969,0.9667,0.9583,0.9545,0.9514,0.9383,0.0,0.0,0.0,0.0,0.0,0.0,0.9111,0.8899,0.874,0.8601,0.8318,0.758,0.722,0.6992,0.6447,0.606,0.5719,0.5456,0.5288,0.5198,0.53,0.5245,0.0,0.0,0.5448,0.5324,0.5071,0.4921,0.0,0.4351,0.0,0.0,0.0,0.0,0.4367,0.0,0.0,0.0,0.0,0.0,0.0,0.0,0.5534,0.5486,0.5486,0.5486,0.5586,0.5842,0.6342,0.6792,0.7188,0.769,0.8187,0.8726,0.8981,0.9282,0.9529,0.9579,0.9875,1.0413,1.0413,0.0,1.1228,1.1504,1.1579,1.1571,1.1897,1.2008,1.1994,1.2248,1.2346,1.2361,0.0,0.0,0.0,0.0,0.0,0.0,0.0,0.0,0.5013,0.5057,0.5231,0.5331,0.5256,0.5581,0.0,0.0,0.0,0.0,0.0,0.0,0.0,0.0,0.0,0.0,0.8098,0.8357,0.8622,0.8885,0.0,0.9152,0.9341,0.9341,0.9341,0.9341,0.9341,0.9341,0.9341,0.9341,0.9328,0.9263,0.9177,0.9082,0.9017,0.0,0.0,0.0,0.0,0.0,0.0,0.0,0.9221,0.9088,0.8801,0.8651,0.8448,0.775,0.7464,0.7233,0.6742,0.6287,0.5891,0.5632,0.5419,0.5262,0.5294,0.0,0.0,0.0,0.533,0.5158,0.4955,0.0,0.0,0.0,0.0,0.0,0.0,0.0,0.0,0.0,0.0,0.0,0.0,0.0,0.0,0.0,0.6037,0.5884,0.5636,0.5737,0.5939,0.6189,0.6739,0.7141,0.7391,0.7939,0.8382,0.8825,0.908,0.9331,0.9579,0.9579,0.9875,1.0413,1.0413,1.0703,1.1238,1.1623,1.171,1.1642,1.2093,1.2254,1.2261,1.2507,1.2693,1.2843,0.0,0.0,0.0,0.0,0.0,0.0,0.0,0.5098,0.5224,0.5224,0.5529,0.5618,0.5278,0.5488,0.5667,0.0,0.0,0.0,0.0,0.0,0.0,0.0,0.0,0.0,0.0,0.0,0.0,0.0,0.876,0.0,0.0,0.0,0.0,0.0,0.8996,0.8996,0.8996,0.8996,0.8964,0.0,0.0,0.8663,0.0,0.0,0.0,0.0,0.0,0.0,0.0,0.0,0.9194,0.9038,0.8729,0.8646,0.8562,0.8001,0.769,0.742,0.7008,0.646,0.5973,0.5788,0.5538,0.5364,0.5319,0.536,0.0,0.0,0.5224,0.5059,0.4904,0.0,0.0,0.0,0.0,0.0,0.0,0.0,0.0,0.0,0.0,0.0,0.0,0.0,0.0,0.0,0.6387,0.6234,0.5787,0.5989,0.6189,0.6487,0.6936,0.7341,0.7596,0.8187,0.8577,0.8825,0.9133,0.9381,0.9579,0.9579,0.9875,1.0413,1.0413,1.0703,1.1243,1.1785,1.1879,1.1723,1.23,1.2512,1.2559,1.2785,1.3043,1.3243,0.0,0.0,0.0,0.0,0.0,0.0,0.0,0.5171,0.5283,0.5283,0.5637,0.576,0.5413,0.5465,0.5564,0.0,0.0,0.0,0.0,0.0,0.0,0.0,0.0,0.0,0.0,0.0,0.0,0.0,0.0,0.0,0.0,0.0,0.0,0.0,0.0,0.0,0.8996,0.8996,0.0,0.0,0.0,0.0,0.0,0.0,0.0,0.0,0.0,0.0,0.0,0.0,0.0,0.8731,0.87,0.8782,0.8799,0.8366,0.0,0.0,0.7008,0.651,0.6047,0.5829,0.5672,0.5545,0.542,0.0,0.0,0.5393,0.5235,0.5104,0.5083,0.491,0.4713,0.0,0.0,0.4391,0.0,0.0,0.0,0.0,0.0,0.0,0.0,0.0,0.0,0.6387,0.6387,0.6387,0.6337,0.6337,0.6489,0.6742,0.7039,0.7341,0.7596,0.8382,0.8775,0.8825,0.9327,0.9579,0.9579,0.9579,0.9875,1.0413,1.0413,1.0703,0.0,1.1785,1.197,1.1999,1.2533,1.2861,1.3052,1.3055,1.3251,1.3455,0.0,0.0,0.0,0.0,0.0,0.0,0.0,0.5456,0.5661,0.5661,0.6072,0.6219,0.5803,0.5788,0.5705,0.0,0.0,0.0,0.0,0.0,0.0,0.0,0.0,0.0,0.0,0.0,0.0,0.7937,0.0,0.0,0.0,0.0,0.0,0.0,0.0,0.0,0.0,0.0,0.0,0.0,0.0,0.0,0.0,0.0,0.0,0.0,0.0,0.0,0.0,0.0,0.0,0.0,0.8738,0.873,0.0,0.0,0.788,0.7502,0.7173,0.6786,0.6387,0.6049,0.5783,0.5582,0.5545,0.0,0.5385,0.5357,0.5145,0.4965,0.4987,0.4734,0.4534,0.449,0.4446,0.0,0.0,0.0,0.0,0.0,0.0,0.0,0.0,0.0,0.0,0.6387,0.6387,0.6387,0.6387,0.6539,0.6739,0.7039,0.7291,0.764,0.8088,0.8577,0.8878,0.9031,0.9426,0.9579,0.9628,0.9776,1.0068,1.0413,1.056,1.0855,0.0,1.1785,1.198,1.2029,1.2565,1.3001,1.3329,1.3324,1.3618,1.3957,0.0,0.0,0.0,0.0,0.0,0.5484,0.5372,0.5702,0.5968,0.5968,0.6342,0.6464,0.6051,0.5939,0.5738,0.534,0.0,0.0,0.0,0.0,0.0,0.0,0.0,0.0,0.0,0.0,0.7195,0.7614,0.7819,0.8159,0.0,0.0,0.0,0.0,0.0,0.0,0.0,0.0,0.0,0.0,0.0,0.0,0.0,0.0,0.0,0.0,0.0,0.0,0.0,0.0,0.0,0.0,0.0,0.0,0.0,0.0,0.785,0.7437,0.7167,0.6775,0.6378,0.6084,0.5775,0.5558,0.0,0.0,0.5371,0.531,0.5128,0.4953,0.4952,0.4723,0.4556,0.4583,0.4535,0.4609,0.0,0.0,0.0,0.0,0.0,0.0,0.0,0.0,0.0,0.6387,0.6387,0.6437,0.6539,0.6829,0.7083,0.7188,0.7444,0.7842,0.8382,0.8676,0.8928,0.9187,0.948,0.9579,0.9628,0.9871,1.0167,1.0413,1.0654,1.0998,0.0,1.1834,1.2029,1.2175,1.2613,1.3104,1.3491,1.3491,1.3823,1.4268,0.0,0.0,0.0,0.0,0.0,0.0,0.0,0.5834,0.609,0.609,0.6278,0.6298,0.6032,0.5828,0.5598,0.532,0.0,0.0,0.0,0.0,0.0,0.0,0.0,0.0,0.0,0.0,0.6844,0.6902,0.7633,0.8131,0.8394,0.8467,0.8651,0.0,0.0,0.0,0.0,0.0,0.0,0.0,0.0,0.0,0.0,0.0,0.0,0.0,0.0,0.0,0.0,0.0,0.0,0.0,0.0,0.0,0.0,0.0,0.7771,0.7235,0.6891,0.6319,0.5801,0.5801,0.5589,0.5393,0.0,0.0,0.5371,0.531,0.5183,0.5096,0.5092,0.4991,0.491,0.4968,0.4755,0.0,0.0,0.0,0.0,0.0,0.0,0.0,0.0,0.0,0.6387,0.6387,0.6387,0.0,0.6795,0.7217,0.7379,0.7191,0.7444,0.7842,0.8382,0.8676,0.8928,0.9187,0.948,0.9579,0.9628,0.9871,1.0167,1.0413,1.0654,1.1096,0.0,1.1883,1.2175,1.2419,1.2716,1.3104,1.3491,1.3491,1.3823,1.4298,0.0,0.0,0.0,0.0,0.0,0.0,0.0,0.5889,0.5992,0.5911,0.6156,0.6192,0.5839,0.5737,0.5598,0.532,0.0,0.0,0.0,0.0,0.0,0.0,0.0,0.0,0.0,0.0,0.6396,0.6695,0.7202,0.7666,0.8057,0.8304,0.8508,0.8631,0.8842,0.0,0.0,0.0,0.0,0.0,0.0,0.0,0.0,0.0,0.0,0.0,0.0,0.0,0.0,0.0,0.0,0.0,0.0,0.0,0.0,0.8151,0.7897,0.0,0.725,0.6817,0.6396,0.6091,0.585,0.566,0.557,0.0,0.5338,0.5313,0.5183,0.5085,0.4968,0.4921,0.4936,0.5003,0.5008,0.0,0.0,0.0,0.0,0.0,0.0,0.0,0.0,0.0,0.6936,0.6936,0.6936,0.7027,0.7274,0.7575,0.7728,0.7683,0.8032,0.8446,0.8848,0.895,0.9145,0.948,0.9579,0.9677,0.9871,1.0167,1.0413,1.0708,1.0949,1.1292,1.1634,1.1883,1.2175,1.2419,1.2861,1.3201,1.3539,1.369,1.4016,1.4298,0.0,0.0,0.0,0.0,0.0,0.0,0.0,0.5976,0.6042,0.593,0.6026,0.6021,0.5773,0.5618,0.5478,0.5313,0.0,0.0,0.0,0.0,0.0,0.0,0.0,0.0,0.5503,0.5886,0.6224,0.652,0.6976,0.7392,0.7759,0.8098,0.8345,0.8521,0.8781,0.9024,0.0,0.0,0.0,0.0,0.0,0.0,0.89,0.0,0.0,0.0,0.0,0.0,0.0,0.0,0.0,0.0,0.0,0.0,0.0,0.0,0.7917,0.7761,0.0,0.6981,0.6557,0.6234,0.5973,0.0,0.0,0.0,0.5462,0.5434,0.5348,0.5254,0.5126,0.5104,0.5126,0.5183,0.5259,0.0,0.0,0.0,0.0,0.0,0.0,0.0,0.0,0.7188,0.7188,0.7188,0.7188,0.7346,0.7642,0.7849,0.8059,0.8219,0.8514,0.8803,0.9175,0.921,0.9431,0.9726,0.9661,0.9723,1.0019,1.0265,1.0556,1.0801,1.1194,1.1487,0.0,1.2029,1.2322,1.2565,1.2953,1.3249,1.3539,1.3786,1.407,1.4298,0.0,0.0,0.0,0.0,0.0,0.0,0.0,0.0,0.0,0.6089,0.592,0.5777,0.5777,0.5493,0.5316,0.5293,0.0,0.0,0.0,0.0,0.0,0.0,0.0,0.0,0.5495,0.5971,0.6262,0.6402,0.6914,0.7265,0.7482,0.7814,0.8144,0.848,0.8741,0.9044,0.9299,0.9446,0.9426,0.9299,0.9237,0.9085,0.0,0.0,0.0,0.0,0.0,0.0,0.0,0.0,0.0,0.0,0.0,0.0,0.0,0.0,0.0,0.0,0.0,0.6907,0.0,0.0,0.0,0.0,0.0,0.0,0.0,0.565,0.5603,0.5584,0.5448,0.5422,0.5454,0.5515,0.0,0.0,0.0,0.0,0.0,0.0,0.0,0.0,0.0,0.7238,0.7238,0.7238,0.7238,0.745,0.7907,0.8099,0.8348,0.8723,0.8902,0.9084,0.9294,0.9436,0.9646,0.9884,0.9709,0.9776,1.0019,1.0314,1.056,0.0,1.1394,1.1731,1.2024,1.2273,1.257,1.2861,1.305,1.3292,1.3539,1.3835,1.407,1.4298,0.0,0.0,0.0,0.0,0.0,0.0,0.0,0.0,0.0,0.0,0.5793,0.5672,0.5511,0.5426,0.5347,0.0,0.0,0.0,0.0,0.0,0.0,0.0,0.0,0.0,0.5501,0.6001,0.6285,0.6329,0.6749,0.7013,0.7126,0.7461,0.7793,0.8124,0.8459,0.8866,0.9299,0.9446,0.9426,0.9299,0.9288,0.9148,0.0,0.0,0.0,0.0,0.8935,0.8903,0.0,0.0,0.0,0.0,0.0,0.0,0.0,0.0,0.7967,0.7871,0.7791,0.0,0.6869,0.6652,0.6337,0.6091,0.0,0.0,0.0,0.0,0.0,0.0,0.0,0.0,0.0,0.0,0.0,0.0,0.0,0.0,0.0,0.0,0.0,0.0,0.0,0.7789,0.7789,0.7789,0.7789,0.7951,0.8362,0.8567,0.887,0.9205,0.9719,0.98,0.9454,0.9609,0.9717,0.9884,0.9909,1.0068,1.0314,1.0556,1.0855,1.1096,1.1443,1.1731,1.2024,1.2273,1.2662,1.305,1.3298,1.3588,1.3835,1.4112,1.425,1.4298,0.0,0.0,0.0,0.0,0.0,0.0,0.0,0.0,0.0,0.0,0.0,0.0,0.0,0.0,0.0,0.0,0.0,0.0,0.0,0.0,0.0,0.0,0.0,0.5507,0.5503,0.59,0.6138,0.6159,0.643,0.6653,0.6774,0.7126,0.7482,0.7884,0.8427,0.8854,0.9168,0.9337,0.9357,0.9248,0.9248,0.0,0.0,0.0,0.0,0.0,0.9096,0.9065,0.0,0.9033,0.8923,0.8753,0.0,0.0,0.0,0.0,0.8034,0.8021,0.7921,0.7647,0.7295,0.6972,0.6712,0.6472,0.6223,0.0,0.0,0.0,0.0,0.0,0.0,0.0,0.0,0.0,0.0,0.0,0.0,0.0,0.0,0.0,0.0,0.0,0.0,0.7988,0.8038,0.8187,0.8187,0.8372,0.8835,0.9007,0.9261,0.9588,1.0036,1.0155,0.9895,0.992,1.0008,1.0215,1.0046,1.0216,1.0605,1.0708,1.0998,1.1389,1.1683,1.1932,1.2224,1.2467,1.2807,1.3147,1.3394,1.3642,1.3931,1.4208,1.4298,1.4298,0.0,0.0,0.0,0.0,0.0,0.0,0.0,0.0,0.0,0.0,0.0,0.0,0.0,0.0,0.0,0.0,0.0,0.0,0.0,0.0,0.0,0.0,0.5405,0.5509,0.555,0.5766,0.5934,0.6038,0.6135,0.6308,0.6502,0.6838,0.7258,0.7774,0.8504,0.8891,0.9016,0.9188,0.9228,0.9197,0.9197,0.0,0.0,0.0,0.0,0.0,0.0,0.0,0.0,0.9197,0.9085,0.8911,0.8744,0.0,0.0,0.0,0.0,0.0,0.8048,0.7923,0.7723,0.7295,0.7063,0.6857,0.6562,0.0,0.0,0.0,0.0,0.0,0.0,0.0,0.0,0.0,0.0,0.0,0.0,0.0,0.0,0.0,0.0,0.0,0.7988,0.8038,0.8137,0.8382,0.8432,0.8722,0.9257,0.9328,0.953,0.986,1.0202,1.0363,1.0363,1.0286,1.0369,1.0625,1.0297,1.0364,1.0801,1.09,1.1145,1.1639,1.1932,0.0,1.2419,1.2716,1.2958,1.3195,1.3443,1.3738,1.3979,1.4202,1.4298,1.4298,0.0,0.0,0.0,0.0,0.0,0.0,0.0,0.0,0.0,0.0,0.0,0.0,0.0,0.0,0.0,0.0,0.0,0.0,0.0,0.0,0.0,0.536,0.5461,0.5606,0.5843,0.5825,0.5929,0.6163,0.6186,0.6293,0.6497,0.685,0.7348,0.7966,0.8332,0.868,0.8996,0.9036,0.9096,0.9197,0.9197,0.0,0.0,0.0,0.0,0.0,0.0,0.0,0.0,0.9217,0.9177,0.9096,0.8805,0.0,0.0,0.0,0.0,0.0,0.8445,0.8428,0.8335,0.775,0.7321,0.703,0.6923,0.0,0.0,0.0,0.0,0.0,0.0,0.0,0.0,0.0,0.0,0.0,0.0,0.0,0.0,0.0,0.0,0.7988,0.7988,0.8187,0.8333,0.8382,0.8627,0.892,0.9261,0.959,0.9902,1.019,1.0472,1.0637,1.0637,1.0551,1.0577,1.0625,1.0647,1.0703,1.0806,1.1292,1.1536,1.1634,0.0,1.237,1.2419,1.2856,1.3201,1.3491,1.3738,1.4022,1.425,1.4298,1.4298,1.4298,0.0,0.0,0.0,0.0,0.0,0.0,0.0,0.0,0.0,0.0,0.0,0.0,0.0,0.0,0.0,0.0,0.0,0.0,0.0,0.0,0.5241,0.5604,0.5431,0.5431,0.5616,0.582,0.5889,0.5887,0.5995,0.6152,0.6407,0.6797,0.7242,0.7697,0.8028,0.8365,0.868,0.8862,0.8992,0.9044,0.0,0.0,0.0,0.0,0.0,0.0,0.0,0.0,0.0,0.0,0.9286,0.9157,0.8935,0.0,0.0,0.0,0.0,0.0,0.8837,0.8892,0.8815,0.84,0.7907,0.7505,0.7436,0.0,0.0,0.0,0.0,0.0,0.0,0.0,0.0,0.0,0.0,0.0,0.0,0.0,0.0,0.0,0.0,0.8038,0.8187,0.8333,0.8531,0.8832,0.9061,0.9372,0.9783,0.9994,1.0214,1.0519,1.0637,1.0747,1.0911,1.0811,1.0781,1.0776,1.0797,1.0949,1.1243,1.1487,1.178,1.2029,0.0,1.2467,1.2613,1.2953,1.3249,1.3539,1.3786,1.4166,1.4544,1.4544,1.4544,1.4496,0.0,0.0,0.0,0.0,0.0,0.0,0.0,0.0,0.0,0.0,0.0,0.0,0.0,0.0,0.0,0.0,0.0,0.0,0.0,0.5119,0.5238,0.5769,0.5422,0.5286,0.5491,0.5759,0.5815,0.5657,0.5838,0.6095,0.6398,0.6782,0.7117,0.7377,0.7718,0.8049,0.8332,0.8647,0.879,0.881,0.0,0.0,0.0,0.0,0.0,0.0,0.0,0.0,0.0,0.0,0.0,0.0,0.0,0.0,0.0,0.8987,0.9012,0.9044,0.9242,0.9306,0.9252,0.9011,0.8488,0.0,0.0,0.0,0.0,0.0,0.0,0.0,0.0,0.0,0.0,0.0,0.0,0.0,0.0,0.0,0.8367,0.8355,0.8266,0.8283,0.8482,0.8531,0.8733,0.9183,0.9439,0.976,1.0204,1.0335,1.0513,1.0684,1.0692,1.0857,1.1072,1.1013,1.098,1.1036,1.1043,1.1269,1.1663,1.1811,1.2105,1.2492,1.2494,1.2613,1.291,1.3098,1.3346,1.3642,1.3979,1.4364,1.479,1.479,1.4742,1.4688,0.0,0.0,0.0,0.0,0.0,0.0,0.0,0.0,0.0,0.0,0.0,0.0,0.0,0.0,0.0,0.0,0.0,0.0,0.0,0.5119,0.5238,0.5769,0.5422,0.5384,0.5754,0.5688,0.5682,0.5795,0.5995,0.6293,0.6677,0.6845,0.7007,0.7216,0.7447,0.7724,0.8041,0.8332,0.8467,0.8541,0.881,0.0,0.0,0.0,0.0,0.0,0.0,0.0,0.0,0.0,0.0,0.0,0.0,0.0,0.9196,0.9332,0.9486,0.9619,0.9592,0.9628,0.9605,0.9407,0.8891,0.0,0.8223,0.8006,0.0,0.7952,0.0,0.0,0.0,0.0,0.0,0.0,0.0,0.0,0.0,0.0,0.8885,0.8788,0.8768,0.8775,0.8775,0.8981,0.9137,0.9187,0.964,0.9965,1.0204,1.0335,1.0513,1.0684,1.0692,1.0857,1.1072,1.1205,1.1278,1.1351,1.1651,1.1848,1.1898,1.2384,1.2628,1.2668,1.2758,1.291,1.3098,1.3346,1.3642,1.3931,1.4454,1.4838,1.5083,1.5083,1.4885,1.4688,0.0,0.0,0.0,0.0,0.0,0.0,0.0,0.0,0.0,0.0,0.0,0.0,0.0,0.0,0.0,0.0,0.0,0.0,0.0,0.5192,0.5332,0.5788,0.5534,0.5507,0.5798,0.5792,0.5784,0.5795,0.6246,0.6416,0.6344,0.6712,0.6857,0.6781,0.716,0.7433,0.7655,0.8008,0.8221,0.8345,0.8651,0.8822,0.0,0.0,0.0,0.0,0.0,0.0,0.0,0.0,0.9486,0.9279,0.9208,0.9243,0.9359,0.9538,0.9707,0.983,0.9849,0.9955,1.0009,0.9726,0.9602,0.0,0.0,0.887,0.873,0.8646,0.8636,0.0,0.0,0.0,0.0,0.0,0.0,0.0,0.0,0.9259,0.9109,0.9072,0.8928,0.8874,0.9031,0.9133,0.9375,0.9828,1.0157,1.0499,1.0852,1.0874,1.0895,1.0962,1.0966,1.1076,1.1404,1.1487,1.1677,1.1858,1.2066,1.2215,1.2368,1.2776,1.2946,1.2949,1.2962,1.3041,1.3098,1.3394,1.3642,1.3979,1.4646,1.5124,1.5356,1.5356,1.5172,1.4933,0.0,0.0,0.0,0.0,0.0,0.0,0.0,0.0,0.0,0.0,0.0,0.0,0.0,0.0,0.0,0.0,0.0,0.0,0.5316,0.5239,0.5398,0.5849,0.5627,0.5625,0.5932,0.5923,0.5895,0.5795,0.6404,0.6498,0.6107,0.6598,0.6684,0.6489,0.6823,0.7097,0.7307,0.7655,0.7912,0.8072,0.8406,0.8631,0.0,0.0,0.0,0.0,0.0,0.0,0.0,0.0,0.9545,0.9348,0.9319,0.9445,0.965,0.9721,0.9946,1.0176,1.0301,1.0404,1.0408,1.0226,0.0,0.0,0.985,0.9555,0.9346,0.9206,0.9314,0.0,0.0,0.0,0.0,0.0,0.0,0.9997,1.0009,0.9694,0.943,0.943,0.9229,0.9175,0.943,0.9528,0.9808,1.0386,1.0681,1.0936,1.1283,1.125,1.124,1.124,1.124,1.1404,1.1732,1.1765,1.1916,1.218,1.2456,1.2663,1.2749,1.3117,1.33,1.3217,1.3241,1.3221,1.3244,1.3539,1.3883,1.4316,1.4892,1.5315,1.5588,1.5588,1.5363,1.5083,0.0,0.0,0.0,0.0,0.0,0.0,0.0,0.0,0.0,0.0,0.0,0.0,0.0,0.0,0.0,0.0,0.0,0.0,0.5316,0.5239,0.5432,0.5973,0.5689,0.5722,0.6188,0.608,0.5927,0.5795,0.6409,0.6503,0.6107,0.6458,0.6527,0.6395,0.6462,0.6689,0.7,0.7286,0.7503,0.7712,0.8051,0.8304,0.8541,0.0,0.0,0.0,0.0,0.0,0.0,0.0,0.9623,0.9475,0.9348,0.967,1.0092,0.9933,1.0269,1.0748,1.0953,1.0897,1.0821,0.0,0.0,0.0,1.0515,1.0014,0.9616,0.9621,0.9973,1.0233,1.0028,0.0,0.0,1.0265,1.0382,1.0486,1.0386,1.0167,1.0019,1.0019,0.9776,0.9727,0.9974,1.0184,1.0395,1.0665,1.1072,1.1291,1.1291,1.1521,1.1623,1.1623,1.1623,1.1732,1.2005,1.2005,1.2114,1.2387,1.2985,1.3199,1.3029,1.3556,1.3696,1.3515,1.3523,1.3522,1.3539,1.3786,1.4364,1.5083,1.5083,1.541,1.5784,1.5784,1.5506,1.5083,0.0,0.0,0.0,0.0,0.0,0.0,0.0,0.0,0.0,0.0,0.0,0.0,0.0,0.0,0.0,0.0,0.0,0.0,0.537,0.5316,0.5386,0.5645,0.5779,0.59,0.5996,0.5991,0.601,0.6004,0.6569,0.6643,0.6243,0.6485,0.6483,0.6259,0.6288,0.6398,0.6596,0.6816,0.7076,0.7384,0.7712,0.8023,0.8332,0.0,0.0,0.0,0.0,0.0,0.0,0.0,0.0,0.0,0.9475,0.9878,1.0341,1.0115,1.0557,1.1107,1.1033,1.098,0.0,0.0,0.0,0.0,0.0,1.065,0.0,0.0,1.0419,1.0526,1.0477,0.0,0.0,1.0699,1.0682,1.0689,1.0699,1.0462,1.0265,1.0265,1.0216,1.0268,1.046,1.0571,1.0821,1.1356,1.1491,1.1724,1.2076,1.1973,1.1896,1.1896,1.1896,1.1896,1.2005,1.2164,1.2441,1.2772,1.3098,1.328,1.3214,1.3815,1.3863,1.3526,1.3711,1.369,1.3539,1.4214,1.4694,1.5131,1.5315,1.5547,1.5784,1.5784,1.5506,1.5083,0.0,0.0,0.0,0.0,0.0,0.0,0.0,0.0,0.0,0.0,0.6475,0.0,0.0,0.0,0.0,0.0,0.0,0.0,0.0,0.537,0.5418,0.5568,0.5843,0.6034,0.6099,0.6168,0.6189,0.6172,0.6545,0.6613,0.6391,0.6564,0.6541,0.6352,0.6361,0.6451,0.6614,0.6781,0.7065,0.7419,0.7652,0.7966,0.8353,0.0,0.0,0.0,0.0,0.0,0.0,0.0,0.0,0.0,0.9603,0.9927,1.0325,1.0275,1.0645,1.1124,1.1376,0.0,0.0,0.0,0.0,0.0,0.0,0.0,0.0,0.0,0.0,1.0873,1.0842,1.1055,0.0,1.1078,1.1111,1.1096,1.1096,1.0801,1.056,1.056,1.0458,1.0541,1.0845,1.093,1.1207,1.1797,1.1947,1.2098,1.2377,1.2278,1.2169,1.2169,1.2169,1.2169,1.2169,1.2332,1.255,1.2881,1.3152,1.3369,1.3483,1.3975,1.3933,1.3521,1.3685,1.3775,1.3871,1.4448,1.4838,1.5131,1.5404,1.5635,1.5778,1.573,1.5404,1.5083,0.0,0.0,0.0,0.0,0.0,0.0,0.0,0.0,0.0,0.0,0.6436,0.6291,0.0,0.0,0.0,0.0,0.0,0.0,0.0,0.5417,0.5485,0.5682,0.5902,0.6149,0.6441,0.6493,0.6475,0.6361,0.6485,0.6524,0.655,0.6638,0.6672,0.6612,0.6584,0.667,0.6893,0.6978,0.7266,0.7646,0.7729,0.8046,0.8496,0.8668,0.0,0.0,0.0,0.0,0.0,0.0,0.0,0.0,0.9723,0.9908,1.0173,1.045,1.0629,1.0943,1.1862,0.0,0.0,0.0,0.0,0.0,0.0,0.0,0.0,0.0,0.0,1.1267,1.1051,1.1418,1.163,1.14,1.1492,1.1634,1.1634,1.1198,1.09,1.09,1.0654,1.0686,1.1144,1.1341,1.1594,1.2071,1.2274,1.2387,1.2387,1.2387,1.2387,1.2387,1.2387,1.2387,1.2387,1.2436,1.2604,1.2935,1.3207,1.3483,1.3753,1.4062,1.3953,1.3523,1.3554,1.3823,1.4346,1.464,1.4885,1.5178,1.5404,1.5635,1.5784,1.5588,1.5309,1.5083,0.0,0.0,0.0,0.0,0.0,0.0,0.0,0.0,0.0,0.0,0.0,0.0,0.0,0.0,0.0,0.0,0.0,0.0,0.0,0.5536,0.5494,0.5541,0.5889,0.6291,0.6781,0.676,0.6754,0.6767,0.6812,0.6826,0.6822,0.6743,0.6682,0.6674,0.6416,0.6428,0.6652,0.653,0.6767,0.726,0.7465,0.7839,0.8314,0.8769,0.9053,0.0,0.0,0.0,0.0,0.0,0.0,0.0,0.9921,1.0123,1.0397,1.0667,1.0869,1.1164,0.0,1.1857,0.0,0.0,0.0,0.0,0.0,0.0,0.0,0.0,0.0,1.1527,1.1267,1.1507,1.1676,1.163,1.1777,1.1927,1.1927,1.1834,1.1731,1.1731,1.1487,1.1427,1.1697,1.1699,1.1803,1.2071,1.2274,1.2387,1.2387,1.2387,1.2387,1.2387,1.2387,1.2387,1.2387,1.2659,1.2935,1.3207,1.3478,1.3753,1.4078,1.3939,1.3849,1.3824,1.3823,1.4118,1.464,1.4885,1.5172,1.5452,1.5635,1.5778,1.5784,1.5588,1.5309,1.5083,0.0,0.0,0.0,0.0,0.0,0.0,0.0,0.0,0.0,0.0,0.0,0.0,0.0,0.0,0.0,0.0,0.0,0.0,0.0,0.0,0.5711,0.5973,0.6309,0.6652,0.7034,0.7108,0.7163,0.7176,0.7187,0.716,0.7095,0.6966,0.6849,0.6797,0.6623,0.6565,0.6642,0.6668,0.6892,0.723,0.7493,0.7855,0.8279,0.8658,0.8998,0.9292,0.967,0.0,0.0,0.0,0.0,0.0,0.0,0.0,1.0302,1.0766,1.0917,1.1131,0.0,0.0,0.0,0.0,0.0,0.0,0.0,0.0,0.0,0.0,0.0,1.1785,1.1527,1.1775,1.1997,1.1911,1.2067,1.2175,1.2175,1.2078,1.198,1.198,1.1883,1.187,1.2048,1.2159,1.2219,1.2283,1.2489,1.2659,1.2659,1.2659,1.2713,1.2827,1.2822,1.2822,1.2822,1.2989,1.3207,1.3478,1.3645,1.3911,1.4226,1.398,1.3868,1.3893,1.3897,1.422,1.4736,1.4987,1.5267,1.554,1.5737,1.5784,1.5784,1.5404,1.522,1.5035,0.0,0.0,0.0,0.0,0.0,0.0,0.0,0.0,0.0,0.0,0.0,0.0,0.0,0.0,0.0,0.0,0.0,0.0,0.0,0.0,0.0,0.656,0.6843,0.7075,0.7293,0.75,0.7593,0.7559,0.7653,0.7614,0.7459,0.7285,0.7144,0.6999,0.6967,0.6906,0.6819,0.7011,0.7203,0.74,0.7682,0.8048,0.8429,0.8651,0.8978,0.9377,0.975,0.988,0.9943,1.0191,0.0,0.0,0.0,0.0,1.0132,1.0748,1.0864,1.0962,0.0,0.0,0.0,0.0,0.0,0.0,0.0,0.0,0.0,0.0,1.2283,1.2043,1.1785,1.2054,1.2274,1.2175,1.2273,1.2425,1.2462,1.2273,1.2127,1.2127,1.2078,1.2154,1.2298,1.2461,1.2528,1.2542,1.2758,1.2945,1.2985,1.2989,1.3044,1.3315,1.3315,1.3315,1.3315,1.3369,1.3478,1.3699,1.3802,1.4003,1.4298,1.4149,1.4044,1.3949,1.3988,1.4292,1.4858,1.5057,1.5364,1.5732,1.583,1.5905,1.5803,1.5287,1.5083,1.5035,0.0,0.0,0.0,0.0,0.0,0.0,0.0,0.0,0.0,0.0,0.0,0.0,0.0,0.0,0.0,0.0,0.0,0.0,0.0,0.0,0.0,0.6913,0.7186,0.7435,0.7628,0.7953,0.801,0.7858,0.8252,0.8367,0.8153,0.779,0.7539,0.7415,0.7293,0.7229,0.7224,0.7145,0.7352,0.7757,0.8021,0.8409,0.8855,0.9165,0.9376,0.9519,0.9734,0.9855,0.997,1.0405,1.0452,0.0,0.0,0.0,1.0155,1.0539,1.073,1.0899,0.0,0.0,0.0,0.0,0.0,0.0,0.0,0.0,0.0,0.0,1.274,1.2454,1.2037,1.2009,1.212,1.233,1.2373,1.2485,1.2689,1.2716,1.2716,1.2716,1.2467,1.2386,1.2368,1.2383,1.2405,1.257,1.2838,1.3049,1.3251,1.3261,1.3261,1.3315,1.3315,1.3315,1.3315,1.3532,1.3645,1.3699,1.4229,1.4425,1.4303,1.4734,1.4714,1.4246,1.4273,1.4673,1.539,1.5439,1.5875,1.651,1.6313,1.6213,1.6137,1.5358,1.5083,1.5035,0.0,0.0,0.0,0.0,0.0,0.0,0.0,0.0,0.0,0.0,0.0,0.0,0.0,0.0,0.0,0.0,0.0,0.0,0.0,0.0,0.0,0.7322,0.7592,0.7774,0.7863,0.8221,0.8388,0.8301,0.8725,0.887,0.8743,0.8487,0.809,0.7558,0.7374,0.7195,0.7026,0.7086,0.7205,0.7444,0.783,0.8151,0.8451,0.8946,0.9308,0.9577,0.9835,1.0045,1.027,1.046,1.0578,1.0643,1.0819,0.0,0.0,0.0,1.1201,0.0,1.1885,0.0,0.0,0.0,0.0,0.0,0.0,0.0,0.0,0.0,1.302,1.304,1.2473,1.2412,1.2354,1.2193,1.2444,1.2689,1.2793,1.2919,1.3001,1.3152,1.3104,1.2958,1.2807,1.2876,1.2909,1.2833,1.3059,1.3285,1.3521,1.3532,1.3591,1.3807,1.3807,1.3807,1.3807,1.3921,1.4078,1.4229,1.4606,1.4877,1.4987,1.5042,1.4877,1.4518,1.4706,1.5115,1.5725,1.5725,1.6095,1.6693,1.6567,1.6513,1.643,1.5797,1.5548,1.5474,0.0,0.0,0.0,0.0,0.0,0.0,0.0,0.0,0.0,0.0,0.0,0.0,0.0,0.0,0.0,0.0,0.0,0.0,0.0,0.0,0.0,0.7698,0.7998,0.8191,0.8234,0.8603,0.8785,0.8747,0.9178,0.9345,0.922,0.9114,0.8699,0.8054,0.7691,0.7391,0.7132,0.7288,0.7382,0.7445,0.7845,0.8125,0.8351,0.8769,0.9232,0.9669,0.9883,1.0216,1.0575,1.0647,1.0802,1.0999,1.1085,1.1013,0.0,0.0,0.0,0.0,0.0,0.0,0.0,0.0,0.0,0.0,0.0,0.0,0.0,0.0,1.3152,1.3264,1.2875,1.274,1.2598,1.2215,1.2456,1.2741,1.2864,1.2989,1.3219,1.3485,1.3491,1.3443,1.3195,1.3362,1.3446,1.3243,1.3424,1.3599,1.3792,1.3807,1.3916,1.4191,1.4196,1.4196,1.4196,1.4245,1.4455,1.4713,1.4987,1.5261,1.5476,1.537,1.5175,1.4985,1.5161,1.5492,1.6011,1.6068,1.6462,1.6921,1.6847,1.682,1.678,1.619,1.5986,1.5941,0.0,0.0,0.0,0.0,0.0,0.0,0.0,0.0,0.0,0.0,0.0,0.0,0.6658,0.6658,0.6705,0.6831,0.6849,0.0,0.0,0.0,0.0,0.7978,0.8426,0.0,0.8844,0.9194,0.9298,0.9166,0.97,0.9819,0.957,0.9507,0.94,0.9264,0.8573,0.8186,0.8049,0.8049,0.8124,0.8269,0.8479,0.8788,0.9117,0.91,0.934,0.9712,0.9787,1.0229,1.0823,1.1015,1.124,1.1446,1.1387,1.1374,1.1343,0.0,0.0,0.0,0.0,0.0,0.0,0.0,0.0,0.0,0.0,0.0,0.0,0.0,1.3123,1.2822,1.3028,1.2876,1.2684,1.2677,1.252,1.2569,1.3036,1.311,1.3212,1.3463,1.3491,1.3491,1.3491,1.3502,1.3615,1.3857,1.3856,1.3961,1.4169,1.4196,1.4191,1.4196,1.4196,1.4196,1.4196,1.445,1.4713,1.4982,1.5315,1.5482,1.5535,1.5773,1.5861,1.5819,1.5569,1.5795,1.6297,1.662,1.7094,1.7508,1.7286,1.7179,1.7094,1.6504,1.6299,1.621,0.0,0.0,0.0,0.0,0.0,0.0,0.0,0.0,0.0,0.0,0.0,0.0,0.0,0.6673,0.6757,0.6884,0.7208,0.0,0.0,0.0,0.0,0.8446,0.8609,0.8836,0.915,0.9315,0.9479,0.9654,1.0131,1.0207,0.9846,0.9835,0.9798,0.9731,0.8863,0.8413,0.8266,0.8155,0.8115,0.0,0.0,0.0,0.8669,0.0,0.0,0.0,0.0,0.0,1.1023,1.1215,1.1547,1.1892,1.191,1.1843,1.1747,1.1625,0.0,0.0,0.0,0.0,0.0,0.0,0.0,0.0,0.0,0.0,0.0,1.3222,1.3185,1.3091,1.2866,1.2749,1.2613,1.2457,1.2545,1.2649,1.2874,1.3042,1.3234,1.3685,1.3767,1.3737,1.3769,1.3738,1.3849,1.4146,1.4185,1.4303,1.4696,1.4724,1.4724,1.4724,1.4724,1.4724,1.4724,1.5047,1.5208,1.5315,1.563,1.5737,1.5737,1.5838,1.5891,1.5933,1.6153,1.6384,1.6584,1.6918,1.7292,1.7569,1.7468,1.7481,1.7395,1.6998,1.6892,1.6801,0.0,0.0,0.0,0.0,0.0,0.0,0.0,0.0,0.0,0.7082,0.0,0.0,0.0,0.0,0.706,0.7243,0.7675,0.7996,0.8164,0.8423,0.8622,0.8773,0.891,0.9152,0.9498,0.9675,0.9867,1.0105,1.0466,1.0485,1.0193,1.0137,1.0185,1.0315,0.9462,0.8919,0.8706,0.0,0.0,0.8401,0.0,0.0,0.8798,0.0,0.0,0.0,0.0,0.0,0.0,0.0,0.0,1.2208,1.2175,1.2174,1.2161,1.2009,1.2229,0.0,1.2432,0.0,0.0,0.0,0.0,0.0,0.0,0.0,0.0,1.3229,1.3192,1.3078,1.2857,1.2628,1.2447,1.2394,1.2572,1.2736,1.2877,1.3088,1.3381,1.3835,1.4043,1.4119,1.4118,1.4166,1.4283,1.4552,1.4485,1.4608,1.4959,1.4987,1.4987,1.4987,1.4987,1.5041,1.5154,1.5476,1.569,1.5749,1.6051,1.6152,1.6152,1.6152,1.6152,1.6205,1.6683,1.6789,1.673,1.7166,1.743,1.7582,1.7582,1.7582,1.7562,1.742,1.7347,1.7306,0.0,0.0,0.0,0.0,0.0,0.0,0.0,0.0,0.7461,0.7391,0.0,0.0,0.0,0.0,0.0,0.7979,0.825,0.8451,0.8516,0.8667,0.8806,0.8925,0.0,0.0,0.0,1.0295,1.0516,1.0522,1.0626,1.0667,1.0594,1.0413,1.0606,1.108,1.0361,0.9769,0.9347,0.0,0.9217,0.9044,0.0,0.9414,0.9603,0.0,0.0,0.0,1.0439,1.0822,0.0,1.1129,0.0,0.0,0.0,1.2349,1.2556,1.2364,1.2416,0.0,0.0,0.0,0.0,0.0,0.0,0.0,0.0,0.0,0.0,1.3513,1.3109,1.2769,1.2963,1.2568,1.2277,1.2557,1.2577,1.2697,1.3068,1.331,1.3585,1.3839,1.4289,1.4598,1.4617,1.4669,1.4807,1.5103,1.4898,1.4815,1.5001,1.5035,1.5035,1.5041,1.5041,1.5208,1.5535,1.5791,1.6051,1.6324,1.6577,1.6677,1.6677,1.6677,1.6677,1.673,1.7067,1.7014,1.6783,1.7371,1.7582,1.7582,1.7582,1.7582,1.7582,1.7582,1.7582,1.7542,0.0,0.0,0.0,0.0,0.0,0.0,0.0,0.7433,0.7349,0.0,0.0,0.0,0.7412,0.7642,0.7842,0.7979,0.8377,0.8738,0.9067,0.9336,0.9617,0.9904,0.9954,1.0172,1.0604,1.0549,1.0639,1.0922,1.0865,1.0915,1.1037,1.0769,1.1017,1.1655,1.0908,1.0689,1.0825,1.0123,0.0,0.9237,0.9485,0.949,0.0,0.0,0.0,0.0,0.0,1.1292,1.1319,0.0,1.2069,1.2089,0.0,0.0,0.0,1.2501,0.0,0.0,1.2382,0.0,0.0,0.0,0.0,0.0,0.0,0.0,0.0,1.2829,1.2852,1.2864,1.266,1.2524,1.2395,1.2308,1.2412,1.2638,1.3002,1.3088,1.3307,1.3781,1.3951,1.416,1.4572,1.464,1.4816,0.0,1.5495,1.561,1.5648,1.563,1.5731,1.5951,1.5951,1.6057,1.6365,1.6418,1.6524,1.6577,1.6677,1.6677,1.6677,1.6677,1.6677,1.673,1.7067,1.7173,1.7067,1.7424,1.7582,1.7582,1.7582,1.7582,1.7582,1.7582,1.7582,1.7569,0.0,0.0,0.0,0.0,0.0,0.0,0.7688,0.7602,0.7543,0.0,0.0,0.0,0.7755,0.8026,0.826,0.8397,0.8712,0.9074,0.9476,0.9697,0.9927,1.0205,1.036,1.0559,1.0815,1.0874,1.0988,1.1099,1.1025,1.1126,1.139,1.1104,1.1427,1.2207,1.145,0.0,0.0,0.0,0.0,0.0,1.0041,0.0,0.0,1.0267,1.0419,0.0,0.0,0.0,1.1502,1.207,1.2144,0.0,0.0,0.0,0.0,0.0,0.0,0.0,0.0,0.0,0.0,0.0,0.0,0.0,1.2404,1.2588,1.2726,0.0,1.2446,1.2475,1.2482,1.228,1.2128,1.2311,1.2268,1.2381,1.2758,1.2894,1.3136,1.3538,1.3784,1.408,1.454,1.4701,1.4982,1.5438,1.5737,1.5979,1.6221,1.6231,1.6311,1.6477,1.6477,1.6583,1.6902,1.7001,1.7107,1.7265,1.7371,1.7417,1.7417,1.7265,1.7265,1.7265,1.7325,1.7384,1.7378,1.7529,1.7582,1.7582,1.7582,1.7582,1.7582,1.7582,1.7582,1.7635,0.0,0.0,0.0,0.0,0.0,0.0,0.8069,0.7941,0.7911,0.0,0.7994,0.8017,0.8271,0.8482,0.8693,0.8966,0.9136,0.94,0.9778,0.9889,1.0029,1.022,1.0694,1.0908,1.0788,1.1229,1.1352,1.1124,1.1141,1.1354,1.174,1.1458,1.1844,1.2755,0.0,0.0,0.0,0.0,0.0,1.0953,1.0828,1.0743,0.0,0.0,1.0888,1.0763,1.1408,1.1611,1.1638,1.1816,1.2066,0.0,0.0,0.0,0.0,0.0,1.2413,0.0,0.0,0.0,0.0,0.0,0.0,0.0,1.2409,1.2467,1.2522,1.2357,1.205,1.1906,1.2313,1.1905,1.1687,1.2306,1.21,1.2018,1.246,1.2752,1.3028,1.331,1.3813,1.4233,1.4486,1.4829,1.5147,1.5393,1.5776,1.619,1.6654,1.6717,1.6783,1.6783,1.6836,1.7001,1.7338,1.7589,1.7799,1.8069,1.8272,1.8422,1.837,1.8167,1.8016,1.8016,1.7747,1.7635,1.7635,1.7635,1.7582,1.7582,1.7582,1.7582,1.7582,1.7582,1.7635,1.7687,0.0,0.0,0.0,0.0,0.0,0.0,0.0,0.8359,0.8177,0.8105,0.8089,0.8112,0.8294,0.8428,0.8593,0.8834,0.9271,0.9617,0.9851,1.0393,1.0806,1.1053,1.1172,1.1265,1.1339,1.1334,1.1318,1.1251,1.1429,1.172,1.2092,1.2077,1.2558,1.3416,1.2755,0.0,0.0,0.0,0.0,1.2554,1.1565,0.0,1.0943,1.0989,1.1091,1.1317,1.178,1.1798,1.163,1.1834,1.2344,1.2869,0.0,0.0,0.0,0.0,0.0,0.0,0.0,0.0,0.0,0.0,0.0,0.0,1.2195,1.2301,1.2343,0.0,1.2102,1.2161,1.178,1.1582,1.1596,1.1821,1.1792,1.1984,1.2716,1.2858,1.3103,1.3648,1.4019,1.4372,1.4628,1.4945,1.5304,1.5629,1.6009,1.6367,1.6704,1.6944,1.7219,1.7424,1.7641,1.7905,1.816,1.8213,1.8265,1.8318,1.837,1.8422,1.8422,1.837,1.8318,1.8325,1.8069,1.7911,1.7911,1.7694,1.7582,1.7582,1.7582,1.7582,1.7582,1.7582,1.7747,1.7911,0.0,0.0,0.0,0.0,0.0,0.0,0.0,0.8887,0.8777,0.8894,0.8886,0.8956,0.908,0.9204,0.9413,0.9673,1.0091,1.0461,1.0672,1.1078,1.1442,1.1753,1.1798,1.1799,1.1636,1.1662,1.1636,1.1559,1.1642,1.2024,1.2612,1.273,1.3109,1.3683,1.3573,0.0,0.0,0.0,1.3336,1.3323,1.2129,0.0,1.1679,1.1607,1.1684,1.1934,1.2141,1.2231,1.231,1.233,1.2627,0.0,0.0,1.2877,1.2898,0.0,1.2929,1.2768,0.0,0.0,0.0,1.2527,0.0,0.0,0.0,1.2232,1.2175,1.1919,1.1861,1.1813,1.1663,1.1469,1.1396,1.1647,1.1606,1.1775,1.2446,1.2547,1.277,1.3391,1.3533,1.3838,1.4454,1.479,1.5269,1.6049,1.6307,1.6675,1.7319,1.7502,1.7703,1.7996,1.8115,1.8429,1.8848,1.8848,1.8997,1.925,1.925,1.925,1.9257,1.8952,1.8848,1.8795,1.8377,1.822,1.8167,1.7905,1.7799,1.7799,1.7635,1.7687,1.7799,1.7799,1.7957,1.822,0.0,0.0,0.0,0.0,0.0,0.0,0.0,0.0,0.9463,0.9722,0.9704,0.9758,0.9957,1.0074,1.0298,1.0712,1.101,1.1276,1.148,1.1651,1.1837,1.2092,1.2231,1.217,1.1872,1.1971,1.1997,1.1917,1.2021,1.24,1.3046,1.3352,1.3662,1.3982,0.0,0.0,0.0,0.0,0.0,1.3938,0.0,1.253,1.2522,1.234,1.2351,1.2534,1.2562,1.2837,1.3217,1.2998,1.3003,1.3123,1.33,1.318,0.0,0.0,0.0,0.0,0.0,0.0,0.0,0.0,0.0,1.2727,0.0,0.0,0.0,1.1977,1.1653,0.0,0.0,0.0,0.0,0.0,0.0,0.0,0.0,1.2134,0.0,1.2985,1.3114,1.3418,1.418,1.4577,1.519,1.6148,1.6388,1.6855,1.7659,1.7927,1.8189,1.848,1.8603,1.8893,1.9428,1.9428,1.968,2.0078,2.0078,2.0078,2.0086,1.9628,1.9428,1.9324,1.8795,1.8534,1.8482,1.8167,1.8069,1.8069,1.7799,1.7799,1.8016,1.8069,1.8272,1.8534,0.9379,0.9473,0.0,0.0,0.0,0.0,0.0,0.0,0.9962,0.9894,0.9775,0.9838,1.0207,0.0,0.0,0.0,0.0,0.0,1.1508,0.0,1.1845,1.176,1.1885,0.0,1.2136,1.2163,1.2219,1.2329,1.2822,1.3096,1.3191,1.3852,1.4287,0.0,1.4724,0.0,0.0,0.0,1.4877,0.0,1.4493,1.3874,0.0,1.282,1.2871,1.3095,1.3028,1.3473,1.3991,0.0,1.3607,1.3691,0.0,1.3653,1.3682,0.0,0.0,0.0,0.0,0.0,0.0,0.0,1.3311,0.0,0.0,0.0,1.2249,1.2101,0.0,0.0,0.0,0.0,0.0,0.0,0.0,0.0,1.2055,1.1902,1.2062,1.2926,1.353,1.39,1.4013,1.4761,1.5223,1.5191,1.6004,1.6569,1.6674,1.7725,1.8455,1.8738,1.9273,1.9672,2.0034,2.0034,2.0034,2.0078,2.0078,2.0078,2.0078,2.0034,1.9879,1.9628,1.9324,1.9071,1.8817,1.8482,1.837,1.8325,1.8062,1.7964,1.8016,1.8272,1.8541,1.8869,0.9736,0.9899,0.0,0.0,0.0,0.0,0.0,0.0,1.0515,1.0534,1.0489,1.0586,0.0,0.0,0.0,0.0,0.0,1.2123,0.0,0.0,0.0,0.0,0.0,0.0,0.0,1.2547,1.2523,1.2581,1.2981,1.3325,1.3551,1.4318,1.4634,0.0,1.5381,0.0,1.5358,0.0,1.5655,0.0,0.0,0.0,0.0,1.3961,1.3755,1.3811,1.3748,1.3995,1.4299,0.0,1.3878,0.0,0.0,0.0,0.0,0.0,0.0,0.0,0.0,0.0,0.0,0.0,0.0,0.0,1.3349,0.0,1.2764,0.0,0.0,0.0,0.0,0.0,0.0,0.0,1.134,0.0,0.0,0.0,1.2109,0.0,0.0,0.0,1.3932,1.4379,1.4889,1.5365,1.5698,1.6237,1.7156,1.768,1.8366,1.9237,1.9489,1.9852,2.0351,2.0351,2.0506,2.0806,2.0806,2.0806,2.0806,2.0652,2.0403,2.0153,1.9887,1.9628,1.9324,1.9056,1.8855,1.8705,1.8548,1.8503,1.8555,1.8653,1.8862,1.9123,1.0355,0.0,0.0,0.0,0.0,0.0,0.0,0.0,0.0,1.1136,0.0,0.0,1.1623,1.1768,0.0,0.0,1.2735,1.2938,0.0,0.0,1.3302,0.0,0.0,0.0,0.0,0.0,0.0,1.3003,1.3398,1.3725,1.4026,1.4734,1.5005,0.0,0.0,1.6158,1.573,0.0,0.0,1.61,1.6137,1.6152,1.6021,1.5064,1.4747,1.482,1.4663,1.4743,1.4824,1.4384,1.4467,0.0,1.4764,0.0,0.0,0.0,0.0,0.0,1.4343,0.0,0.0,0.0,0.0,0.0,0.0,0.0,0.0,0.0,0.0,0.0,0.0,0.0,0.0,0.0,0.0,1.111,0.0,1.1561,0.0,0.0,0.0,0.0,0.0,1.4077,1.4509,1.5183,1.5424,1.6046,1.7176,1.7566,1.824,1.9269,1.9568,1.9973,2.0578,2.0672,2.0968,2.1428,2.1428,2.1428,2.142,2.1121,2.0873,2.0565,2.0351,2.0034,1.9783,1.9532,1.9272,1.9123,1.9026,1.9026,1.9026,1.9026,1.9123,1.9279,1.1253,1.1146,0.0,0.0,0.0,0.0,0.0,0.0,0.0,0.0,0.0,0.0,0.0,0.0,0.0,0.0,0.0,1.3867,1.4141,0.0,1.3639,0.0,0.0,1.3384,0.0,0.0,0.0,0.0,0.0,1.4577,1.46,1.5122,1.5474,1.5707,1.6506,1.6493,1.5954,1.6957,1.6932,1.6322,1.68,1.6972,1.6885,0.0,1.5913,1.6088,1.5841,0.0,0.0,1.5835,1.5563,1.5328,0.0,0.0,0.0,0.0,0.0,0.0,0.0,0.0,0.0,1.5562,0.0,0.0,0.0,0.0,1.3292,0.0,0.0,0.0,0.0,0.0,0.0,0.0,0.0,0.0,0.0,0.0,0.0,0.0,0.0,0.0,0.0,1.405,1.4232,1.4068,1.526,1.6012,1.605,1.728,1.8148,1.8528,1.9486,2.025,2.0799,2.1097,2.142,2.1674,2.1674,2.1674,2.1674,2.1428,2.1121,2.0865,2.0617,2.0351,2.0086,1.9776,1.968,1.9628,1.9376,1.9279,1.9279,1.9279,1.9272,1.9279,0.0,0.0,0.0,0.0,0.0,0.0,0.0,1.1914,0.0,0.0,0.0,0.0,0.0,1.2899,1.3135,0.0,0.0,1.3977,1.4388,1.4278,0.0,0.0,0.0,1.3878,0.0,0.0,0.0,0.0,0.0,0.0,1.5026,1.5549,1.5757,0.0,0.0,1.6615,0.0,0.0,0.0,0.0,0.0,1.7721,1.7621,0.0,1.673,1.6908,1.6639,1.6648,1.675,1.6291,1.6254,1.6322,1.6156,1.6094,1.611,1.6254,1.6071,1.5861,0.0,0.0,1.5927,1.599,0.0,0.0,0.0,0.0,0.0,0.0,0.0,0.0,0.0,0.0,0.0,0.0,0.0,0.0,0.0,0.0,0.0,0.0,0.0,0.0,0.0,0.0,1.394,1.4171,1.4728,1.5409,1.6239,1.6927,1.7704,1.8673,1.9399,2.0119,2.0775,2.1071,2.1502,2.1979,2.1979,2.1979,2.1979,2.1869,2.1573,2.1173,2.107,2.0763,2.0359,2.0256,1.9998,1.968,1.9576,1.948,1.9279,1.9279,1.9279,1.9279,1.1984,0.0,0.0,0.0,0.0,0.0,0.0,0.0,0.0,0.0,1.2903,0.0,1.3313,0.0,1.3674,0.0,1.4226,1.4434,1.4809,1.4706,0.0,1.4751,1.4539,0.0,0.0,0.0,0.0,0.0,0.0,1.5384,0.0,0.0,0.0,0.0,0.0,1.6805,1.6379,0.0,1.7656,0.0,0.0,1.8265,0.0,0.0,1.7761,1.7716,0.0,1.7637,1.7649,1.7298,1.7212,1.7267,1.7009,1.6894,1.6915,1.7167,1.6987,1.6804,1.7054,1.6938,1.6746,1.674,1.6485,0.0,1.5916,0.0,0.0,0.0,0.0,0.0,0.0,0.0,0.0,0.0,0.0,0.0,0.0,1.122,0.0,0.0,0.0,0.0,0.0,0.0,1.3521,1.4065,1.4416,1.504,1.6101,1.6562,1.7364,1.8566,1.9192,1.9906,2.0695,2.1122,2.157,2.2088,2.2223,2.2283,2.2283,2.2131,2.192,2.1573,2.1369,2.1121,2.0771,2.0565,2.0308,1.9998,1.9887,1.9732,1.9576,1.9376,1.9279,1.9279,0.0,0.0,0.0,0.0,1.2699,0.0,0.0,0.0,1.3543,0.0,1.332,1.3566,1.3654,1.3879,1.4241,1.4713,1.5007,1.5209,1.5411,1.5119,0.0,0.0,1.505,1.4988,1.4659,0.0,0.0,0.0,0.0,0.0,0.0,0.0,0.0,0.0,1.713,0.0,1.6409,1.7611,1.789,1.7539,1.8231,1.8681,1.8874,1.9142,1.9004,1.8627,1.8781,1.8833,1.8767,1.8742,1.8477,1.8137,1.8305,1.8004,1.7644,1.7848,1.8049,1.8156,1.8156,1.8163,1.8071,1.7816,1.7461,0.0,0.0,0.0,1.5439,0.0,0.0,0.0,0.0,0.0,0.0,0.0,0.0,0.0,0.0,0.0,0.0,0.0,0.0,0.0,0.0,1.2849,1.3089,1.3736,1.4282,1.4911,0.0,1.6317,1.7107,1.8113,1.8836,1.9611,2.0441,2.1181,2.1715,2.2004,2.2405,2.2577,2.2594,2.2283,2.2123,2.2072,2.1573,2.1326,2.1275,2.0771,2.0522,2.047,2.0241,2.0138,2.0034,1.9532,1.9324,1.9324,1.3211,1.3445,1.3584,0.0,1.3341,1.3486,0.0,0.0,0.0,0.0,1.4102,1.4281,1.4739,1.4709,1.4962,1.5624,1.574,0.0,0.0,0.0,0.0,1.5272,1.5395,1.5408,1.5363,1.5578,0.0,1.544,0.0,0.0,1.6191,0.0,0.0,0.0,0.0,0.0,1.683,1.7887,1.847,1.8747,1.8932,1.915,1.9442,0.0,1.992,1.9828,1.9654,1.9724,1.9833,1.959,1.9554,1.9531,1.9494,1.9306,1.916,1.9542,1.9226,1.8806,1.8929,1.901,1.887,1.8469,1.8281,1.8082,1.7513,0.0,0.0,0.0,0.0,0.0,0.0,0.0,0.0,0.0,0.0,0.0,0.0,0.0,0.0,1.2643,0.0,0.0,0.0,1.2957,1.3293,1.3405,1.4066,1.4592,1.4879,1.5778,1.6669,1.7366,1.8464,1.9377,2.0071,2.0738,2.14,2.1996,2.209,2.2328,2.2594,2.2493,2.2342,2.2072,2.1971,2.1674,2.1275,2.1173,2.0873,2.047,2.0411,2.03,2.0078,1.9931,1.9879,1.9879,1.3847,0.0,0.0,1.413,0.0,0.0,1.4024,1.4251,0.0,1.4604,1.4771,0.0,1.5168,1.5322,1.5563,1.5969,1.6116,0.0,1.6126,0.0,0.0,1.5769,1.5918,1.593,1.5751,1.6018,0.0,1.5712,0.0,0.0,1.6316,0.0,0.0,0.0,0.0,1.7383,0.0,1.8079,1.8797,1.9387,1.9471,1.9745,0.0,2.0595,2.0965,2.1263,2.1051,2.0884,2.0763,2.0544,2.0536,2.0569,2.0594,2.0493,2.0351,2.0501,2.0354,2.013,2.0024,1.994,1.9816,1.9532,1.9173,1.8771,1.8385,1.7636,1.6877,0.0,1.5848,1.5217,0.0,0.0,0.0,0.0,0.0,0.0,0.0,0.0,0.0,0.0,1.2627,0.0,1.2732,1.2889,1.3143,1.3569,1.3949,1.4316,1.4724,1.5393,1.6212,1.7196,1.7944,1.8769,1.9819,2.0346,2.1002,2.1739,2.1919,2.2192,2.2594,2.2594,2.2493,2.2283,2.2173,2.1928,2.1623,2.1522,2.1224,2.0822,2.0719,2.0565,2.0447,2.0447,2.0292,2.0078,0.0,0.0,0.0,0.0,0.0,0.0,0.0,1.4721,0.0,1.4844,0.0,1.5547,1.5445,1.5788,1.6106,1.6142,0.0,1.6521,1.6522,1.6522,1.6462,1.6309,1.6528,1.6442,1.6051,1.6532,0.0,0.0,0.0,0.0,0.0,0.0,0.0,0.0,0.0,0.0,0.0,1.833,1.8988,1.9679,1.9941,2.0419,2.0997,2.1346,2.1939,2.2652,2.2483,2.2062,2.1554,2.1544,2.1467,2.1426,2.1633,2.1608,2.146,2.124,2.1419,2.156,2.1172,2.0926,2.0744,2.072,2.0113,1.9494,1.9348,1.8694,1.7954,1.7466,1.6648,1.5948,1.553,0.0,0.0,0.0,0.0,0.0,0.0,0.0,0.0,0.0,0.0,0.0,0.0,1.2831,1.2892,1.3859,1.3866,1.4111,1.4757,0.0,1.5837,1.7259,1.7383,1.8146,1.9614,2.008,2.0637,2.1393,2.1827,2.2214,2.2626,2.2627,2.2644,2.2644,2.2283,2.2123,2.2072,2.1827,2.1573,2.1326,2.1121,2.1019,2.1019,2.0976,2.0652,2.0241,0.0,0.0,0.0,0.0,0.0,1.6038,1.5849,1.5645,1.5584,1.5896,1.5747,1.585,1.6541,1.6476,1.6613,1.705,1.7111,0.0,0.0,0.0,0.0,1.6959,1.6892,1.6819,1.6737,1.6774,1.6725,0.0,0.0,0.0,0.0,0.0,0.0,0.0,0.0,0.0,1.8617,1.9062,0.0,1.9916,2.0487,2.0936,2.1328,2.2096,2.2586,2.297,2.3075,2.2834,2.2453,2.2288,2.235,2.2557,2.2766,2.2691,2.2584,2.2767,2.2361,2.1859,2.1926,2.1775,2.1525,2.1328,2.1246,2.1039,2.0132,1.9502,1.8947,1.8329,1.7502,1.6796,1.6454,1.5716,0.0,0.0,0.0,0.0,0.0,0.0,0.0,0.0,0.0,1.3163,0.0,0.0,1.3213,1.3545,1.3879,1.4094,1.4229,0.0,1.5691,1.6698,1.734,1.8178,1.9264,1.9869,2.0531,2.124,2.186,2.2342,2.2681,2.2848,2.2946,2.2896,2.2644,2.2342,2.2072,2.203,2.1869,2.1623,2.1573,2.1573,2.1522,2.1318,2.1173,2.1062,0.0,0.0,0.0,0.0,0.0,0.0,0.0,1.6431,1.6251,1.6189,1.6323,1.6565,1.6866,1.6912,1.7072,1.7466,1.7527,1.7554,1.7674,1.7666,1.7606,1.7532,1.7451,0.0,1.7262,1.7334,1.7259,1.7004,0.0,0.0,0.0,0.0,0.0,0.0,0.0,1.8798,0.0,0.0,0.0,2.0655,2.0974,2.1567,2.2342,2.2903,2.3382,2.3818,2.3947,2.3975,2.3838,2.3287,2.3153,2.3198,2.3406,2.3561,2.3649,2.3542,2.3382,2.3171,2.2772,2.2558,2.2391,2.1992,2.1808,2.1573,2.1055,2.0374,1.9705,1.9132,1.8491,1.7754,1.6863,1.6178,1.5605,0.0,0.0,0.0,0.0,0.0,0.0,0.0,0.0,0.0,0.0,0.0,0.0,0.0,0.0,0.0,1.4345,0.0,1.5433,1.6565,1.6943,1.7743,1.9039,1.9557,2.0219,2.1088,2.1855,2.238,2.2722,2.307,2.3197,2.3197,2.2896,2.2745,2.2535,2.2224,2.2021,2.1869,2.1776,2.1725,2.1674,2.1573,2.1522,2.1479,0.0,1.7362,0.0,0.0,1.7058,1.7185,1.7392,1.7339,1.7091,1.6616,1.6988,1.7251,1.7181,1.7318,1.7567,1.7768,1.7768,1.7908,1.8187,1.8187,1.8157,1.8114,1.8081,1.8005,1.7835,1.7935,1.7788,0.0,0.0,0.0,1.7645,0.0,0.0,0.0,0.0,0.0,0.0,0.0,2.0553,2.1395,2.1608,2.2334,2.3323,2.3657,2.417,2.4688,2.4861,2.5013,2.5112,2.4526,2.4123,2.3874,2.3914,2.4272,2.4595,2.4231,2.4283,2.4347,2.3527,2.3229,2.3075,2.2671,2.2311,2.2037,2.1966,2.1298,2.0533,2.0016,1.9458,1.8664,1.7345,1.6826,1.6429,0.0,0.0,0.0,0.0,0.0,0.0,0.0,0.0,0.0,1.4996,0.0,0.0,0.0,0.0,0.0,1.4706,0.0,1.5345,1.6635,1.6707,1.7415,1.8798,1.9395,2.0069,2.0962,2.1819,2.2399,2.2752,2.3144,2.3367,2.3447,2.3197,2.3046,2.2946,2.2485,2.2283,2.2182,2.1979,2.1878,2.1878,2.1827,2.1776,2.1776,0.0,0.0,0.0,0.0,0.0,1.8205,1.8359,1.8477,1.8358,1.7805,1.7635,1.7652,1.7956,1.8017,1.804,1.804,1.804,1.8187,1.8427,1.8481,1.855,1.8688,1.8667,1.8608,1.8588,1.8369,1.8238,0.0,0.0,1.8071,0.0,0.0,0.0,0.0,0.0,1.9979,2.0395,2.0919,2.1316,2.1671,2.2628,2.3251,2.3602,2.4196,2.4747,2.5274,2.5509,2.5544,2.554,2.5835,2.5548,2.497,2.4578,2.4743,2.5147,2.5062,2.4786,2.4422,2.4092,2.372,2.3345,2.3233,2.3191,2.3073,2.2847,2.2323,2.1741,2.1096,2.0235,1.9298,1.8272,1.8196,1.7963,0.0,0.0,0.0,0.0,0.0,0.0,0.0,0.0,0.0,0.0,1.533,0.0,0.0,1.4773,0.0,0.0,1.4979,1.5486,1.6818,1.7057,1.7634,1.8607,1.9647,2.0366,2.0842,2.1817,2.251,2.2882,2.3033,2.3354,2.3755,2.3497,2.3197,2.2996,2.2946,2.2745,2.2544,2.2544,2.2493,2.2493,2.2182,2.2072,2.2072,0.0,0.0,0.0,0.0,0.0,0.0,0.0,1.8935,1.8885,1.8924,1.8446,1.8134,1.8118,1.8087,1.8179,1.8334,1.8334,1.8427,1.8658,1.8697,1.8789,1.9012,1.9012,1.9023,1.9123,1.9,1.8794,0.0,0.0,0.0,0.0,0.0,1.9246,1.9606,2.0171,2.0427,2.0535,2.119,2.1742,2.2272,2.3087,2.3703,2.4217,2.4777,2.5226,2.5557,2.5849,2.6136,2.6347,2.6439,2.5867,2.5205,2.5169,2.5306,2.5422,2.5422,2.5461,2.545,2.5062,2.4689,2.436,2.4051,2.3705,2.3438,2.3346,2.2956,2.2416,2.181,2.0695,1.9691,1.929,1.8843,1.8373,1.7969,0.0,0.0,0.0,0.0,0.0,0.0,0.0,0.0,0.0,0.0,0.0,0.0,0.0,0.0,0.0,1.531,1.5712,1.6874,1.7197,1.774,1.8455,1.977,2.057,2.0863,2.2136,2.2953,2.3374,2.3498,2.3669,2.3795,2.3705,2.3506,2.3247,2.3247,2.3197,2.3097,2.3097,2.3097,2.3046,2.2745,2.2636,2.2636,2.0177,0.0,1.9886,0.0,1.9721,1.9592,1.966,1.9488,1.9409,1.96,1.9128,1.8751,1.8558,1.8458,1.8504,1.8705,1.8612,1.8697,1.892,1.892,1.9058,1.9296,1.9371,0.0,1.9541,1.9521,1.9331,1.9057,1.9272,0.0,0.0,1.9507,1.9788,2.0074,2.0569,2.0914,2.1051,2.1668,2.2328,2.301,2.3614,2.4189,2.4784,2.5137,2.5518,2.5839,2.61,2.6496,2.6897,2.6889,2.6431,2.5821,2.5823,2.5873,2.587,2.5813,2.599,2.613,2.5713,2.5445,2.5178,2.4653,2.4187,2.3883,2.3785,2.3404,2.285,2.2241,2.129,2.0495,2.0231,1.9666,1.9153,1.9034,0.0,0.0,0.0,1.7967,0.0,0.0,1.7518,1.7295,1.6987,1.6772,0.0,0.0,0.0,0.0,0.0,1.5808,1.6208,1.7207,1.7604,1.8048,1.8647,2.0088,2.0866,2.0992,2.224,2.3151,2.3691,2.4059,2.4122,2.3994,2.3994,2.3795,2.3497,2.3497,2.3447,2.3397,2.3397,2.3397,2.3397,2.3197,2.3097,2.3097,2.0931,2.074,2.0616,2.075,2.0604,2.0439,2.0314,2.0283,2.011,1.9671,1.9587,1.9587,1.9587,1.9342,1.9188,1.9188,1.8966,1.892,1.9188,1.9188,1.9288,0.0,0.0,1.9882,1.9882,1.9754,1.9823,2.0079,0.0,0.0,2.0183,2.0385,2.0714,2.1046,2.09,2.1345,2.2291,2.2515,2.3067,2.3912,2.4312,2.4824,2.5284,2.5284,2.5616,2.6139,2.64,2.6651,2.6948,2.7441,2.7467,2.7147,2.6496,2.6411,2.6529,2.6259,2.6199,2.613,2.5876,2.5782,2.5615,2.4884,2.4672,2.4611,2.4278,2.3774,2.3155,2.2356,2.219,2.1897,2.1045,2.0875,2.0711,2.0246,1.9728,0.0,0.0,0.0,0.0,0.0,1.7877,1.7601,1.7334,1.7278,0.0,0.0,0.0,0.0,0.0,0.0,1.7045,1.8048,1.8265,1.8686,1.9288,2.0566,2.1182,2.1191,2.2044,2.2877,2.3747,2.4543,2.4726,2.448,2.448,2.4242,2.3805,2.3805,2.3646,2.3397,2.3397,2.3397,2.3397,2.3397,2.3397,2.3397,2.174,2.1499,2.1278,2.1377,2.1238,2.1016,2.0799,2.0781,2.0736,2.0555,2.0428,2.0346,2.0346,1.9799,1.9487,0.0,1.9396,1.9396,0.0,1.9487,1.9571,1.9799,1.9891,1.9973,2.0155,2.0307,2.0304,2.0096,2.0358,2.0454,2.0404,2.0753,2.0989,2.1135,2.1606,2.1998,2.2373,2.3155,2.3668,2.397,2.4722,2.5137,2.5333,2.5723,2.6052,2.64,2.6699,2.6938,2.7262,2.7715,2.7808,2.7661,2.7125,2.6911,2.6721,2.6331,2.6448,2.6652,2.6576,2.6404,2.6262,2.615,2.5566,2.5038,2.5121,2.4446,2.3758,2.3499,2.2878,2.2336,2.2027,2.14,2.0859,2.0706,2.0258,0.0,1.9957,0.0,1.947,0.0,1.9172,1.897,1.8767,1.8445,0.0,0.0,0.0,0.0,0.0,1.7164,1.7494,1.8296,1.851,1.8826,1.9288,2.0719,2.1505,2.169,2.251,2.3227,2.3914,2.4498,2.4773,2.4784,2.4784,2.4578,2.4291,2.4291,2.4143,2.3954,2.3954,2.3954,2.3904,2.3755,2.3646,2.3655,2.2404,2.2183,2.1998,2.1952,2.1785,2.1562,2.132,2.1186,2.1096,2.0997,2.0907,2.0826,2.0826,2.0382,2.0027,1.9762,1.9633,1.9633,1.9716,1.9716,1.9808,2.0019,2.0065,2.0201,2.0428,2.0609,2.0675,2.058,2.096,2.1053,2.0979,2.1227,2.142,2.1585,2.2189,2.264,2.2954,2.3709,2.4218,2.4475,2.5081,2.543,2.5625,2.5955,2.6352,2.6651,2.6853,2.7081,2.7357,2.7857,2.7998,2.7921,2.7431,2.7326,2.7178,2.6554,2.6603,2.6933,2.6974,2.6949,2.6851,2.6797,2.6368,2.5849,2.5648,2.4943,2.426,2.413,2.3621,2.3098,2.274,2.2143,2.1632,2.1431,2.0979,2.0647,2.0647,0.0,2.0222,0.0,0.0,1.9713,1.9524,1.9198,1.9006,0.0,0.0,0.0,0.0,1.8298,1.8414,1.8938,1.927,1.9624,2.0023,2.1249,2.1969,2.2154,2.3159,2.3875,2.4341,2.4742,2.4977,2.503,2.503,2.4883,2.4627,2.4627,2.4587,2.4449,2.4449,2.4399,2.4301,2.4143,2.3994,2.3954,2.2925,2.2803,2.2706,2.2485,2.2274,2.2052,2.1776,2.1571,2.1338,2.1087,2.1042,2.1042,2.1042,2.0997,2.0727,2.0019,1.9808,1.9762,1.9928,1.9936,2.0065,2.0337,2.0337,2.0473,2.0699,2.0744,2.0979,2.1446,2.1607,2.1696,2.1696,2.1741,2.1951,2.2327,2.263,2.3187,2.3942,2.4258,2.4736,2.5284,2.5333,2.5664,2.61,2.6149,2.6448,2.69,2.69,2.7081,2.7404,2.7857,2.7987,2.7921,2.7431,2.7635,2.7818,2.6895,2.6768,2.6974,2.719,2.7371,2.7406,2.6993,2.7038,2.6889,2.5863,2.5262,2.4803,2.4434,2.4325,2.4072,2.3268,2.3059,2.2855,2.233,2.1813,2.1464,2.1464,2.0901,2.0532,0.0,0.0,1.9976,1.9846,1.9627,1.958,0.0,0.0,0.0,0.0,1.9797,1.9767,1.9913,2.0367,2.082,2.1245,2.21,2.2512,2.2592,2.3871,2.4616,2.4858,2.5208,2.5369,2.5333,2.5333,2.5186,2.4932,2.4932,2.4932,2.4883,2.4883,2.4735,2.4538,2.4538,2.439,2.4251,2.3373,2.3067,2.2803,2.2706,2.2485,2.2309,2.2264,2.2052,2.1919,2.1874,2.1517,2.1293,2.1293,2.1141,2.0952,2.0772,2.0555,2.0382,2.0201,2.0201,2.0337,2.0609,2.0609,2.069,2.0907,2.1114,2.1347,2.1607,2.1696,2.1696,2.1696,2.1919,2.2221,2.262,2.3204,2.373,2.4249,2.4802,2.5149,2.5333,2.5761,2.6004,2.6149,2.6544,2.6805,2.6948,2.7129,2.7357,2.7584,2.7904,2.8139,2.8175,2.7532,2.7635,2.7818,2.6895,2.685,2.7179,2.7371,2.7441,2.7568,2.7825,2.7691,2.7275,2.621,2.5864,2.5661,2.5169,2.4737,2.4378,2.4172,2.3508,2.2975,2.2811,2.2354,2.2005,2.2005,2.1866,2.1721,0.0,2.1384,2.1198,2.1008,2.0728,2.0565,2.0626,0.0,2.0853,2.0686,2.1274,2.1218,2.0298,2.0641,2.1123,2.1718,2.2251,2.2823,2.3486,2.4034,2.4557,2.5087,2.4993,2.532,2.5907,2.5674,2.543,2.5186,2.5186,2.5088,2.4883,2.4883,2.4883,2.4784,2.4784,2.4784,2.4735,2.3677,2.3373,2.311,2.311,2.2838,2.2574,2.2574,2.2397,2.223,2.223,2.1919,2.1705,2.1705,2.1463,2.1275,2.1195,2.0961,2.0781,2.0645,2.06,2.069,2.0826,2.0826,2.0961,2.1195,2.1347,2.1482,2.1696,2.183,2.1874,2.1874,2.2141,2.2584,2.3166,2.367,2.4212,2.4764,2.5295,2.5528,2.5664,2.6004,2.6245,2.6496,2.6805,2.6996,2.7081,2.7262,2.7441,2.7631,2.7904,2.8196,2.8279,2.7532,2.7635,2.7818,2.6895,2.6891,2.7219,2.7441,2.7574,2.7777,2.8219,2.8035,2.756,2.7072,2.6602,2.6166,2.5996,2.551,2.5061,2.4818,2.4341,2.3846,2.3506,2.3216,2.3003,2.2951,2.2939,2.2875,2.2779,2.2618,2.2445,2.2227,2.201,2.1814,2.1715,2.18,2.179,2.1597,2.2229,2.2078,2.103,2.1381,2.1863,2.2451,2.3102,2.3701,2.4305,2.4444,2.4797,2.5315,2.5168,2.5465,2.61,2.5965,2.5732,2.5489,2.5489,2.5391,2.5284,2.5284,2.5186,2.5088,2.5088,2.499,2.4883,2.3894,2.3677,2.3547,2.3503,2.3154,2.2891,2.2847,2.2618,2.2441,2.2441,2.2274,2.2141,2.2141,2.1954,2.1741,2.1526,2.1284,2.1132,2.0997,2.0997,2.0997,2.1051,2.1042,2.1195,2.1437,2.1437,2.1571,2.1785,2.2008,2.2097,2.2141,2.2353,2.2893,2.368,2.3978,2.4543,2.5295,2.5606,2.5868,2.61,2.6197,2.6496,2.69,2.6948,2.7081,2.7309,2.7309,2.7499,2.7678,2.7951,2.8243,2.8315,2.7532,2.7635,2.7818,2.6895,2.6891,2.7219,2.7441,2.7696,2.8042,2.8391,2.8174,2.7891,2.7987,2.7272,2.6578,2.6685,2.6279,2.5775,2.5308,2.516,2.4918,2.4274,2.4062,2.3947,2.386,2.3806,2.3806,2.3806,2.3628,2.3416,2.327,2.3125,2.2956,2.2821,2.2674,2.2571,2.2537,2.2873,2.2772,2.2123,2.2446,2.2813,2.3317,2.4168,2.4713,2.4946,2.4903,2.5136,2.5578,2.5543,2.5744,2.6149,2.61,2.5965,2.5693,2.5693,2.5693,2.5693,2.5693,2.5538,2.5333,2.5333,2.5235,2.503,2.4163,2.3937,2.3711,2.3547,2.346,2.3319,2.3101,2.2882,2.2759,2.2759,2.253,2.2353,2.2353,2.2309,2.222,2.2008,2.1963,2.1642,2.1042,2.0997,2.1096,2.1347,2.1347,2.1437,2.1651,2.1651,2.1785,2.2052,2.2097,2.2185,2.2353,2.2618,2.3009,2.3479,2.4074,2.4651,2.5195,2.5798,2.6052,2.6149,2.6592,2.6853,2.69,2.7177,2.7262,2.7309,2.7489,2.7726,2.7998,2.8243,2.8524,2.8593,2.761,2.7635,2.7818,2.6895,2.6891,2.7219,2.7441,2.7805,2.8219,2.8431,2.8557,2.8521,2.811,2.764,2.7226,2.6771,2.6279,2.5886,2.58,2.5406,2.5074,2.4955,2.4417,2.398,2.398,2.386,2.3806,2.3806,2.3628,2.3494,2.3449,2.3327,2.3238,2.3204,2.3374,2.3433,2.3247,2.3561,2.3818,2.3973,2.3683,2.3766,2.4264,2.4817,2.5126,2.5158,2.4988,2.53,2.6055,2.5669,2.5847,2.6448,2.6197,2.5965,2.5693,2.5693,2.5693,2.5693,2.5693,2.5684,2.5635,2.5635,2.5586,2.5586,2.4368,2.4153,2.398,2.3894,2.3764,2.358,2.3363,2.3232,2.3154,2.2969,2.275,2.2618,2.2618,2.2485,2.2353,2.2264,2.2264,2.2132,2.1758,2.1499,2.1419,2.1562,2.1562,2.1607,2.1696,2.183,2.1963,2.2097,2.2362,2.253,2.2618,2.2838,2.3202,2.3619,2.4183,2.4751,2.5344,2.5864,2.6245,2.6544,2.6805,2.6996,2.7129,2.7262,2.7357,2.7489,2.7584,2.7867,2.8243,2.8348,2.8581,2.8628,2.7621,2.7547,2.7676,2.6853,2.6962,2.7412,2.7667,2.7938,2.8259,2.8471,2.8657,2.877,2.8604,2.8332,2.7978,2.7543,2.7044,2.6571,2.6273,2.6012,2.5803,2.5713,2.532,2.4978,2.4876,2.474,2.4602,2.4602,2.4522,2.4453,2.4361,2.4304,2.4235,2.4107,2.4214,2.4389,2.4585,2.4611,2.4734,2.5085,2.4915,2.4915,2.5031,2.552,2.5633,2.5422,2.5338,2.5614,2.619,2.5976,2.6162,2.6699,2.6602,2.6304,2.5917,2.5917,2.5917,2.5917,2.5917,2.6014,2.612,2.612,2.612,2.612,2.4497,2.4368,2.4239,2.4206,2.4024,2.3797,2.358,2.358,2.3493,2.3232,2.3057,2.2935,2.2882,2.2706,2.253,2.2485,2.2485,2.2485,2.2397,2.2043,2.182,2.1785,2.1731,2.1741,2.1776,2.2008,2.2141,2.2274,2.2627,2.2838,2.2882,2.3013,2.3276,2.3662,2.4235,2.4795,2.5384,2.6026,2.6496,2.69,2.6948,2.7129,2.7309,2.7357,2.7452,2.7631,2.7726,2.8066,2.8395,2.8488,2.8617,2.8628,2.7621,2.7459,2.7545,2.6811,2.7003,2.7493,2.78,2.8002,2.8191,2.8431,2.8697,2.8922,2.9052,2.8893,2.8562,2.8186,2.767,2.7153,2.66,2.6499,2.6465,2.6305,2.605,2.584,2.5688,2.5465,2.5312,2.5312,2.5312,2.5276,2.5147,2.5147,2.5135,2.5087,2.5074,2.5274,2.5781,2.5595,2.5591,2.5958,2.5848,2.5797,2.5747,2.6124,2.6115,2.5738,2.5686,2.5926,2.638,2.628,2.6474,2.6986,2.6948,2.6651,2.6197,2.6197,2.6197,2.6197,2.6197,2.6294,2.6496,2.6496,2.6496,2.6496,2.4497,2.4497,2.4411,2.4249,2.4163,2.4067,2.3841,2.3797,2.3711,2.3503,2.346,2.3373,2.3091,2.3047,2.2969,2.2794,2.275,2.2671,2.2441,2.2353,2.2264,2.2097,2.183,2.183,2.2052,2.2097,2.2318,2.2759,2.2803,2.2891,2.3091,2.3091,2.311,2.3179,2.4289,2.4812,2.4947,2.6286,2.6853,2.69,2.7177,2.7262,2.7309,2.7489,2.7594,2.7689,2.816,2.8348,2.8441,2.871,2.8803,2.8628,2.7621,2.7459,2.7545,2.6811,2.6891,2.7313,2.7771,2.7933,2.8002,2.8391,2.8788,2.9091,2.9091,2.8983,2.8737,2.8222,2.767,2.7153,2.66,2.6499,2.6499,2.6499,2.6154,2.5898,2.5875,2.5535,2.5312,2.5312,2.5312,2.5312,2.5276,2.5276,2.5481,2.5973,2.5838,2.5966,2.65,2.6323,2.6379,2.672,2.612,2.6046,2.6494,2.6539,2.6437,2.6146,2.599,2.6238,2.6904,2.6425,2.6612,2.7262,2.6996,2.6747,2.6448,2.6448,2.6448,2.6448,2.6448,2.6496,2.6496,2.6496,2.6496,2.6496,2.4786,2.4743,2.4658,2.4411,2.4378,2.4325,2.4067,2.4067,2.398,2.3711,2.3677,2.3667,2.3537,2.3527,2.3493,2.345,2.3319,2.3188,2.3101,2.2794,2.253,2.2309,2.2176,2.2176,2.2264,2.2441,2.2627,2.2803,2.2925,2.3013,2.3091,2.3091,2.3188,2.3402,2.436,2.4985,2.5386,2.6418,2.6996,2.7177,2.7262,2.7357,2.7489,2.7584,2.7831,2.8113,2.8348,2.8488,2.8664,2.8757,2.8606,2.82,2.7523,2.7162,2.6942,2.668,2.6809,2.7138,2.7719,2.7893,2.8002,2.8391,2.8776,2.9091,2.9091,2.9294,2.9302,2.8737,2.8185,2.762,2.7102,2.6725,2.6499,2.6499,2.6141,2.591,2.591,2.5535,2.5312,2.5312,2.5312,2.5432,2.5769,2.5793,2.6033,2.6574,2.6511,2.6713,2.7239,2.7406,2.7482,2.7467,2.7226,2.6984,2.6809,2.6768,2.6685,2.6437,2.6188,2.6494,2.7149,2.6849,2.6999,2.7499,2.7357,2.7129,2.6757,2.6757,2.6757,2.6757,2.6757,2.6842,2.7023,2.7023,2.7023,2.7023,2.5031,2.4988,2.4946,2.4743,2.4668,2.4583,2.4454,2.4325,2.4206,2.398,2.3937,2.3884,2.3797,2.3797,2.3797,2.3797,2.3667,2.359,2.359,2.3242,2.2838,2.2441,2.2397,2.2441,2.253,2.2715,2.2847,2.2882,2.3013,2.3091,2.3091,2.3091,2.3232,2.3543,2.4506,2.5178,2.567,2.6607,2.7177,2.7404,2.7404,2.7536,2.7726,2.782,2.8066,2.8395,2.8488,2.8617,2.8803,2.8803,2.8429,2.7914,2.7468,2.6933,2.6502,2.6579,2.6727,2.7067,2.7719,2.7893,2.8002,2.8391,2.8776,2.9091,2.9091,2.9456,2.9628,2.9013,2.8624,2.8197,2.7645,2.7231,2.6979,2.6909,2.6478,2.6121,2.6086,2.5597,2.5312,2.5312,2.5456,2.5697,2.6057,2.625,2.6586,2.7102,2.7138,2.7378,2.7906,2.8187,2.8191,2.8002,2.8002,2.7748,2.7231,2.7138,2.6974,2.6685,2.652,2.6781,2.7414,2.7204,2.7318,2.7726,2.7631,2.7404,2.7044,2.7044,2.7044,2.7044,2.7044,2.7129,2.7309,2.7309,2.7309,2.7309,2.52,2.52,2.52,2.52,2.5031,2.4903,2.4903,2.4658,2.4411,2.4249,2.4206,2.411,2.3841,2.3797,2.3797,2.3797,2.3797,2.3797,2.3797,2.3624,2.3198,2.2441,2.2397,2.253,2.2803,2.2803,2.2882,2.3091,2.3091,2.3091,2.3091,2.3091,2.3232,2.3543,2.4696,2.5371,2.567,2.6832,2.7404,2.7584,2.7584,2.7773,2.8034,2.829,2.8395,2.8441,2.871,2.8803,2.8803,2.8803,2.8429,2.7903,2.7457,2.6789,2.6229,2.652,2.6727,2.7056,2.7719,2.7893,2.8002,2.8391,2.8776,2.9091,2.9091,2.9456,2.9628,2.9013,2.8888,2.8725,2.821,2.8109,2.8036,2.7841,2.7187,2.6649,2.6408,2.5768,2.5324,2.5324,2.5781,2.6105,2.6105,2.661,2.7114,2.7681,2.7729,2.7957,2.8486,2.851,2.8431,2.8219,2.8219,2.8111,2.7893,2.7655,2.729,2.6891,2.6891,2.7172,2.7701,2.7414,2.7569,2.7998,2.7726,2.7489,2.7309,2.7309,2.7309,2.7309,2.7309,2.7309,2.7309,2.7309,2.7309,2.7309,2.5517,2.5475,2.5422,2.5242,2.5158,2.5115,2.5115,2.5031,2.4988,2.4903,2.4786,2.4647,2.4562,2.4401,2.4282,2.4282,2.4153,2.398,2.3797,2.3754,2.3624,2.3396,2.3057,2.2925,2.3013,2.3013,2.3057,2.3091,2.3091,2.3091,2.3091,2.3276,2.3493,2.3751,2.4966,2.5599,2.5912,2.7009,2.7547,2.7631,2.7809,2.8055,2.8301,2.8348,2.8535,2.871,2.8757,2.8803,2.8803,2.8803,2.8211,2.7392,2.6583,2.6167,2.6063,2.6479,2.6644,2.685,2.7679,2.7893,2.8002,2.8391,2.8776,2.9091,2.9091,2.9456,2.9741,2.9566,2.9176,2.88,2.8512,2.8151,2.7828,2.7607,2.7274,2.7041,2.6967,2.6649,2.6405,2.6405,2.6549,2.6864,2.7365,2.7597,2.795,2.8614,2.8702,2.8763,2.8934,2.8776,2.8854,2.9189,2.8691,2.8478,2.8685,2.8086,2.7626,2.7319,2.7196,2.7486,2.8182,2.7778,2.794,2.856,2.829,2.7925,2.7489,2.7489,2.7452,2.7309,2.7309,2.7309,2.7309,2.7309,2.7309,2.7309,2.5728,2.5728,2.5686,2.5506,2.5422,2.538,2.538,2.5285,2.52,2.52,2.5073,2.5105,2.5284,2.5144,2.5025,2.4939,2.4557,2.4239,2.411,2.4013,2.398,2.398,2.358,2.3406,2.3406,2.3319,2.3276,2.3276,2.3135,2.3135,2.3276,2.3416,2.3677,2.4011,2.4917,2.556,2.5972,2.6951,2.7521,2.7773,2.8045,2.8337,2.8581,2.8581,2.8664,2.8803,2.8803,2.8803,2.8771,2.8585,2.7839,2.6911,2.6147,2.5895,2.5979,2.6479,2.6603,2.6809,2.7679,2.7893,2.8002,2.8498,2.8855,2.9091,2.9091,2.9456,2.9792,2.9792,2.9426,2.9049,2.8922,2.8597,2.8235,2.8033,2.7736,2.7477,2.7413,2.7093,2.6935,2.6998,2.7229,2.7547,2.8053,2.8311,2.8619,2.9067,2.9091,2.919,2.945,2.9343,2.9536,3.0061,2.9525,2.9362,2.9539,2.9046,2.8498,2.7959,2.7754,2.8046,2.8826,2.8408,2.8432,2.8803,2.8617,2.8243,2.7773,2.7773,2.7678,2.7584,2.7584,2.7584,2.7584,2.7584,2.7584,2.7584,2.5895,2.5895,2.5895,2.5895,2.5728,2.5644,2.5644,2.5422,2.5242,2.5242,2.5242,2.5424,2.5903,2.5902,2.5847,2.5704,2.5034,2.4581,2.454,2.4368,2.4239,2.4249,2.398,2.3884,2.3884,2.3634,2.3547,2.3547,2.3276,2.3276,2.3547,2.3547,2.3807,2.4227,2.473,2.5293,2.5996,2.6714,2.7397,2.8045,2.8337,2.8571,2.8803,2.8803,2.8803,2.8803,2.8803,2.8771,2.8661,2.8091,2.7304,2.6497,2.6059,2.5895,2.6032,2.6479,2.6603,2.6809,2.7679,2.7893,2.8042,2.8645,2.8961,2.9091,2.9131,2.9468,2.9792,2.9753,2.956,2.938,2.9341,2.9197,2.9013,2.8803,2.8351,2.7958,2.7789,2.7342,2.7105,2.7307,2.777,2.8151,2.8393,2.8836,2.917,2.917,2.9219,2.9465,3.0022,3.0096,3.0355,3.0873,3.0587,3.0462,3.0511,3.0265,2.9678,2.881,2.8561,2.8819,2.9537,2.9248,2.906,2.8896,2.885,2.856,2.8092,2.8045,2.8045,2.7998,2.7998,2.7998,2.7998,2.7998,2.7998,2.7998,2.5895,2.5895,2.5895,2.5895,2.5853,2.5812,2.5812,2.577,2.577,2.577,2.5601,2.57,2.6184,2.6054,2.6062,2.6411,2.5909,2.5389,2.4849,2.4775,2.4658,2.4454,2.4368,2.4368,2.4368,2.3927,2.3711,2.3711,2.3667,2.3667,2.3754,2.3937,2.412,2.4227,2.4851,2.5526,2.6243,2.6957,2.7665,2.8348,2.8617,2.8757,2.8803,2.8803,2.8803,2.8803,2.8803,2.8517,2.8023,2.7173,2.6759,2.6497,2.6059,2.6032,2.6199,2.652,2.6727,2.6974,2.7731,2.7893,2.8042,2.8645,2.8961,2.9131,2.9314,2.9573,2.974,2.9509,2.9419,2.9302,2.8988,2.8882,2.8803,2.8618,2.8481,2.837,2.8342,2.8246,2.824,2.8412,2.8548,2.8778,2.9128,2.9459,2.9663,2.9663,3.0024,3.0323,3.0448,3.0739,3.1129,3.1662,3.1045,3.0908,3.135,3.0657,3.0067,2.9564,2.9479,2.9585,2.9734,2.9525,2.9499,2.9657,2.9231,2.8896,2.8606,2.8384,2.8196,2.7998,2.7998,2.7998,2.7998,2.7998,2.7998,2.7998,2.6229,2.6229,2.6188,2.6074,2.6021,2.6032,2.5895,2.5895,2.5895,2.5895,2.6018,2.6259,2.6726,2.6843,2.6906,2.6849,2.6267,2.5668,2.5062,2.5031,2.4988,2.4828,2.4743,2.47,2.47,2.4315,2.411,2.398,2.3841,2.3884,2.398,2.411,2.4249,2.4346,2.4712,2.5407,2.6322,2.6836,2.7565,2.8441,2.871,2.8803,2.8803,2.8803,2.8661,2.8418,2.8418,2.796,2.7249,2.6759,2.6431,2.6234,2.5983,2.6032,2.6229,2.652,2.6798,2.7167,2.776,2.7962,2.8191,2.8803,2.9,2.917,2.9341,2.9509,2.956,2.9419,2.9263,2.9067,2.8843,2.8724,2.8618,2.851,2.851,2.851,2.851,2.8578,2.8736,2.8922,2.904,2.9263,2.9703,2.996,3.0189,3.0455,3.0708,3.1061,3.1524,3.1732,3.2022,3.2446,3.196,3.1821,3.2129,3.162,3.1229,3.1039,3.0431,3.0273,3.0493,3.0183,3.0031,3.0011,2.9646,2.9277,2.8943,2.8803,2.8571,2.8373,2.8373,2.8373,2.8373,2.8373,2.8373,2.8373,2.6603,2.6603,2.652,2.6313,2.6282,2.6199,2.6074,2.6021,2.6021,2.6021,2.6406,2.6845,2.7316,2.7829,2.7836,2.7093,2.6507,2.5882,2.5327,2.5285,2.5274,2.5317,2.5147,2.5061,2.5061,2.4826,2.4537,2.4249,2.4024,2.4013,2.4249,2.4249,2.4335,2.4497,2.454,2.518,2.6241,2.6604,2.7353,2.8369,2.8678,2.8803,2.8792,2.8705,2.8386,2.798,2.7903,2.7315,2.6573,2.6486,2.6234,2.5895,2.5895,2.6063,2.6313,2.652,2.691,2.736,2.78,2.803,2.8339,2.8934,2.9091,2.917,2.9392,2.9419,2.938,2.9341,2.9067,2.8803,2.8764,2.8618,2.851,2.851,2.851,2.851,2.851,2.8657,2.8882,2.9091,2.9353,2.9664,3.0075,3.0292,3.0637,3.1163,3.1304,3.1724,3.2593,3.2704,3.2874,3.3142,3.2896,3.2766,3.2766,3.2562,3.2431,3.2431,3.1359,3.1021,3.135,3.0937,3.0532,3.0261,3.0057,2.9691,2.922,2.9128,2.8989,2.885,2.885,2.885,2.885,2.885,2.885,2.885,2.6603,2.6603,2.6603,2.6561,2.6561,2.652,2.652,2.652,2.652,2.652,2.6723,2.7039,2.759,2.8271,2.8298,2.7347,2.7161,2.6672,2.5613,2.5559,2.5604,2.5796,2.5774,2.5763,2.5763,2.5556,2.515,2.4454,2.4411,2.4411,2.4454,2.4454,2.4454,2.4497,2.4743,2.5251,2.5986,2.6656,2.7363,2.8087,2.8593,2.8803,2.876,2.8298,2.8056,2.7947,2.7522,2.7075,2.6519,2.6136,2.595,2.5895,2.5895,2.6188,2.6561,2.6603,2.7003,2.7522,2.7841,2.803,2.8339,2.8934,2.9091,2.9209,2.9663,2.956,2.9341,2.9157,2.8961,2.8764,2.8578,2.851,2.851,2.851,2.851,2.851,2.851,2.8657,2.8882,2.9091,2.965,3.0037,3.0075,3.0292,3.0637,3.1163,3.1675,3.2239,3.2841,3.3144,3.3322,3.3356,3.3154,3.3038,3.3038,3.281,3.268,3.268,3.2314,3.1965,3.1617,3.135,3.0937,3.0532,3.0261,3.0,2.9748,2.9266,2.9082,2.9082,2.9082,2.9082,2.9082,2.9082,2.9082,2.9035,2.6944,2.6944,2.6891,2.6768,2.6768,2.6727,2.6603,2.6603,2.6603,2.6603,2.7126,2.7598,2.7821,2.8541,2.8501,2.7403,2.7315,2.6868,2.5835,2.603,2.6184,2.6303,2.6421,2.6516,2.6516,2.604,2.5589,2.5259,2.475,2.4497,2.4497,2.4658,2.4743,2.4743,2.4946,2.5466,2.6152,2.6454,2.6986,2.7631,2.8167,2.8353,2.8331,2.8078,2.7827,2.7489,2.6791,2.6398,2.619,2.5972,2.5895,2.5906,2.6021,2.6313,2.6603,2.6727,2.7219,2.7748,2.7893,2.8231,2.8645,2.9013,2.9157,2.9353,2.9702,2.9599,2.9341,2.9131,2.8922,2.8724,2.855,2.851,2.851,2.851,2.851,2.851,2.851,2.8776,2.9131,2.9599,3.0024,3.0305,3.0432,3.0893,3.1422,3.1993,3.2589,3.3118,3.3537,3.3724,3.3738,3.3556,3.3471,3.3441,3.3441,3.3227,3.3099,3.3099,3.2723,3.2332,3.1849,3.1617,3.135,3.0982,3.0578,3.0273,3.0045,2.9691,2.9451,2.9301,2.9301,2.9301,2.9301,2.9301,2.9301,2.9301]}]]